[[{"header":{"parameterUnit":"m.s-1","parameterCategory":1,"la1":30.6,"la2":28.766,"lo1":-90.7593,"lo2":-88.6598,"dy":0.0162,"dx":0.0183,"nx":116,"ny":114,"refTime":"2024-03-24T12:00:00:Z","depth":0,"parameterNumber":2,"parameterNumberName":"U-component_of_WINDS"},"data":[0.0,0.0,0.0,0.0,0.0,0.0,0.0,0.0,0.0,0.0,0.0,0.0,0.0,0.0,0.0,0.0,0.0,0.0,0.0,0.0,0.0,0.0,0.0,0.0,0.0,0.0,0.0,0.0,0.0,0.0,0.0,0.0,0.0,0.0,0.0,0.0,0.0,0.0,0.0,0.0,0.0,0.0,0.0,0.0,0.0,0.0,0.0,0.0,0.0,0.0,0.0,0.0,0.0,0.0,0.0,0.0,0.0,0.0,0.0,0.0,0.0,0.0,0.0,0.0,0.0,0.0,0.0,0.0,0.0,0.0,0.0,0.0,0.0,0.0,0.0,0.0,0.0,0.0,0.0,0.0,0.0,0.0,0.0,0.0,0.0,0.0,0.0,0.0,0.0,0.0,0.0,0.0,0.0,0.0,0.0,0.0,0.0,0.0,0.0,0.0,0.0,0.0,0.0,0.0,0.0,0.0,0.0,0.0,0.0,0.0,0.0,0.0,0.0,0.0,0.0,0.0,0.0,0.0,0.0,0.0,0.0,0.0,0.0,0.0,0.0,0.0,0.0,0.0,0.0,0.0,0.0,0.0,0.0,0.0,0.0,0.0,0.0,0.0,0.0,0.0,0.0,0.0,0.0,0.0,0.0,0.0,0.0,0.0,0.0,0.0,0.0,0.0,0.0,0.0,0.0,0.0,0.0,0.0,0.0,0.0,0.0,0.0,0.0,0.0,0.0,0.0,0.0,0.0,0.0,0.0,0.0,0.0,0.0,0.0,0.0,0.0,0.0,0.0,0.0,0.0,0.0,0.0,0.0,0.0,0.0,0.0,0.0,0.0,0.0,0.0,0.0,0.0,0.0,0.0,0.0,0.0,0.0,0.0,0.0,0.0,0.0,0.0,0.0,0.0,0.0,0.0,0.0,0.0,0.0,0.0,0.0,0.0,0.0,0.0,0.0,0.0,0.0,0.0,0.0,0.0,0.0,0.0,0.0,0.0,0.0,0.0,0.0,0.0,0.0,0.0,0.0,0.0,0.0,0.0,0.0,0.0,0.0,0.0,0.0,0.0,0.0,0.0,0.0,0.0,0.0,0.0,0.0,0.0,0.0,0.0,0.0,0.0,0.0,0.0,0.0,0.0,0.0,0.0,0.0,0.0,0.0,0.0,0.0,0.0,0.0,0.0,0.0,0.0,0.0,0.0,0.0,0.0,0.0,0.0,0.0,0.0,0.0,0.0,0.0,0.0,0.0,0.0,0.0,0.0,0.0,0.0,0.0,0.0,0.0,0.0,0.0,0.0,0.0,0.0,0.0,0.0,0.0,0.0,0.0,0.0,0.0,0.0,0.0,0.0,0.0,0.0,0.0,0.0,0.0,0.0,0.0,0.0,0.0,0.0,0.0,0.0,0.0,0.0,0.0,0.0,0.0,0.0,0.0,0.0,0.0,0.0,0.0,0.0,0.0,0.0,0.0,0.0,0.0,0.0,0.0,0.0,0.0,0.0,0.0,0.0,0.0,0.0,0.0,0.0,0.0,0.0,0.0,0.0,0.0,0.0,0.0,0.0,0.0,0.0,0.0,0.0,0.0,0.0,0.0,0.0,0.0,0.0,0.0,0.0,0.0,0.0,0.0,0.0,0.0,0.0,0.0,0.0,0.0,0.0,0.0,0.0,0.0,0.0,0.0,0.0,0.0,0.0,0.0,0.0,0.0,0.0,0.0,0.0,0.0,0.0,0.0,0.0,0.0,0.0,0.0,0.0,0.0,0.0,0.0,0.0,0.0,0.0,0.0,0.0,0.0,0.0,0.0,0.0,0.0,0.0,0.0,0.0,0.0,0.0,0.0,0.0,0.0,0.0,0.0,0.0,0.0,0.0,0.0,0.0,0.0,0.0,0.0,0.0,0.0,0.0,0.0,0.0,0.0,0.0,0.0,0.0,0.0,0.0,0.0,0.0,0.0,0.0,0.0,0.0,0.0,0.0,0.0,0.0,0.0,0.0,0.0,0.0,0.0,0.0,0.0,0.0,0.0,0.0,0.0,0.0,0.0,0.0,0.0,0.0,0.0,0.0,0.0,0.0,0.0,0.0,0.0,0.0,0.0,0.0,0.0,0.0,0.0,0.0,0.0,0.0,0.0,0.0,0.0,0.0,0.0,0.0,0.0,0.0,0.0,0.0,0.0,0.0,0.0,0.0,0.0,0.0,0.0,0.0,0.0,0.0,0.0,0.0,0.0,0.0,0.0,0.0,0.0,0.0,0.0,0.0,0.0,0.0,0.0,0.0,0.0,0.0,0.0,0.0,0.0,0.0,0.0,0.0,0.0,0.0,0.0,0.0,0.0,0.0,0.0,0.0,0.0,0.0,0.0,0.0,0.0,0.0,0.0,0.0,0.0,0.0,0.0,0.0,0.0,0.0,0.0,0.0,0.0,0.0,0.0,0.0,0.0,0.0,0.0,0.0,0.0,0.0,0.0,0.0,0.0,0.0,0.0,0.0,0.0,0.0,0.0,0.0,0.0,0.0,0.0,0.0,0.0,0.0,0.0,0.0,0.0,0.0,0.0,0.0,0.0,0.0,0.0,0.0,0.0,0.0,0.0,0.0,0.0,0.0,0.0,0.0,0.0,0.0,0.0,0.0,0.0,0.0,0.0,0.0,0.0,0.0,0.0,0.0,0.0,0.0,0.0,0.0,0.0,0.0,0.0,0.0,0.0,0.0,0.0,0.0,0.0,0.0,0.0,0.0,0.0,0.0,0.0,0.0,0.0,0.0,0.0,0.0,0.0,0.0,0.0,0.0,0.0,0.0,0.0,0.0,0.0,0.0,0.0,0.0,0.0,0.0,0.0,0.0,0.0,0.0,0.0,0.0,0.0,0.0,0.0,0.0,0.0,0.0,0.0,0.0,0.0,0.0,0.0,0.0,0.0,0.0,0.0,0.0,0.0,0.0,0.0,0.0,0.0,0.0,0.0,0.0,0.0,0.0,0.0,0.0,0.0,0.0,0.0,0.0,0.0,0.0,0.0,0.0,0.0,0.0,0.0,0.0,0.0,0.0,0.0,0.0,0.0,0.0,0.0,0.0,0.0,0.0,0.0,0.0,0.0,0.0,0.0,0.0,0.0,0.0,0.0,0.0,0.0,0.0,0.0,0.0,0.0,0.0,0.0,0.0,0.0,0.0,0.0,0.0,0.0,0.0,0.0,0.0,0.0,0.0,0.0,0.0,0.0,0.0,0.0,0.0,0.0,0.0,0.0,0.0,0.0,0.0,0.0,0.0,0.0,0.0,0.0,0.0,0.0,0.0,0.0,0.0,0.0,0.0,0.0,0.0,0.0,0.0,0.0,0.0,0.0,0.0,0.0,0.0,0.0,0.0,0.0,0.0,0.0,0.0,0.0,0.0,0.0,0.0,0.0,0.0,0.0,0.0,0.0,0.0,0.0,0.0,0.0,0.0,0.0,0.0,0.0,0.0,0.0,0.0,0.0,0.0,0.0,0.0,0.0,0.0,0.0,0.0,0.0,0.0,0.0,0.0,0.0,0.0,0.0,0.0,0.0,0.0,0.0,0.0,0.0,0.0,0.0,0.0,0.0,0.0,0.0,0.0,0.0,0.0,0.0,0.0,0.0,0.0,0.0,0.0,0.0,0.0,0.0,0.0,0.0,0.0,0.0,0.0,0.0,0.0,0.0,0.0,0.0,0.0,0.0,0.0,0.0,0.0,0.0,0.0,0.0,0.0,0.0,0.0,0.0,0.0,0.0,0.0,0.0,0.0,0.0,0.0,0.0,0.0,0.0,0.0,0.0,0.0,0.0,0.0,0.0,0.0,0.0,0.0,0.0,0.0,0.0,0.0,0.0,0.0,0.0,0.0,0.0,0.0,0.0,0.0,0.0,0.0,0.0,0.0,0.0,0.0,0.0,0.0,0.0,0.0,0.0,0.0,0.0,0.0,0.0,0.0,0.0,0.0,0.0,0.0,0.0,0.0,0.0,0.0,0.0,0.0,0.0,0.0,0.0,0.0,0.0,0.0,0.0,0.0,0.0,0.0,0.0,0.0,0.0,0.0,0.0,0.0,0.0,0.0,0.0,0.0,0.0,0.0,0.0,0.0,0.0,0.0,0.0,0.0,0.0,0.0,0.0,0.0,0.0,0.0,0.0,0.0,0.0,0.0,0.0,0.0,0.0,0.0,0.0,0.0,0.0,0.0,0.0,0.0,0.0,0.0,0.0,0.0,0.0,0.0,0.0,0.0,0.0,0.0,0.0,0.0,0.0,0.0,0.0,0.0,0.0,0.0,0.0,0.0,0.0,0.0,0.0,0.0,0.0,0.0,0.0,0.0,0.0,0.0,0.0,0.0,0.0,0.0,0.0,0.0,0.0,0.0,0.0,0.0,0.0,0.0,0.0,0.0,0.0,0.0,0.0,0.0,0.0,0.0,0.0,0.0,0.0,0.0,0.0,0.0,0.0,0.0,0.0,0.0,0.0,0.0,0.0,0.0,0.0,0.0,0.0,0.0,0.0,0.0,0.0,0.0,0.0,0.0,0.0,0.0,0.0,0.0,0.0,0.0,0.0,0.0,0.0,0.0,0.0,0.0,0.0,0.0,0.0,0.0,0.0,0.0,0.0,0.0,0.0,0.0,0.0,0.0,0.0,0.0,0.0,0.0,0.0,0.0,0.0,0.0,0.0,0.0,0.0,0.0,0.0,0.0,0.0,0.0,0.0,0.0,0.0,0.0,0.0,0.0,0.0,0.0,0.0,0.0,0.0,0.0,0.0,0.0,0.0,0.0,0.0,0.0,0.0,0.0,0.0,0.0,0.0,0.0,0.0,0.0,0.0,0.0,0.0,0.0,0.0,0.0,0.0,0.0,0.0,0.0,0.0,0.0,0.0,0.0,0.0,0.0,0.0,0.0,0.0,0.0,0.0,0.0,0.0,0.0,0.0,0.0,0.0,0.0,0.0,0.0,0.0,0.0,0.0,0.0,0.0,0.0,0.0,0.0,0.0,0.0,0.0,0.0,0.0,0.0,0.0,0.0,0.0,0.0,0.0,0.0,0.0,0.0,0.0,0.0,0.0,0.0,0.0,0.0,0.0,0.0,0.0,0.0,0.0,0.0,0.0,0.0,0.0,0.0,0.0,0.0,0.0,0.0,0.0,0.0,0.0,0.0,0.0,0.0,0.0,0.0,0.0,0.0,0.0,0.0,0.0,0.0,0.0,0.0,0.0,0.0,0.0,0.0,0.0,0.0,0.0,0.0,0.0,0.0,0.0,0.0,0.0,0.0,0.0,0.0,0.0,0.0,0.0,0.0,0.0,0.0,0.0,0.0,0.0,0.0,0.0,0.0,0.0,0.0,0.0,0.0,0.0,0.0,0.0,0.0,0.0,0.0,0.0,0.0,0.0,0.0,0.0,0.0,0.0,0.0,0.0,0.0,0.0,0.0,0.0,0.0,0.0,0.0,0.0,0.0,0.0,0.0,0.0,0.0,0.0,0.0,0.0,0.0,0.0,0.0,0.0,0.0,0.0,0.0,0.0,0.0,0.0,0.0,0.0,0.0,0.0,0.0,0.0,0.0,0.0,0.0,0.0,0.0,0.0,0.0,0.0,0.0,0.0,0.0,0.0,0.0,0.0,0.0,0.0,0.0,0.0,0.0,0.0,0.0,0.0,0.0,0.0,0.0,0.0,0.0,0.0,0.0,0.0,0.0,0.0,0.0,0.0,0.0,0.0,0.0,0.0,0.0,0.0,0.0,0.0,0.0,0.0,0.0,0.0,0.0,0.0,0.0,0.0,0.0,0.0,0.0,0.0,0.0,0.0,0.0,0.0,0.0,0.0,0.0,0.0,0.0,0.0,0.0,0.0,0.0,0.0,0.0,0.0,0.0,0.0,0.0,0.0,0.0,0.0,0.0,0.0,0.0,0.0,0.0,0.0,0.0,0.0,0.0,0.0,0.0,0.0,0.0,0.0,0.0,0.0,0.0,0.0,0.0,0.0,0.0,0.0,0.0,0.0,0.0,0.0,0.0,0.0,0.0,0.0,0.0,0.0,0.0,0.0,0.0,0.0,0.0,0.0,0.0,0.0,0.0,0.0,0.0,0.0,0.0,0.0,0.0,-1.1534,0.0,0.0,0.0,0.0,0.0,0.0,0.0,0.0,0.0,0.0,0.0,0.0,0.0,0.0,0.0,0.0,0.0,0.0,0.0,0.0,0.0,0.0,0.0,0.0,1.0097,1.0071,1.0,0.9939,0.9895,0.9863,0.9638,0.9389,0.9093,0.9277,0.919,0.8751,0.8822,0.8973,0.9209,0.9584,1.0189,1.1088,1.1579,1.1265,1.0293,0.0,0.0,0.0,0.0,0.0,0.0,0.0,0.0,0.0,0.0,0.0,0.0,0.0,0.0,0.0,0.0,0.0,0.0,0.0,0.0,0.0,0.0,0.0,0.0,0.0,0.0,0.0,0.0,0.0,0.0,0.0,0.0,0.0,0.0,0.0,0.0,0.0,0.0,0.0,0.0,0.0,0.0,0.0,0.0,0.0,0.0,0.0,0.0,0.0,0.0,0.0,0.0,0.0,0.0,0.0,0.0,0.0,0.0,0.0,0.0,0.0,0.0,0.0,0.0,0.0,0.0,0.0,0.0,0.0,0.0,0.0,-1.2316,0.0,0.0,0.0,0.0,0.0,0.0,0.0,0.0,0.0,0.0,0.0,0.0,0.0,0.0,0.0,0.0,0.0,0.0,0.0,0.0,0.0,0.9943,1.0031,1.0122,1.0177,1.0249,1.0155,1.019,1.0378,0.9875,0.9484,0.9359,0.9359,0.9218,0.8878,0.9034,0.9397,0.9974,1.0202,1.1219,1.2926,1.4415,1.4184,1.2532,1.2046,0.0,0.0,0.0,0.0,0.0,0.0,0.0,0.0,0.0,0.0,0.0,0.0,0.0,0.0,0.0,0.0,0.0,0.0,0.0,0.0,0.0,0.0,0.0,0.0,0.0,0.0,0.0,0.0,0.0,0.0,0.0,0.0,0.0,0.0,0.0,0.0,0.0,0.0,0.0,0.0,0.0,0.0,0.0,0.0,0.0,0.0,0.0,0.0,0.0,0.0,0.0,0.0,0.0,0.0,0.0,0.0,0.0,0.0,0.0,0.0,0.0,0.0,0.0,-1.3858,-1.3746,-1.294,-1.2894,-1.3141,-1.3585,-1.384,-1.3747,-1.3365,-1.2788,0.0,0.0,0.0,0.0,0.0,0.0,0.0,0.0,0.0,0.0,0.0,0.0,0.0,0.0,0.0,0.0,0.0,0.0,0.0,0.9719,1.0132,1.0339,1.0562,1.0857,1.0391,1.0083,0.9973,0.93,0.8873,0.8726,0.8772,0.8812,0.8816,0.9265,0.9652,0.9897,1.186,1.3804,1.5672,1.6609,1.6792,1.6205,1.4014,1.2808,1.2271,0.0,0.0,0.0,0.0,0.0,0.0,0.0,0.0,0.0,0.0,0.0,0.0,0.0,0.0,0.0,0.0,0.0,0.0,0.0,0.0,0.0,0.0,0.0,0.0,0.0,0.0,0.0,0.0,0.0,0.0,0.0,0.0,0.0,0.0,0.0,0.0,0.0,0.0,0.0,0.0,0.0,-0.311,-0.5074,0.0,0.0,0.0,0.0,0.0,0.0,0.0,0.0,0.0,0.0,0.0,0.0,0.0,-1.3096,-1.5105,-1.4692,-1.506,-1.6219,-1.639,-1.5979,-1.5096,-1.5141,-1.4837,-1.4306,-1.5026,0.0,-1.3391,-1.3243,0.0,0.0,0.0,0.0,0.0,0.0,0.0,0.0,0.0,0.0,0.0,0.0,0.0,0.0,0.0,0.0,0.0,0.0,0.0,0.0,0.0,1.1349,1.1886,1.2292,1.3035,1.277,1.1097,1.1172,1.057,0.9017,0.8933,0.9085,0.9471,0.9712,1.0452,1.1767,1.4335,1.596,1.6687,1.7979,1.8278,1.7659,1.6018,1.4437,1.2949,1.2323,0.0,0.0,0.0,0.0,0.0,0.0,0.0,0.0,0.0,0.0,0.0,0.0,0.0,0.0,0.0,0.0,0.0,0.0,0.0,0.0,0.0,0.0,0.0,0.0,0.0,0.0,0.0,0.0,0.0,0.0,0.0,0.0,0.0,0.0,0.0,0.0,0.0,0.0,0.0,-0.3274,-0.4236,-0.503,-0.6003,-0.6661,0.0,0.0,0.0,0.0,0.0,0.0,0.0,0.0,0.0,-1.3546,-1.3919,-1.4751,-1.6092,-1.6415,-1.6665,-1.6867,-1.7335,-1.6913,-1.5665,-1.5621,-1.5145,-1.4362,-1.4719,-1.4502,-1.3922,-1.4043,-1.3421,-1.2392,0.0,0.0,0.0,0.0,-1.2166,-1.2632,0.0,0.0,0.0,0.0,0.0,0.0,0.0,0.0,0.0,0.0,0.0,0.0,1.1895,1.2854,1.373,1.4487,1.5422,1.5066,1.2853,1.2674,1.1729,0.9739,0.9356,0.945,1.005,1.064,1.1906,1.3807,1.6191,1.7486,1.7774,1.8995,1.9346,1.8834,1.7865,1.6232,1.4173,1.3168,1.1947,1.0516,0.0,0.0,0.0,0.0,0.0,0.0,0.0,0.0,0.0,0.0,0.0,0.0,0.0,0.0,0.0,0.0,0.0,0.0,0.0,0.0,0.0,0.0,0.0,0.0,0.0,0.0,0.0,0.0,0.0,0.0,0.0,0.0,0.0,0.0,0.0,0.0,0.0,-0.4753,-0.5211,-0.5473,-0.666,-0.7355,0.0,0.0,0.0,0.0,0.0,0.0,-1.2132,-1.3145,-1.3973,-1.4512,-1.5519,-1.6237,-1.6568,-1.7592,-1.7789,-1.7188,-1.8009,-1.7568,-1.5997,-1.5905,-1.5275,-1.4255,-1.4255,-1.4255,-1.4263,-1.4469,-1.4097,-1.3297,-1.2568,-1.236,-1.2448,-1.242,-1.2592,-1.301,0.0,0.0,0.0,0.0,0.0,0.0,0.0,0.0,0.0,0.0,0.0,1.1709,1.3903,1.4862,1.6007,1.752,1.6479,1.5567,1.5248,1.265,1.1034,1.0805,0.9888,0.9646,1.0171,1.238,1.4144,1.5468,1.6643,1.8068,1.977,1.9837,2.0116,2.0427,1.9556,1.814,1.6293,1.41,1.2842,1.2135,1.0562,0.0,0.0,0.0,0.0,0.0,0.0,0.0,0.0,0.0,0.0,0.0,0.0,0.0,0.0,0.0,0.0,0.0,0.0,0.0,0.0,0.0,0.0,0.0,0.0,0.0,0.0,0.0,0.0,0.0,0.0,0.0,0.0,0.0,0.0,0.0,0.0,0.0,0.0,-0.7462,-0.7952,0.0,0.0,0.0,0.0,-1.0754,-1.1113,-1.2157,-1.4137,-1.5154,-1.5854,-1.6248,-1.7138,-1.7323,-1.6793,-1.7654,-1.8042,-1.7964,-1.8828,-1.8307,-1.6555,-1.6544,-1.5656,-1.4119,-1.4119,-1.4114,-1.4123,-1.4188,-1.3853,-1.3221,-1.2493,-1.2255,-1.2324,-1.239,-1.2934,-1.375,0.0,0.0,0.0,0.0,0.0,0.0,1.021,0.997,0.9903,1.0169,1.1582,1.3287,1.5109,1.6991,1.8667,1.9904,1.9752,1.8726,1.6705,1.4908,1.3492,1.2556,1.1204,1.1056,1.2232,1.3883,1.5186,1.6197,1.7544,1.8756,1.986,2.0209,2.0225,1.9933,1.9258,1.839,1.7262,1.5362,1.3733,1.2321,1.134,1.0233,0.0,0.0,0.0,0.0,0.0,0.0,0.0,0.0,0.0,0.0,0.0,0.0,0.0,0.0,0.0,0.0,0.0,0.0,0.0,0.0,0.0,0.0,0.0,0.0,0.0,0.0,0.0,0.0,0.0,0.0,0.0,0.0,0.0,0.0,0.0,0.0,0.0,-0.716,-0.8111,0.0,-0.9231,-1.0221,-1.1213,-1.2182,-1.3099,-1.397,-1.4808,-1.5894,-1.6784,-1.7348,-1.8153,-1.863,-1.8735,-1.9003,-1.9021,-1.8783,-1.9038,-1.8281,-1.6649,-1.6571,-1.5604,-1.3963,-1.3923,-1.3952,-1.4037,-1.406,-1.3987,-1.3847,-1.3632,-1.3332,-1.3001,-1.3027,-1.2997,-1.2974,0.0,0.0,0.0,0.0,0.0,1.016,0.9957,0.9977,1.0131,1.0488,1.2707,1.4935,1.6714,1.9168,2.1045,2.199,2.1758,2.0558,1.8231,1.6148,1.4535,1.3516,1.2388,1.2591,1.4381,1.5379,1.6382,1.7408,1.8578,1.9569,2.0435,2.0322,2.0277,2.0172,1.9287,1.8596,1.8024,1.6773,1.5119,1.3248,1.2204,1.1292,1.0453,0.0,0.0,0.0,0.0,0.0,0.0,0.0,0.0,0.0,0.0,0.0,0.0,0.0,0.0,0.0,0.0,0.0,0.0,0.0,0.0,0.0,0.0,0.0,0.0,0.0,0.0,0.0,0.0,0.0,0.0,0.0,0.0,0.0,0.0,-0.5885,-0.675,-0.762,-0.883,-0.9702,-1.0077,-1.1235,-1.2426,-1.3488,-1.4374,-1.5149,-1.5768,-1.7048,-1.7912,-1.8234,-1.8996,-1.9354,-1.9243,-1.9187,-1.8977,-1.8585,-1.8854,-1.8167,-1.6649,-1.6604,-1.5619,-1.3966,-1.3923,-1.3927,-1.3973,-1.3995,-1.3872,-1.3684,-1.3564,-1.3306,-1.2956,-1.2712,-1.2365,-1.2071,0.0,0.0,0.0,0.0,0.0,1.0084,0.9475,0.9972,1.0666,1.1482,1.407,1.6585,1.8596,2.12,2.3107,2.3749,2.2181,2.0794,1.9853,1.6168,1.3891,1.3642,1.335,1.4194,1.6378,1.6819,1.7709,1.9227,1.9594,2.039,2.151,2.0411,2.0346,2.1295,1.9696,1.8958,1.8762,1.8227,1.6987,1.5129,1.3163,1.2456,1.2334,0.0,0.0,0.0,0.0,0.0,0.0,0.0,0.0,0.0,0.0,0.0,0.0,0.0,0.0,0.0,0.0,0.0,0.0,0.0,0.0,0.0,0.0,0.0,0.0,0.0,0.0,0.0,0.0,0.0,0.0,0.0,0.0,0.0,-0.58,-0.6644,-0.7606,-0.8957,-1.0195,-1.0866,-1.0755,-1.1951,-1.3287,-1.4659,-1.4836,-1.554,-1.7156,-1.8571,-1.923,-1.891,-1.9595,-1.9375,-1.8142,-1.8115,-1.7894,-1.7436,-1.8253,-1.7929,-1.6613,-1.6642,-1.5721,-1.41,-1.4091,-1.4026,-1.3903,-1.3966,-1.3492,-1.2662,-1.2213,-1.2087,-1.2074,-1.1393,-1.1121,-1.1246,0.0,0.0,0.0,0.0,0.0,0.9698,0.9434,0.9972,1.0592,1.1101,1.4325,1.7375,1.9336,2.1656,2.3393,2.4242,2.1963,2.0214,1.9674,1.5973,1.3886,1.4111,1.5019,1.618,1.7436,1.7605,1.8205,1.9275,1.9782,2.0284,2.0873,2.0628,2.0322,1.9942,1.9713,1.9306,1.8786,1.8631,1.8045,1.7046,1.5194,1.4104,1.3504,0.0,0.0,0.0,0.0,0.0,0.0,0.0,0.0,0.0,0.0,0.0,0.0,0.0,0.0,0.0,0.0,0.0,0.0,0.0,0.0,0.0,0.0,0.0,0.0,0.0,0.0,0.0,0.0,0.0,0.0,0.0,-0.3288,-0.4369,-0.5882,-0.6736,-0.7784,-0.9199,-1.0614,-1.1644,-1.2112,-1.3106,-1.4305,-1.5764,-1.6013,-1.6564,-1.7638,-1.8503,-1.8888,-1.8764,-1.9247,-1.9192,-1.8549,-1.8485,-1.8374,-1.8176,-1.7749,-1.717,-1.6504,-1.5887,-1.5041,-1.4026,-1.4026,-1.3987,-1.3903,-1.4023,-1.3533,-1.2688,-1.2668,-1.2074,-1.1292,-1.1676,-1.189,-1.2121,0.0,0.0,0.0,0.0,0.0,0.9814,0.9499,1.0193,1.0955,1.1444,1.5024,1.8091,1.949,2.1741,2.3168,2.3207,2.1212,1.9468,1.8398,1.5849,1.4887,1.6081,1.6643,1.763,1.9207,1.8567,1.8836,2.0241,2.0357,2.0815,2.1555,2.1382,2.1119,2.0779,2.0149,1.9744,1.9428,1.903,1.878,1.8524,1.6947,1.5916,1.5171,1.3946,1.3225,1.278,1.197,1.1271,1.0613,1.005,0.0,0.0,0.0,0.0,0.0,0.0,0.0,0.0,0.0,0.0,0.0,0.0,0.0,0.0,0.0,0.0,0.0,0.0,0.0,0.0,0.0,0.0,0.0,0.0,-0.3444,-0.4634,-0.6271,-0.7401,-0.8446,-0.9673,-1.109,-1.219,-1.2753,-1.3667,-1.4654,-1.577,-1.5958,-1.6346,-1.6938,-1.7652,-1.812,-1.8237,-1.8467,-1.8546,-1.8485,-1.8078,-1.7776,-1.7573,-1.7061,-1.6458,-1.577,-1.536,-1.4722,-1.3995,-1.404,-1.3998,-1.388,-1.3612,-1.2957,0.0,0.0,0.0,0.0,0.0,-1.187,-1.2467,0.0,0.0,0.0,1.0523,1.0399,1.0173,0.9617,1.0546,1.1499,1.2071,1.5688,1.8497,1.9164,2.1284,2.227,2.1392,2.01,1.8517,1.662,1.5908,1.6467,1.8573,1.8104,1.8759,2.1009,1.9505,1.9675,2.1565,2.1079,2.1513,2.2749,2.2204,2.2145,2.2371,2.0811,2.0173,2.027,1.9497,1.9353,1.9487,1.839,1.7655,1.7081,1.5727,1.5186,1.5028,1.405,1.2635,1.1239,1.1581,0.0,0.0,0.0,0.0,0.0,0.0,0.0,0.0,0.0,0.0,0.0,0.0,0.0,0.0,0.0,0.0,0.0,0.0,0.0,0.0,0.0,0.0,0.0,0.0,-0.3694,-0.4988,-0.6869,-0.8152,-0.9198,-1.0163,-1.1515,-1.2541,-1.2934,-1.3707,-1.448,-1.51,-1.5244,-1.5417,-1.5743,0.0,0.0,0.0,0.0,-1.7686,-1.7967,-1.7123,-1.6548,-1.6287,-1.6138,-1.564,-1.4793,-1.4886,-1.4589,-1.4037,-1.4091,-1.4037,-1.3853,-1.3053,-1.2104,-1.1192,-1.1341,-1.1077,-1.0637,-1.0793,-1.1559,-1.2602,0.0,0.0,0.0,1.0656,1.0336,1.0034,0.9854,1.0632,1.1335,1.1672,1.4898,1.7448,1.8111,1.9636,2.0592,2.0602,1.8815,1.717,1.5951,1.6594,1.7484,1.8484,1.9026,1.9726,2.067,1.9962,2.0138,2.1273,2.0795,2.0969,2.1656,2.1333,2.108,2.0828,2.0689,2.0318,1.9805,2.0246,2.0037,1.9324,1.9302,1.891,1.8318,1.6936,1.6112,1.5599,1.5195,1.4444,1.3556,1.3162,1.2262,1.114,1.0174,0.9009,0.0,0.0,0.0,0.0,0.0,0.0,0.0,0.0,0.0,0.0,0.0,0.0,0.0,0.0,0.0,0.0,0.0,0.0,0.0,-0.2975,-0.3884,-0.5074,-0.6993,-0.7681,-0.867,-1.0329,-1.1719,-1.258,-1.2686,-1.3331,-1.3987,-1.4569,-1.5044,-1.5501,-1.6014,-1.6917,-1.7126,-1.6558,-1.6924,-1.6957,-1.6581,-1.5821,-1.5681,-1.6125,0.0,0.0,-1.4791,-1.4166,-1.3988,-1.4159,-1.419,-1.4068,-1.3853,-1.3152,-1.1884,-1.0359,-0.9866,-1.0129,-1.084,-1.1507,-1.241,-1.3401,0.0,0.0,0.0,0.0,1.0386,1.011,0.997,1.047,1.1058,1.1652,1.4026,1.5981,1.6729,1.7545,1.7957,1.7759,1.6548,1.5855,1.6049,1.7303,1.8827,2.0533,2.0451,2.0852,2.1889,2.0765,2.0703,2.1675,2.12,2.1464,2.2432,2.1753,2.1524,2.1704,2.1045,2.0358,1.976,2.0181,2.0065,1.962,1.9611,1.9526,1.9353,1.8289,1.7416,1.6685,1.655,1.557,1.4275,1.4111,1.3086,1.1757,1.0928,0.9913,0.8769,0.0,0.0,0.0,0.0,0.0,0.0,0.0,0.0,0.0,0.0,0.0,0.0,0.0,0.0,0.1491,0.1098,0.0,-0.1113,-0.2435,-0.329,-0.4392,-0.6027,-0.6798,-0.7845,-0.9656,-1.0826,-1.1616,-1.1963,-1.2412,-1.2871,-1.3406,-1.3677,-1.3902,-1.4136,-1.4862,-1.5258,-1.5301,-1.5554,-1.5891,-1.6297,-1.5472,-1.5118,-1.5245,-1.4028,-1.3569,-1.3786,-1.348,-1.3617,-1.4104,-1.4177,-1.41,-1.3849,-1.2604,-1.1108,-0.9572,-0.9202,-0.9429,-1.0095,-1.0974,-1.1919,-1.2882,0.0,0.0,0.0,0.0,0.0,1.0299,1.0148,1.037,1.08,1.1567,1.3131,1.4459,1.5127,1.5459,1.5393,1.4819,1.455,1.5049,1.6467,1.8055,1.9993,2.2506,2.1908,2.1984,2.3152,2.1663,2.1377,2.2372,2.1969,2.2383,2.3509,2.2678,2.2528,2.2879,2.1705,2.0769,2.0109,2.0095,2.0093,2.0036,1.9681,1.9713,1.989,1.9175,1.8272,1.7358,1.7025,1.5701,1.4099,1.4351,1.3234,1.1724,1.1429,1.0788,0.9771,0.8063,0.7623,0.0,0.0,0.0,0.0,0.0,0.0,0.0,0.0,0.4906,0.427,0.3968,0.3112,0.2186,0.1514,0.0485,-0.0633,-0.1694,-0.2591,-0.3584,-0.4984,-0.5663,-0.6696,-0.8359,-0.947,-1.0375,-1.1055,-1.1211,-1.1524,-1.2022,-1.2029,-1.203,-1.2004,-1.2519,-1.3141,-1.3821,-1.3965,-1.4562,-1.5692,-1.4799,-1.4217,-1.3961,-1.3267,-1.2817,-1.263,-1.2935,-1.336,-1.3862,-1.4058,-1.3955,-1.3517,-1.2137,-1.0637,-0.9191,-0.9146,-0.9121,-0.9234,-1.0224,-1.1092,-1.1892,0.0,0.0,0.0,0.0,0.0,1.0523,1.0608,1.0664,1.08,1.1135,1.2302,1.3164,1.3382,1.3754,1.3847,1.3545,1.421,1.5401,1.7087,1.8694,2.0439,2.2347,2.2616,2.2858,2.3187,2.2217,2.2105,2.3105,2.3039,2.3292,2.3743,2.3736,2.3417,2.271,2.2731,2.2008,2.0815,2.0768,2.0719,2.056,1.9764,1.9429,1.9397,1.8713,1.7745,1.6499,1.5054,1.3949,1.3262,1.335,1.2753,1.2035,1.2525,1.194,1.0775,0.9393,0.8603,0.8045,0.7323,0.7101,0.7049,0.7054,0.6612,0.6505,0.0,0.6402,0.4923,0.5026,0.3934,0.2672,0.1576,0.0391,-0.0643,-0.1294,-0.2277,-0.3409,-0.4801,-0.4484,-0.4628,-0.6092,-0.7936,-0.9344,-1.0019,-0.9988,-1.0165,-1.0775,-1.0945,-1.1096,-1.1214,-1.1827,-1.2177,-1.2154,-1.2531,-1.2899,-1.328,-1.243,-1.2153,-1.2429,-1.1884,-1.1762,-1.201,-1.2704,-1.3143,-1.3408,-1.3768,-1.331,-1.2309,-1.2484,-1.1477,-0.9904,-0.9947,-0.9467,-0.8901,-1.0143,-1.0739,-1.1066,0.0,0.0,0.0,0.0,0.0,1.0449,1.0621,1.0507,1.0598,1.1081,1.1629,1.2073,1.2374,1.2241,1.1918,1.1432,1.3368,1.5205,1.6634,1.9407,2.1714,2.3411,2.3508,2.3546,2.3649,2.2728,2.2432,2.2854,2.2846,2.3344,2.4194,2.3316,2.3024,2.3018,2.2274,2.1493,2.0774,2.0961,2.0911,2.0574,2.0131,1.9705,1.9149,1.7767,1.631,1.5031,1.502,1.3936,0.0,1.2532,1.2147,1.1624,1.146,1.0983,1.0339,0.952,0.8788,0.8123,0.7613,0.7609,0.7718,0.7733,0.7807,0.8027,0.8501,0.7524,0.6439,0.631,0.496,0.3562,0.2912,0.1556,0.0413,0.012,-0.0777,-0.1816,-0.2916,-0.2477,-0.2675,-0.4434,-0.5399,-0.6523,-0.8008,-0.8315,-0.8518,-0.8758,-0.9281,-0.9579,-0.9621,-1.0214,-1.0677,-1.1012,-1.1011,-1.134,-1.2088,-1.1489,-1.1361,-1.1732,-1.1466,-1.1542,-1.1896,-1.2286,-1.272,-1.3126,-1.3261,-1.2886,-1.2192,-1.1809,-1.1025,-1.0008,-0.957,-0.9173,-0.8891,-0.9547,-1.0146,-1.0702,0.0,0.0,0.0,0.0,0.0,0.0,0.0,0.0,1.0543,1.1082,1.1123,1.1176,1.1486,1.1118,1.0653,1.024,1.2428,1.4526,1.6053,1.9255,2.1905,2.3707,2.3935,2.3998,2.3955,2.3525,2.3133,2.2867,2.3271,2.3871,2.4515,2.3352,2.3152,2.3538,2.2162,2.1376,2.1096,2.1163,2.0951,2.0635,2.0328,1.9599,1.85,1.6775,1.4935,1.33,1.4031,1.3032,1.1344,1.1364,1.1118,1.0751,1.0438,1.0188,0.9953,0.9611,0.8963,0.8359,0.8093,0.8156,0.8373,0.8559,0.8892,0.9198,0.9276,0.8621,0.7833,0.7343,0.6014,0.4688,0.3866,0.2529,0.151,0.1355,0.0516,-0.0389,-0.1304,-0.083,-0.1034,-0.2809,-0.3088,-0.3739,-0.5366,-0.6382,-0.7013,-0.7248,-0.7825,-0.8199,-0.8296,-0.8865,-0.9376,-0.9783,-0.9646,-0.9946,-1.0706,-1.0493,-1.0535,-1.0834,-1.1024,-1.1242,-1.1498,-1.1891,-1.2376,-1.2896,-1.295,-1.2773,-1.2386,-1.1585,-1.0902,-1.0288,-0.9494,-0.9019,-0.8811,-0.9001,-0.9509,-1.013,0.0,0.0,0.0,0.0,0.0,0.0,0.0,0.0,0.0,1.1066,1.077,1.0525,1.0538,1.0464,1.0496,1.0656,1.1492,1.3071,1.5648,1.7869,2.0121,2.2372,2.3544,2.407,2.3943,2.4566,2.4469,2.3548,2.5063,2.5358,2.448,2.4539,2.445,2.4196,2.2963,2.2439,2.2415,2.1568,2.1008,2.063,2.0003,1.8829,1.7313,1.603,1.3841,1.1412,1.0941,1.0291,0.9634,0.9523,0.9449,0.9478,1.0272,1.0312,1.0059,0.9999,0.9496,0.8939,0.8827,0.8716,0.8889,0.9647,0.9474,0.9362,1.0398,0.9861,0.8829,0.7781,0.7116,0.6056,0.3838,0.2724,0.2149,0.2085,0.1258,0.0327,-0.0661,0.005,0.0195,-0.1126,-0.1344,-0.1565,-0.2082,-0.4094,-0.5728,-0.6645,-0.6916,-0.717,-0.7504,-0.8273,-0.8586,-0.8285,-0.8579,-0.873,-0.8704,-0.8921,-0.9156,-0.9378,-1.0211,-1.0572,-1.0485,-1.152,-1.2213,-1.2638,-1.2949,-1.3019,-1.2827,-1.2372,-1.1724,-1.0994,-1.0175,-0.9303,-0.8533,-0.8669,-0.8852,-0.9104,0.0,0.0,0.0,0.0,0.0,0.0,0.0,0.0,0.0,0.0,0.0,0.0,0.0,0.0,0.0,0.0,1.2077,1.3284,1.4323,1.7518,1.958,2.0145,2.2226,2.3176,2.2909,2.3207,2.3411,2.3502,2.3845,2.4118,2.4186,2.3935,2.3745,2.3697,2.2615,2.2335,2.2528,2.1452,2.0831,2.0465,1.9406,1.8187,1.6892,1.5206,1.344,1.1603,0.0,0.931,0.8875,0.9025,0.9095,0.9159,0.9152,0.9089,0.8921,0.874,0.8953,0.9245,0.9053,0.9359,0.986,1.0254,1.0591,1.0889,1.1077,1.0554,0.9775,0.9069,0.7617,0.6123,0.4943,0.3751,0.2801,0.2464,0.2644,0.2415,0.1168,0.1403,0.1221,-0.0,-0.041,-0.0846,-0.1463,-0.3144,-0.4259,-0.4453,-0.5474,-0.6056,-0.596,-0.678,-0.7251,-0.7321,-0.7322,-0.7447,-0.7737,-0.8268,-0.8623,-0.8783,-0.9996,-1.0727,-1.0963,-1.1542,-1.1967,-1.2271,-1.2256,-1.2038,-1.1648,-1.095,-1.032,-0.9707,-0.9037,-0.8639,-0.8393,-0.8129,-0.8135,-0.8347,0.0,0.0,0.0,0.0,0.0,0.0,0.0,0.0,0.0,0.0,0.0,0.0,0.0,0.0,0.0,0.0,0.0,1.2741,1.3256,1.6077,1.7799,1.7944,1.9932,2.0795,2.0274,2.0629,2.089,2.0931,2.1502,2.1939,2.238,2.2214,2.2335,2.2603,2.1494,2.1309,2.167,2.0477,1.9737,1.9249,1.7921,1.6681,1.539,1.3676,1.2287,0.0,0.9645,0.8941,0.8594,0.8444,0.8363,0.8393,0.8348,0.8457,0.8567,0.8458,0.8944,0.9637,1.0006,1.0303,1.0689,1.1235,1.1625,1.1796,1.1536,1.104,1.0431,0.9573,0.8125,0.6683,0.5681,0.464,0.3771,0.3197,0.3507,0.338,0.2192,0.2326,0.2085,0.0952,0.0601,0.0288,-0.0187,-0.1578,-0.262,-0.296,-0.3949,-0.4646,-0.4874,-0.5707,-0.627,-0.6484,-0.6288,-0.6435,-0.6892,-0.7428,-0.792,-0.8403,-0.9475,-1.0207,-1.0717,-1.0954,-1.1327,-1.179,-1.1292,-1.0943,-1.0655,-0.9638,-0.9079,-0.8785,-0.8208,-0.8027,-0.8049,-0.7767,-0.7711,-0.7841,0.0,0.0,0.0,0.0,0.0,0.0,0.0,0.0,0.0,0.0,0.0,0.0,0.0,0.0,0.0,0.0,0.0,0.0,1.2424,1.3727,1.4869,1.5745,1.6864,1.7171,1.6474,1.7316,1.7385,1.6457,1.8265,1.9148,1.9246,1.9619,2.0281,2.0983,1.9666,1.9389,1.9949,1.8651,1.7724,1.7014,1.5705,1.4353,1.2992,1.1631,1.0564,0.9777,0.9277,0.9019,0.8732,0.7776,0.7353,0.7318,0.7984,0.8561,0.9035,0.9191,0.9581,1.0228,1.1544,1.1543,1.1441,1.2541,1.251,1.2173,1.1884,1.1414,1.0691,0.9341,0.8623,0.7721,0.5964,0.5411,0.4988,0.4129,0.3846,0.3381,0.2435,0.277,0.2778,0.1771,0.1739,0.1766,0.1714,0.0468,-0.089,-0.2132,0.0,-0.3158,-0.4155,-0.5042,-0.554,-0.5615,-0.5539,-0.5688,-0.6163,-0.6468,-0.7145,-0.8171,-0.8592,-0.9128,-0.9789,-0.9888,-1.0392,-1.1187,-1.0211,-0.9849,-0.9838,-0.8539,-0.8108,-0.8213,-0.7763,-0.7506,-0.742,-0.747,-0.7429,-0.739,0.0,0.0,0.0,0.0,0.0,0.0,0.0,0.0,0.0,0.0,0.0,0.0,0.0,0.0,0.0,0.0,0.0,0.0,1.1031,1.2801,1.3571,1.2962,1.4837,1.5794,1.5533,1.6022,1.6249,1.63,1.6686,1.6819,1.674,1.7242,1.7501,1.7508,1.7182,1.7125,1.7248,1.6213,1.5489,1.49,1.4088,1.3197,1.2287,1.1364,1.0799,1.033,0.9369,0.8911,0.8685,0.829,0.8397,0.8746,0.9227,0.9727,1.0183,1.0156,1.0884,1.1762,1.2098,1.2671,1.3116,1.303,1.289,1.2603,1.2078,1.1382,1.0637,0.9879,0.8765,0.7525,0.6233,0.5912,0.5465,0.4199,0.461,0.4774,0.3968,0.3607,0.3289,0.2702,0.2646,0.2521,0.2104,0.1748,0.1018,0.0,-0.1847,-0.2815,-0.267,-0.3847,-0.4581,-0.4565,-0.4879,-0.5262,-0.573,-0.6371,-0.7093,-0.7899,-0.837,-0.8931,-0.9603,-0.9893,-1.0224,-1.0442,-0.9843,-0.8928,-0.7868,-0.7947,-0.7392,-0.6524,-0.7069,-0.6851,-0.6208,-0.5924,-0.563,-0.5447,0.0,0.0,0.0,0.0,0.0,0.0,0.0,0.0,0.0,0.0,0.0,0.0,0.0,0.0,0.0,0.0,0.0,0.0,0.0,1.1919,1.2334,1.1597,1.3037,1.362,1.3106,1.3604,1.3874,1.3864,1.4146,1.4444,1.4739,1.5387,1.5696,1.5683,1.5684,1.5723,1.5658,1.4616,1.3984,0.0,0.0,1.1936,1.1411,1.0663,1.033,1.012,0.9486,0.938,0.9587,0.9992,1.0157,1.0259,1.0648,1.1143,1.164,1.1746,1.2472,1.3264,1.3387,1.3862,1.4195,1.3545,1.3233,1.2853,1.1847,1.104,1.0271,0.9433,0.8316,0.7245,0.6477,0.624,0.5847,0.4885,0.5346,0.5466,0.4481,0.4191,0.393,0.3522,0.3371,0.3086,0.2711,0.2535,0.1921,0.0728,-0.0744,-0.1699,-0.1907,-0.2775,-0.3299,-0.3423,-0.3911,-0.4355,-0.4739,-0.5588,-0.6139,-0.6331,-0.671,-0.7103,-0.7411,-0.7828,-0.8153,-0.8328,0.0,-0.6945,-0.6158,-0.6395,-0.603,-0.534,-0.5972,-0.5876,-0.5293,-0.4878,-0.4557,-0.4431,0.0,0.0,0.0,0.0,0.0,0.0,0.0,0.0,0.0,0.0,0.0,0.0,0.0,0.0,0.0,0.0,0.0,0.0,0.0,0.0,1.1401,1.1069,1.1568,1.1451,1.0541,1.1082,1.121,1.093,1.1552,1.2195,1.289,1.3585,1.407,1.4353,1.4286,1.4319,1.4299,1.3334,1.2777,1.2515,1.1441,1.0862,1.0598,0.0,0.9847,0.9821,0.9794,1.0204,1.0891,1.2024,1.2083,1.1768,1.2116,1.2605,1.3145,1.3532,1.4085,1.4697,1.4987,1.5164,1.4997,1.4205,1.3777,1.3104,1.1653,1.0692,0.9839,0.8676,0.7802,0.7173,0.6786,0.6606,0.6377,0.5941,0.6104,0.5893,0.484,0.4759,0.4703,0.4408,0.3997,0.3685,0.3464,0.3071,0.24,0.1175,0.0653,-0.0107,-0.1274,-0.1654,-0.1945,-0.2175,-0.2626,-0.3034,-0.3318,-0.4208,-0.4457,-0.4113,-0.4398,-0.4616,-0.4692,-0.5139,-0.5528,-0.5813,-0.5117,-0.4754,-0.4657,-0.4598,-0.4502,-0.4455,-0.475,-0.4603,-0.4128,-0.3746,-0.3313,-0.3065,0.0,0.0,0.0,0.0,0.0,0.0,0.0,0.0,0.0,0.0,1.3543,1.296,0.0,0.0,0.0,0.0,0.0,0.0,0.0,0.0,0.0,1.0881,1.1061,1.1193,1.1242,1.0847,1.0808,1.1081,1.0714,1.0533,1.0586,1.0886,1.0977,1.0882,1.1043,1.103,1.0976,1.1248,1.1065,1.0625,1.095,1.0808,1.0417,1.0834,0.0,0.0,1.0762,1.1042,1.164,1.2583,1.2834,1.2862,1.3159,1.3598,1.4043,1.4562,1.4973,1.5418,1.6208,1.6383,1.619,1.572,1.4832,1.3781,1.2658,1.1391,1.0165,0.9303,0.8613,0.8033,0.7507,0.7531,0.7527,0.7285,0.7224,0.7101,0.6815,0.6072,0.5645,0.5874,0.5073,0.4406,0.4084,0.3883,0.3619,0.3284,0.283,0.1968,0.0531,-0.0436,-0.0981,-0.1052,-0.1178,-0.1408,-0.1854,-0.1698,-0.1932,-0.251,-0.2735,-0.3434,-0.4558,-0.4842,-0.5022,-0.5087,-0.4953,0.0,-0.3536,-0.4046,-0.396,-0.3568,-0.406,-0.292,-0.0973,-0.0895,0.0296,0.1757,0.0,0.0,0.0,0.0,0.0,0.0,0.0,1.573,1.5949,1.6992,1.6537,1.5695,1.4516,1.3869,1.3389,0.0,0.0,0.0,0.0,0.0,0.0,1.143,1.1847,1.2052,1.202,1.2316,1.2387,1.2182,0.0,1.1399,1.1388,1.1239,1.1114,1.1,1.1051,1.1063,1.1065,1.1347,1.1333,1.1156,1.171,1.1777,1.1562,1.1736,0.0,0.0,1.1633,1.1897,1.2345,1.2755,1.2959,1.3252,1.4444,1.5062,1.5391,1.5755,1.6389,1.6975,1.7144,1.74,1.7367,1.6126,1.5115,1.4037,1.2691,1.155,1.0575,0.9691,0.9202,0.875,0.8218,0.8157,0.8151,0.8008,0.7859,0.768,0.7514,0.687,0.6472,0.6593,0.5927,0.5374,0.5046,0.5105,0.4882,0.4158,0.4271,0.3635,0.2005,0.1323,0.0822,0.0581,0.0969,0.1087,0.0867,0.1277,0.1076,0.0186,0.0325,-0.0268,-0.1381,-0.102,-0.1211,-0.1703,-0.1141,-0.0569,-0.011,-0.059,-0.0576,-0.0339,-0.0529,0.0091,0.13,0.2331,0.3288,0.4066,0.0,0.0,0.0,0.0,0.0,0.0,0.0,1.7486,1.7949,1.925,1.9121,1.8264,1.6515,1.5248,1.4347,0.0,0.0,0.0,0.0,0.0,0.0,0.0,1.2896,1.3213,1.2983,0.0,0.0,1.3324,1.2952,0.0,0.0,0.0,0.0,0.0,1.201,1.1939,1.189,1.1992,1.2099,0.0,0.0,1.2829,1.2663,0.0,0.0,0.0,0.0,1.2661,1.2904,1.2792,1.2766,1.3101,1.4937,1.5586,1.5783,1.6101,1.7055,1.802,1.7844,1.8322,1.8467,1.6758,1.5665,1.4583,1.2975,1.1972,1.1147,1.0168,0.982,0.9522,0.9042,0.8839,0.8769,0.8763,0.8558,0.832,0.8157,0.7837,0.7599,0.7389,0.7084,0.6789,0.645,0.6568,0.6293,0.5396,0.5892,0.5391,0.3473,0.3319,0.3066,0.2554,0.3224,0.3582,0.367,0.4002,0.3867,0.3374,0.3584,0.3195,0.2294,0.33,0.3126,0.2143,0.3212,0.376,0.3859,0.3605,0.3478,0.3491,0.3651,0.3819,0.4189,0.5721,0.6332,0.6571,0.0,0.0,0.0,0.0,0.0,0.0,0.0,1.787,1.8871,1.9953,1.9549,1.8962,1.847,1.7284,1.5839,0.0,0.0,0.0,0.0,0.0,0.0,0.0,0.0,0.0,0.0,0.0,0.0,1.3642,1.3714,0.0,0.0,0.0,0.0,0.0,0.0,1.2327,1.1837,1.2338,0.0,0.0,0.0,0.0,0.0,0.0,0.0,0.0,0.0,1.3299,1.3263,1.2792,1.2416,1.2382,1.3454,1.3667,1.3662,1.4622,1.587,1.7229,1.8536,1.9115,1.9263,1.8845,1.7537,1.5944,1.4512,1.3281,1.2127,1.1014,1.0668,1.0463,1.0126,0.9796,0.9722,1.014,0.9698,0.9319,0.9501,0.9438,0.9286,0.9026,0.9073,0.8922,0.8469,0.837,0.8311,0.8298,0.8534,0.7558,0.5012,0.5517,0.5567,0.4996,0.5226,0.5538,0.5904,0.5696,0.6006,0.6853,0.6518,0.5766,0.4726,0.6129,0.6113,0.4966,0.6122,0.6888,0.0,0.7131,0.7019,0.7069,0.7196,0.802,0.9183,0.9089,0.9954,1.1212,0.0,0.0,0.0,0.0,0.0,0.0,1.83,1.8324,1.8871,2.0744,2.0231,1.9643,1.9536,1.8397,1.678,1.4659,0.0,0.0,0.0,0.0,0.0,0.0,0.0,0.0,0.0,0.0,1.4375,1.4535,1.3974,0.0,0.0,0.0,0.0,0.0,0.0,1.2628,1.241,1.2541,0.0,0.0,0.0,0.0,0.0,0.0,0.0,0.0,0.0,0.0,1.3912,1.3218,1.2792,1.2657,1.2987,1.3177,1.3531,1.4903,1.6542,1.8092,1.8938,1.9686,2.0026,1.9183,1.7891,1.6561,1.5459,1.415,1.3057,1.2509,1.2055,1.171,1.1449,1.0955,1.0664,1.0821,1.02,0.9821,1.0089,1.0015,0.9872,0.9632,0.9849,0.9791,0.928,0.9176,0.9325,0.9835,1.0128,0.9987,0.9197,0.8155,0.7494,0.7217,0.7686,0.8178,0.8666,0.8926,0.9302,0.9827,0.9746,0.9096,0.801,0.9313,0.9606,0.912,1.0285,1.0981,0.0,1.0975,1.1195,1.1729,1.067,1.1221,1.2572,1.2444,1.2666,1.3152,0.0,0.0,0.0,0.0,0.0,1.7039,1.8656,1.8593,1.9055,2.0835,2.0448,2.0073,2.0259,1.8823,1.725,1.5794,1.5773,0.0,0.0,0.0,0.0,0.0,0.0,0.0,0.0,0.0,1.4886,1.4858,1.4353,1.3885,0.0,0.0,1.3934,1.3296,0.0,0.0,0.0,0.0,0.0,0.0,0.0,0.0,0.0,0.0,0.0,0.0,0.0,0.0,0.0,0.0,0.0,1.3081,1.2982,1.3248,1.3826,1.4844,1.6593,1.8324,1.8715,1.9703,2.0358,1.9128,1.7969,1.6903,1.6037,1.4877,1.3921,1.367,1.3315,1.2928,1.2543,1.2115,1.174,1.1557,1.1016,1.0745,1.1024,1.0965,1.0867,1.0845,1.1017,1.0948,1.0559,1.0568,1.072,1.1166,1.1639,1.2015,1.2308,1.0923,0.9906,0.957,1.0109,1.0647,1.1137,1.1616,1.2061,1.2493,1.2512,1.2006,1.1109,1.2386,1.2863,1.2752,1.3839,1.466,0.0,1.4484,1.4778,1.5572,1.4468,1.4717,1.5751,1.5996,1.5927,1.5837,0.0,0.0,0.0,0.0,0.0,0.0,1.7335,1.8655,1.9699,2.0085,2.0061,2.0167,2.0618,1.8498,1.7182,1.7623,1.6756,0.0,0.0,0.0,0.0,0.0,0.0,0.0,0.0,0.0,1.5111,1.4295,1.5028,1.5012,1.4295,1.5043,1.5046,1.4444,0.0,0.0,0.0,0.0,0.0,0.0,0.0,0.0,1.6169,0.0,0.0,0.0,0.0,0.0,0.0,0.0,0.0,0.0,0.0,1.3801,1.4299,1.3915,1.5543,1.7436,1.7571,1.8865,1.9936,1.8942,1.7998,1.7088,1.627,1.5484,1.4738,1.4301,1.4224,1.403,1.3234,1.3191,1.3113,1.2567,1.2407,1.2446,1.2646,1.2542,1.2594,1.2951,1.2832,1.2764,1.2764,1.2764,1.2716,1.257,1.312,0.0,1.349,1.3716,1.327,1.2015,1.2271,1.2647,1.305,1.3191,1.3814,1.4858,1.4598,1.4235,1.3818,1.5285,1.5787,1.5599,1.6323,1.7572,0.0,1.7544,1.7407,1.8121,1.8714,1.8865,1.8878,1.9796,2.0161,2.0063,0.0,0.0,0.0,0.0,0.0,0.0,0.0,1.7308,1.7576,1.8422,1.8135,1.8303,1.9425,1.8065,1.7379,1.8161,1.7148,0.0,0.0,0.0,0.0,0.0,0.0,0.0,0.0,1.5537,1.5505,1.5811,1.5962,1.5661,1.4993,1.5785,1.579,1.5102,1.4437,1.4123,0.0,0.0,0.0,0.0,0.0,1.5485,1.613,0.0,0.0,0.0,0.0,0.0,0.0,0.0,0.0,0.0,0.0,0.0,0.0,1.4864,1.599,1.712,1.6522,1.7293,1.8058,1.7029,1.6542,1.614,1.5667,1.5323,1.5121,1.5151,1.4864,1.4571,1.4526,1.4082,1.3657,1.3617,1.383,1.3912,1.3557,1.4408,1.4821,1.4309,1.4361,1.445,1.445,0.0,1.4868,1.4913,1.5149,1.544,1.5799,1.5748,1.5194,1.4141,1.4103,1.4528,1.5369,1.5676,1.6034,1.6456,1.6645,1.6801,1.6885,1.7397,1.8366,1.9619,1.9132,1.9656,2.0681,1.931,1.9301,2.0102,1.9022,1.9559,2.0887,2.0197,2.0208,2.0595,0.0,0.0,0.0,0.0,0.0,0.0,0.0,1.6784,1.6899,1.7547,1.7319,1.7624,1.9052,1.7776,1.725,1.8299,1.7233,0.0,0.0,0.0,0.0,0.0,0.0,0.0,1.5902,1.5511,1.5671,1.6456,1.6386,1.6251,1.6111,1.66,1.6316,1.5355,1.4968,1.464,0.0,0.0,0.0,0.0,1.5104,1.5696,1.5914,0.0,0.0,0.0,0.0,0.0,0.0,0.0,0.0,0.0,0.0,0.0,0.0,0.0,1.604,1.6659,1.5837,1.6264,1.6737,1.5958,1.5787,1.5825,1.564,1.5609,1.5695,1.5894,1.5636,1.5418,1.5506,1.5018,1.4558,1.4477,1.4583,1.462,1.4462,1.533,1.5919,1.5641,1.5842,1.593,0.0,1.5979,1.6163,1.6218,1.6494,1.6773,1.7094,1.7274,1.7238,1.6935,1.6567,1.6679,1.7353,1.7949,1.8044,1.7719,1.8257,1.846,1.847,1.8555,1.967,2.1481,2.0218,2.0589,0.0,2.0157,1.9995,2.0793,2.0072,2.0714,2.2003,2.1831,2.2054,2.2374,0.0,0.0,0.0,0.0,0.0,0.0,0.0,1.6871,1.7319,1.7348,1.7332,1.7831,1.9139,1.7564,1.6856,1.7946,0.0,0.0,0.0,0.0,0.0,0.0,0.0,0.0,1.5298,1.533,1.5754,1.653,1.653,1.6915,1.7584,1.7521,1.6775,1.5495,1.5448,1.5108,1.4515,1.4405,1.4135,1.3892,1.5137,1.5622,0.0,0.0,0.0,0.0,0.0,0.0,0.0,0.0,0.0,0.0,0.0,0.0,0.0,0.0,0.0,0.0,0.0,1.5722,1.6004,1.5518,1.5706,1.5976,1.6047,1.6215,0.0,1.6528,1.6528,1.6474,1.6258,1.5981,1.5623,1.5329,1.5008,1.4934,1.5349,1.5679,1.6206,1.6954,1.733,1.733,1.6837,1.6876,1.6944,1.686,1.7341,1.7666,1.7693,1.8426,1.9209,1.9991,1.9346,1.9003,1.9003,1.9835,1.9748,1.8712,1.939,1.9519,1.9119,1.9178,2.0208,0.0,2.0188,2.0852,2.2892,2.062,1.998,2.0637,2.1719,2.217,2.2446,2.4225,2.5005,2.5084,0.0,0.0,0.0,0.0,0.0,0.0,0.0,0.0,0.0,0.0,1.6671,1.6796,1.7039,1.6718,1.6534,0.0,0.0,0.0,0.0,0.0,0.0,0.0,0.0,0.0,1.6042,1.6003,1.6632,1.7942,1.7942,1.8389,1.9307,1.8797,1.8195,1.75,1.6977,1.6394,1.571,1.4508,1.4611,1.5499,1.5192,1.5639,0.0,0.0,0.0,0.0,1.5869,1.6009,0.0,0.0,0.0,0.0,0.0,0.0,0.0,0.0,1.5879,1.571,1.5567,0.0,1.5283,1.4709,1.5133,1.5685,0.0,1.6289,1.685,1.6935,1.6799,1.6828,1.7384,1.6808,1.6373,1.6795,1.7301,1.7349,1.648,1.7213,1.8051,1.8599,1.9108,1.9212,1.8638,1.9057,1.9375,1.9375,1.9229,1.928,1.9564,1.9516,1.9953,2.1036,2.0872,2.048,1.9818,1.9842,1.9812,1.9753,2.0652,2.1516,2.2394,2.2243,2.3357,2.534,2.3762,2.4099,2.5582,2.3842,2.2895,2.2524,2.2589,2.2929,2.3395,2.3837,2.4775,2.5815,0.0,0.0,0.0,0.0,0.0,0.0,0.0,0.0,0.0,0.0,0.0,1.6448,1.6313,1.6367,0.0,0.0,0.0,0.0,0.0,0.0,0.0,0.0,1.6436,1.6355,1.6301,1.6234,1.6998,1.8635,1.8635,1.9291,2.0571,2.0231,1.9547,1.8616,1.764,1.6846,1.6164,1.5576,1.5468,1.5704,1.5847,0.0,0.0,0.0,0.0,0.0,1.6238,1.6384,0.0,1.6785,1.6785,1.6769,0.0,0.0,0.0,0.0,1.671,1.6475,1.6706,1.5954,1.5153,1.509,1.5526,1.6028,1.6329,1.6888,1.7384,1.7439,1.7368,1.7387,1.7864,1.7453,1.7255,1.7898,1.8001,1.7923,1.765,1.8625,1.9465,1.9721,2.0159,2.0237,0.0,2.0008,2.0208,2.0208,2.0019,2.0004,2.0174,2.036,2.0804,2.1545,2.1616,2.1507,2.1311,2.1378,2.1459,2.1528,2.2393,2.3095,2.3695,2.3698,2.4684,2.6346,2.4931,2.518,2.646,2.4927,2.414,2.3901,2.3894,2.4116,2.443,2.4692,2.5355,2.6068,0.0,0.0,0.0,0.0,0.0,0.0,0.0,0.0,0.0,0.0,0.0,0.0,0.0,0.0,0.0,0.0,0.0,0.0,0.0,0.0,0.0,1.6474,1.6436,1.6402,1.6483,1.6308,1.7096,1.884,1.8914,1.9747,2.1301,2.1399,2.0695,1.9269,1.7995,1.7058,1.6462,1.6767,1.639,1.5626,1.6593,0.0,0.0,0.0,0.0,0.0,0.0,0.0,0.0,1.7074,1.7074,1.7108,1.7313,0.0,0.0,0.0,0.0,0.0,1.7966,1.6802,1.5604,1.6165,1.652,1.6841,1.7344,1.7682,1.7927,1.7997,1.7997,1.8009,1.8168,1.8117,1.8217,1.8853,1.8286,1.8136,1.9183,2.0037,2.0521,2.0542,2.0797,0.0,2.0391,2.0436,2.0499,2.0447,2.0499,2.0499,2.0447,2.1255,2.1742,2.1872,2.2035,2.2355,2.2802,2.3088,2.3108,2.2953,2.3815,2.4171,2.4113,2.4421,2.5309,2.6516,0.0,0.0,2.6809,2.5399,2.4849,2.4962,2.5223,2.5346,2.5364,2.5862,2.6145,2.628,0.0,0.0,0.0,0.0,0.0,0.0,0.0,0.0,0.0,0.0,0.0,0.0,0.0,0.0,0.0,0.0,0.0,0.0,0.0,0.0,0.0,1.6409,1.6425,1.6663,1.721,1.6733,1.7176,1.8663,1.893,1.9666,2.0817,2.144,2.1059,1.9849,1.8901,1.8114,1.7417,1.678,1.6735,1.7096,1.6555,0.0,0.0,0.0,0.0,0.0,0.0,0.0,0.0,1.7281,1.7353,1.7377,1.7635,0.0,0.0,0.0,0.0,0.0,1.789,1.7638,1.7222,1.7601,1.7887,1.8119,1.8203,1.8258,1.8356,1.8551,1.8403,1.842,1.9077,1.907,1.9218,1.9945,1.9979,2.0474,2.2055,0.0,2.1092,2.1167,0.0,2.1603,2.1016,2.154,2.182,2.1584,2.1761,2.1774,2.1554,2.2535,2.2785,2.2161,2.2811,2.321,2.3281,2.2618,2.2109,2.1789,2.3207,2.4287,2.5023,2.5579,2.6713,2.818,0.0,2.7373,2.8232,2.7483,2.6695,2.5969,2.6048,2.5905,2.5739,2.5809,2.6379,2.7072,0.0,0.0,0.0,0.0,0.0,0.0,0.0,0.0,0.0,0.0,0.0,0.0,0.0,0.0,0.0,0.0,0.0,0.0,0.0,1.6218,1.6473,1.7183,1.7322,1.7373,1.7337,1.7114,1.7757,1.9307,1.9637,2.0274,2.1138,2.1101,2.0694,1.9925,1.8993,1.8202,1.7509,1.7077,1.7096,1.7361,0.0,0.0,0.0,0.0,0.0,0.0,0.0,0.0,0.0,0.0,1.7455,1.7595,1.7844,0.0,0.0,0.0,0.0,0.0,1.7825,1.7976,1.7966,1.8556,1.8717,1.8717,1.8717,1.8717,1.8753,1.8893,1.9165,1.9505,1.9882,1.9916,2.0002,2.0299,2.1356,2.2205,2.24,2.2345,2.2216,0.0,0.0,2.2224,2.1881,2.2153,2.2275,2.2039,2.2524,2.2789,2.266,2.3127,2.3306,2.3072,2.3038,2.3048,2.3086,2.2859,2.2894,2.3201,2.4643,2.5317,2.522,2.6118,2.705,2.7918,0.0,2.7745,2.8767,2.8174,2.7769,2.7486,2.7303,2.7064,2.6805,2.6653,2.6894,2.725,0.0,0.0,0.0,0.0,0.0,0.0,0.0,0.0,0.0,0.0,0.0,0.0,0.0,0.0,0.0,0.0,0.0,0.0,0.0,1.6076,1.6454,1.7551,1.7963,1.8124,1.8037,1.7898,1.8535,1.9997,2.0254,2.076,2.1477,2.0816,2.0251,1.977,1.8856,1.8062,1.7377,1.7289,1.7257,1.7232,0.0,0.0,0.0,0.0,0.0,0.0,0.0,0.0,0.0,0.0,0.0,0.0,0.0,0.0,0.0,1.7737,1.7146,1.6615,1.7815,1.7877,1.7812,1.8633,1.8819,1.8931,1.9312,1.9255,1.9212,1.9504,2.0058,2.0446,2.0292,2.042,2.0645,2.0979,2.237,2.322,2.2647,2.3004,2.3259,2.2992,2.2926,2.287,2.2746,2.2772,2.2738,2.2651,2.3271,2.3613,2.3488,2.3745,2.379,2.3648,2.3267,2.3016,2.2868,2.3168,2.3579,2.4113,2.5547,2.5791,2.5032,2.6179,2.6878,2.7157,2.7033,2.7608,2.8584,2.834,2.8308,2.8456,2.8281,2.8037,2.7771,2.7569,2.7465,2.7483,0.0,0.0,0.0,0.0,0.0,0.0,0.0,0.0,0.0,0.0,0.0,1.6344,0.0,0.0,0.0,0.0,0.0,0.0,0.0,1.656,1.6706,1.6686,1.7599,1.8773,2.0134,1.9431,1.9463,2.0267,2.0297,2.073,2.1477,2.0816,2.0151,1.9481,1.8683,1.7927,1.7306,1.7183,1.7108,1.7108,1.7108,0.0,0.0,0.0,0.0,0.0,0.0,0.0,0.0,0.0,0.0,0.0,0.0,0.0,1.8841,1.8873,1.7918,1.7041,1.7955,1.7201,1.6365,1.7235,1.7845,1.8652,2.0226,2.0057,1.9817,2.0765,2.1004,2.0797,1.9989,2.0308,2.1161,2.2662,2.2922,2.3254,2.4116,0.0,2.3753,2.3714,2.361,2.3522,2.3455,2.3544,2.3713,2.3946,2.4249,2.4233,2.3808,2.4721,2.4611,2.3175,2.3814,2.3831,2.3095,2.3289,2.3147,2.2668,2.4065,2.4615,2.4399,2.5548,2.6209,2.6487,2.6964,2.7314,2.7586,2.8268,2.8386,2.8156,2.8456,2.836,2.8075,2.8047,2.7992,2.7971,0.0,0.0,0.0,0.0,0.0,0.0,0.0,0.0,0.0,0.0,0.0,1.6301,1.6222,1.6234,1.6328,0.0,0.0,0.0,1.5847,1.5975,1.625,1.6757,1.7843,1.8894,1.9943,1.9696,1.989,2.056,2.0591,2.0924,2.146,2.0111,1.9402,1.9262,1.7989,1.7291,1.7057,1.7048,1.7048,1.7,1.6702,1.6617,0.0,0.0,0.0,0.0,0.0,0.0,0.0,0.0,1.7819,1.8553,1.8269,1.8292,1.834,1.789,1.7071,1.6534,1.7449,1.732,1.6988,1.7283,1.7992,1.8922,2.0009,2.0058,2.0114,2.1091,2.1651,2.1688,2.0831,2.1278,2.1771,2.1792,2.2626,2.3388,2.3724,2.4004,2.4192,2.4229,2.4079,2.3939,2.3816,2.3896,2.3922,2.3861,2.4413,2.4611,2.4292,2.4668,2.4597,2.3932,2.3689,2.3499,2.3335,2.3513,2.3491,2.3312,2.453,2.4729,2.4093,2.5368,2.5987,2.6098,2.6302,2.6669,2.7202,2.7929,2.815,2.8067,2.8451,2.8507,2.8404,2.8183,2.8075,2.8075,0.0,0.0,0.0,0.0,0.0,0.0,0.0,0.0,1.6501,0.0,0.0,0.0,0.0,1.615,1.6289,0.0,0.0,0.0,1.5708,1.581,1.6143,1.6783,1.7843,1.8539,1.8828,1.9495,2.0052,2.0543,2.0511,2.0687,2.0951,1.9473,1.893,1.9066,1.7754,1.7215,1.7199,1.7068,1.7014,1.6965,1.6677,1.6535,0.0,0.0,0.0,0.0,0.0,0.0,0.0,0.0,1.747,1.8412,1.8018,1.8232,1.8471,1.7702,1.7191,1.6913,1.7016,1.709,1.7152,1.7125,1.7644,1.8591,2.0185,2.0527,2.0762,2.166,2.2036,2.2029,2.1445,2.1541,2.1626,0.0,2.2327,2.3278,2.3479,2.4091,2.4519,2.4493,2.4392,2.4284,2.4114,2.4152,2.4075,2.3777,2.4541,2.4797,2.4336,2.4574,2.4563,2.4213,2.3632,2.3376,2.35,2.3714,2.3816,2.3777,2.4726,2.4783,2.4136,2.5136,2.5578,2.5596,2.586,2.6326,2.6991,2.7695,2.8112,2.8338,2.862,2.8718,2.8694,2.8482,2.8386,2.836,0.0,0.0,0.0,0.0,0.0,0.0,1.6501,1.6554,1.6596,1.6501,1.6501,0.0,0.0,0.0,0.0,0.0,1.574,0.0,1.5996,1.6246,1.6463,1.6581,1.7476,1.7684,1.7009,1.8882,1.9968,2.021,1.9968,1.9892,1.9876,1.913,1.8826,1.8866,1.8139,1.7836,1.7844,1.7235,1.7014,1.7014,1.7057,1.7092,1.6954,0.0,0.0,0.0,0.0,0.0,0.0,0.0,1.6348,1.7837,1.802,1.8827,1.9545,1.8713,1.8644,1.8429,1.677,1.6349,1.643,1.6478,1.6565,1.7531,2.0909,2.1629,2.1828,2.2632,2.2176,2.161,2.1589,2.0906,2.0603,2.1463,2.2158,2.2873,2.3595,2.4334,2.4733,2.4526,2.4564,2.4513,2.4321,2.4358,2.4266,2.3921,2.4689,2.4754,2.3743,2.4472,2.4552,2.3813,2.3795,2.3714,2.3522,2.3896,2.3959,2.3705,2.4385,2.4617,2.4522,2.4785,2.4902,2.494,2.574,2.6355,2.6841,2.7656,2.8384,2.8998,2.8975,2.8975,2.8975,2.8975,2.8952,2.8887,0.0,0.0,0.0,0.0,0.0,0.0,1.6501,1.6554,1.6596,1.6501,1.6501,0.0,0.0,0.0,0.0,0.0,0.0,1.5254,1.5342,1.5926,1.6111,1.5775,1.6799,1.7242,1.7007,1.7939,1.8906,1.9908,1.9384,1.913,1.9115,1.8473,1.8183,1.8195,1.796,1.762,1.7183,1.7068,1.7014,1.6965,1.666,1.6581,1.644,0.0,0.0,0.0,0.0,0.0,0.0,0.0,0.0,0.0,1.6904,1.8068,1.9399,1.7567,1.7493,1.7792,1.6789,1.6976,1.7171,1.5958,1.7987,2.0037,1.9218,1.9961,2.1221,2.2659,2.2796,2.2481,2.185,2.1536,2.1429,2.1636,2.2307,2.3083,2.3867,2.463,2.5053,2.4993,2.4891,2.4733,2.4526,2.4022,2.3847,2.4229,2.3971,2.3603,2.3158,2.3908,2.3941,2.3039,2.3526,2.3858,2.3981,2.4058,2.4174,2.4335,2.4617,2.4708,2.4572,2.4955,2.5113,2.5113,2.5361,2.546,2.5509,2.6079,2.6763,2.75,2.7959,2.8154,2.8154,2.8154,2.8154,2.804,0.0,0.0,0.0,0.0,0.0,0.0,1.6501,1.6528,1.6554,1.6528,1.6528,1.638,0.0,0.0,0.0,1.5718,1.5339,1.5154,1.5206,1.582,1.6045,1.5686,1.6562,1.7152,1.7364,1.7141,1.7538,1.8609,1.848,1.8473,1.8486,1.8371,1.8335,1.8379,1.861,1.8355,1.7711,1.7502,1.7255,1.6965,1.6734,1.6633,1.6532,0.0,0.0,0.0,0.0,0.0,0.0,0.0,0.0,0.0,1.6228,1.7319,1.8531,1.6851,1.7034,1.7532,1.6397,1.6718,1.722,1.6503,1.829,1.9987,1.9085,2.0254,2.1907,2.3237,2.3294,2.2839,2.1962,2.1513,2.1372,2.1682,2.2445,2.3254,2.4025,2.4837,2.5208,2.4764,2.4892,2.4809,2.4294,2.3761,2.3468,2.3529,2.3033,2.2525,2.2038,2.3124,2.3474,2.2923,2.3656,2.4135,2.4247,2.4248,2.4372,2.4604,2.4746,2.4814,2.4845,2.5094,2.5191,2.521,2.5456,2.55,2.5418,2.5872,2.6357,2.684,2.7193,2.7328,2.7328,2.7328,2.753,2.7677,0.0,0.0,1.6039,1.6194,0.0,1.6355,1.6474,1.6501,1.6528,1.6596,1.6596,1.6281,0.0,0.0,0.0,1.4872,1.5223,1.5477,1.5433,1.5924,1.6176,1.6151,1.6697,1.7251,1.7768,1.647,1.6102,1.6716,1.7396,1.7754,1.7808,1.8507,1.8876,1.901,1.9585,1.9491,1.8876,1.821,1.7577,1.7023,1.7083,1.7108,1.697,1.5748,0.0,0.0,0.0,0.0,0.0,0.0,0.0,0.0,1.5852,1.6611,1.7261,1.6453,1.6963,1.7418,1.5741,1.5933,1.6765,1.7476,1.7667,1.8153,1.9951,2.1657,2.3086,2.3886,2.3535,2.2831,2.1962,2.1147,2.0882,2.1664,2.2452,2.3248,2.3991,2.4822,2.5005,2.4022,2.4543,2.4628,2.3702,2.3409,2.2994,2.2257,2.2029,2.1566,2.0771,2.2343,2.3198,2.3108,2.4029,2.4461,2.4321,2.4444,2.454,2.4629,2.4756,2.4947,2.5191,2.5191,2.5191,2.5218,2.5772,2.6006,2.6052,2.6448,2.6618,2.6599,2.6532,2.6505,2.6502,2.6502,2.6943,2.7457,0.0,0.0,1.6039,1.6194,0.0,0.0,1.6474,1.6501,1.6528,1.6596,1.6517,1.6347,1.6126,1.5595,0.0,1.5386,1.5005,1.499,1.5608,1.6009,1.6258,1.6394,1.6733,1.6917,1.6871,1.6114,1.5847,1.6088,1.6256,1.6321,1.6305,1.7588,1.8237,1.8335,1.8993,1.8941,1.834,1.7643,1.7295,1.7165,1.7174,1.7224,1.7093,1.557,1.515,0.0,0.0,0.0,0.0,0.0,0.0,0.0,1.5273,1.6254,1.7292,1.5909,1.6151,1.6631,1.5527,1.5866,1.6391,1.5835,1.6251,1.7363,1.9643,2.0539,2.1167,2.2076,2.2678,2.2779,2.1948,2.1659,2.1588,2.1764,2.1967,2.2363,2.3221,2.3501,2.3532,2.3259,2.3314,2.3257,2.2862,2.2133,2.1852,2.2246,2.161,2.1164,2.1022,2.259,2.3178,2.2435,2.3885,2.4607,2.4549,2.4613,2.4704,2.4837,2.4926,2.5032,2.5191,2.5191,2.5191,2.5199,2.5177,2.5253,2.5387,2.5216,2.515,2.5209,2.5634,2.5761,2.5658,2.5658,2.577,2.5807,0.0,0.0,0.0,0.0,0.0,0.0,0.0,0.0,1.649,1.6596,1.6463,1.6371,1.6262,1.5762,0.0,0.0,1.5168,1.4992,1.5149,1.5659,1.6148,1.6528,1.6374,1.6451,1.6847,1.6184,1.5863,1.5911,1.5927,1.5903,1.5879,1.731,1.8039,1.8135,1.8808,1.8744,1.814,1.7808,1.7467,1.7117,1.6808,1.6685,1.6562,1.5114,1.4701,1.4749,1.382,0.0,0.0,0.0,0.0,0.0,0.0,0.0,1.6251,1.5522,1.5617,1.5862,1.5294,1.5457,1.5734,1.5579,1.622,1.7206,1.8477,1.8833,1.9054,1.9587,2.1158,2.2163,2.1333,2.1187,2.1308,2.1738,2.1792,2.2099,2.2985,2.2742,2.2457,2.2435,2.2343,2.223,2.2128,2.1579,2.1407,2.1794,2.0953,2.0445,2.0476,2.1702,2.2174,2.1689,2.2948,2.3803,2.4122,2.4195,2.4441,2.4893,2.4966,2.5076,2.5191,2.5191,2.5191,2.5191,2.5101,2.5113,2.518,2.4907,2.4749,2.4729,2.4942,2.4931,2.4814,2.4814,2.5072,2.5293,0.0,0.0,0.0,0.0,0.0,0.0,0.0,0.0,0.0,1.6596,1.6436,1.6316,1.6194,1.5879,1.5577,0.0,0.0,0.0,1.4525,1.5137,1.5759,1.6328,1.5886,1.6069,1.6975,1.6346,1.5974,1.5911,1.5821,1.5838,1.5943,1.7336,1.8065,1.8119,1.8679,1.8642,1.8113,1.8068,1.7613,1.6889,1.6296,1.5987,1.5759,1.4554,1.4123,1.4136,1.3768,1.3667,1.3766,1.4167,0.0,0.0,0.0,0.0,1.5121,1.5093,1.5176,1.5194,1.4768,1.4663,1.485,1.5536,1.6251,1.68,1.6805,1.6989,1.7187,1.725,1.9304,2.0912,2.0356,2.0267,2.0561,2.1439,2.1582,2.1777,2.234,2.1816,2.1347,2.1348,2.1224,2.1202,2.1364,2.1205,2.1079,2.1079,2.0329,1.9866,1.9866,2.0838,2.1373,2.135,2.2418,2.3263,2.3852,2.3904,2.4271,2.4942,2.5006,2.5088,2.5191,2.5191,2.5191,2.5191,2.5191,2.5191,2.518,2.5013,2.4927,2.4879,2.4566,2.4431,2.4392,2.4245,2.4612,2.5109,0.0,0.0,0.0,0.0,0.0,0.0,0.0,0.0,0.0,0.0,1.6328,1.6123,1.6123,1.5261,1.467,1.4642,1.4166,1.3923,1.4156,0.0,0.0,1.5294,1.5587,1.6037,1.6565,1.6143,1.5911,1.5911,1.533,1.533,1.5943,1.7413,1.8103,1.8103,1.827,1.827,1.815,1.7691,1.7043,1.6308,1.6021,1.5531,1.4873,1.4004,1.3684,1.3674,1.3443,1.3362,1.3459,1.4087,1.443,0.0,0.0,0.0,1.5131,1.4452,1.4701,1.488,1.3283,1.3137,1.3618,1.4348,1.4651,1.4792,1.4791,1.5569,1.6299,1.6371,1.7377,1.8459,1.9149,1.9321,1.9668,2.0521,2.0672,2.0444,1.9814,1.9626,1.9551,1.9547,1.9422,1.9634,2.0399,2.0348,2.026,2.026,2.0193,2.0145,2.0145,2.1684,2.2518,2.2401,2.4051,2.4922,2.4908,2.4908,2.4977,2.5061,2.5149,2.518,2.5191,2.5191,2.5191,2.5191,2.5191,2.5191,2.521,2.5168,2.5384,2.5668,2.4939,2.489,2.5164,2.4447,2.4263,2.4337,0.0,0.0,0.0,0.0,0.0,0.0,0.0,0.0,0.0,0.0,0.0,1.5996,1.5896,1.5088,1.4551,1.4551,1.4012,1.3704,1.3805,1.3891,1.428,1.5114,1.5515,1.5886,1.6214,1.6048,1.5741,1.5337,1.5046,1.5256,1.5967,1.705,1.7536,1.7536,1.7562,1.7587,1.7555,1.6962,1.6424,1.5846,1.5024,1.4728,1.4652,1.3278,1.3254,1.3894,1.3211,1.3176,1.3556,1.4034,1.4359,1.4654,1.4985,0.0,0.0,0.0,1.3968,1.36,1.2642,1.277,1.3211,1.3503,1.3588,1.3715,1.409,1.4743,1.5261,1.5244,1.5748,1.6622,1.8042,1.8794,1.9169,1.9068,1.9445,1.9475,1.8595,1.8494,1.8681,1.9146,1.9582,1.9973,2.0311,2.0716,2.0721,2.0201,2.019,2.0419,2.0896,2.1688,2.2329,2.2754,2.354,2.3916,2.3813,2.3851,2.4072,2.4493,2.5011,2.5228,2.5191,2.5191,2.5191,2.5191,2.5191,2.5191,2.5191,2.5191,2.5221,2.518,2.4839,2.4999,2.5311,2.4502,2.4483,2.4795,0.0,0.0,0.0,0.0,0.0,0.0,0.0,0.0,0.0,0.0,0.0,1.5926,1.5769,0.0,0.0,0.0,1.3689,1.3252,1.3213,1.3122,1.3635,1.4978,1.5327,1.5655,1.5974,1.5998,1.5642,1.4907,1.4907,1.5279,1.6014,1.6548,1.6905,1.7124,1.7302,1.727,1.7075,1.6424,1.5861,1.5368,1.4263,1.404,1.4203,1.3025,1.3231,1.4076,1.3245,1.3284,1.3732,1.4005,1.4306,1.4654,1.4964,1.4736,0.0,0.0,0.0,1.2103,1.2486,1.2665,1.2806,1.2956,1.2973,1.3084,1.3573,1.3987,1.4304,1.4449,1.4729,1.5372,1.6771,1.7808,1.8334,1.7936,1.8414,1.8543,1.7698,1.7802,1.8191,1.8796,1.9629,2.0219,2.0376,2.0928,2.097,2.0282,2.0205,2.0578,2.1449,2.1548,2.2011,2.2875,2.2912,2.2893,2.2856,2.3107,2.3499,2.4039,2.4685,2.5072,2.5233,2.4998,2.5026,2.5206,2.5203,2.5191,2.5191,2.5191,2.5139,2.5035,2.4798,2.5016,2.5352,2.4503,2.4575,2.5017,0.0,0.0,0.0,0.0,0.0,0.0,0.0,0.0,0.0,0.0,0.0,1.5885,1.5885,1.4713,1.392,1.3844,1.2765,1.2119,1.2161,1.2298,1.302,1.4475,1.4792,0.0,1.5895,1.5974,1.5642,1.4907,1.4907,1.5279,1.5998,1.6046,1.6419,1.714,1.7831,1.7792,1.7125,1.6273,1.5508,1.4815,1.4358,1.3752,1.3145,1.3621,1.3799,1.3797,1.3679,1.3791,1.3986,1.4,1.4276,1.4644,1.493,1.5108,1.4927,0.0,0.0,0.0,1.2752,1.2628,1.2048,1.2813,1.29,1.2793,1.2763,1.3076,1.3569,1.4265,1.4622,1.4885,1.5101,1.5868,1.674,1.765,1.7844,1.7583,1.6771,1.7378,1.7918,1.7959,1.8689,1.9509,2.0322,2.0385,2.0356,2.0291,2.0241,2.0584,2.1446,2.1567,2.1989,2.2881,2.2966,2.2991,2.2982,2.3745,2.4115,2.4089,2.4147,2.4592,2.536,2.4463,2.4514,2.5293,2.5236,2.5191,2.5191,2.5191,2.5533,2.5929,2.5054,2.5066,2.5486,2.4542,2.4226,2.4263,0.0,0.0,0.0,0.0,0.0,0.0,0.0,0.0,0.0,0.0,0.0,0.0,0.0,1.4641,1.399,1.3119,1.2411,1.2054,1.2221,1.2848,1.3431,1.3972,1.4648,1.4913,1.4621,1.4643,1.4302,1.3553,1.4063,1.4664,1.5311,1.6321,1.6914,1.7174,1.6946,1.6822,1.6725,1.5211,1.4685,1.4769,1.3828,1.3796,1.4307,1.3814,1.4096,1.4698,1.4202,1.3945,1.3956,1.49,1.4827,1.4397,1.4709,1.4274,1.329,1.1575,1.1293,1.1478,1.1169,1.1921,1.2673,1.232,1.2609,1.2938,1.2806,1.3351,1.3793,1.3509,1.4036,1.4566,1.4616,1.5533,1.6239,1.6085,1.6574,1.6687,1.5881,1.6992,1.7903,1.7899,1.9667,2.0786,2.0494,2.1447,2.1619,2.0441,2.0816,2.1255,2.1615,2.1615,2.2023,2.2946,2.2998,2.3015,2.3052,2.391,2.4291,2.4238,2.4796,2.5175,2.5394,2.5047,2.5039,2.5303,2.5273,2.5239,2.5191,2.5191,2.526,2.5305,2.4946,2.5223,2.5663,2.4688,2.4653,2.5023,0.0,0.0,0.0,1.4096,0.0,1.4109,1.3898,1.4529,1.4906,1.4539,0.0,0.0,0.0,0.0,1.4386,1.325,1.2592,1.2375,1.265,1.2974,1.3341,1.3746,1.436,1.4451,1.3917,1.3901,1.3524,1.2811,1.358,1.4165,1.4611,1.6117,1.6824,1.6808,1.6075,1.5975,1.6231,1.4667,1.4218,1.4479,1.3573,1.39,1.4841,1.4486,1.4826,1.5432,1.4875,1.463,1.4665,1.529,1.5112,1.4659,1.4708,1.3806,1.2411,1.0954,1.1249,1.1819,1.0833,1.1735,1.2808,1.225,1.2423,1.2746,1.2766,1.3344,1.3775,1.3479,1.3979,1.4467,1.4508,1.5207,1.5632,1.5145,1.5587,1.584,1.5366,1.6807,1.7899,1.7909,2.0019,2.1229,2.0586,2.1561,2.1733,2.0529,2.0908,0.0,2.1682,2.1656,2.2062,2.2996,2.2755,2.277,2.3108,2.3965,2.4375,2.4339,2.492,2.5308,2.5496,2.5162,2.5135,2.533,2.5322,2.5262,2.5191,2.5191,2.5125,2.4987,2.4929,2.5173,2.5468,2.4746,2.4847,2.5204,1.3808,1.3914,1.3859,1.3466,1.3341,1.3212,1.2872,1.3315,1.385,1.4213,0.0,0.0,0.0,0.0,0.0,1.4285,1.3357,1.2985,1.3392,1.2603,1.2629,1.3816,1.3869,1.3885,1.3901,1.3885,1.3524,1.2827,1.356,1.3905,1.3925,1.5397,1.6082,1.6036,1.5386,1.5324,1.5663,1.4735,1.4184,1.395,1.3784,1.4042,1.4652,1.5613,1.5955,1.5866,1.5692,1.5895,1.6137,1.5101,1.5097,1.5435,1.4952,1.381,1.2508,1.1677,1.14,1.1446,0.0,0.0,0.0,1.2613,1.2377,1.2177,1.2598,1.2951,1.3435,1.4205,1.4475,1.4606,1.4687,1.4754,1.4832,1.4979,1.5003,1.5078,1.5278,1.6779,1.788,1.7894,1.948,2.0564,2.0605,2.0565,2.0531,2.0503,2.0456,2.0808,2.163,2.1667,2.2094,2.3037,2.2263,2.226,2.3132,2.4003,2.4436,2.4436,2.4436,2.4883,2.5679,2.4764,2.4724,2.5394,2.5327,2.5274,2.5191,2.5191,2.5191,2.518,2.4987,2.4915,2.4888,2.4749,2.4707,2.4692,1.3138,1.3467,1.3663,1.3572,1.3754,1.3758,1.3108,1.3727,1.4162,0.0,0.0,0.0,1.4941,1.4502,1.4374,1.476,1.3709,1.3204,1.3663,1.2875,1.2668,1.3291,1.3179,1.3346,1.3901,1.3378,1.3265,1.3609,1.386,1.3941,1.3925,1.4854,1.5315,1.5354,1.5076,1.4603,1.3935,1.3202,1.3836,1.5246,1.4143,1.4308,1.53,1.5794,1.5955,1.5926,1.6233,1.6175,1.6043,1.6153,1.6186,1.601,1.5199,1.3511,1.1887,1.2179,1.2251,1.2232,1.2239,0.0,0.0,0.0,0.0,0.0,1.2423,1.3081,1.3823,1.3455,1.3919,1.4391,1.4421,1.453,1.4716,1.4902,1.4973,1.5075,1.526,1.6265,1.7186,1.7825,1.8931,1.9911,2.0533,2.1145,2.123,0.0,2.1071,2.1234,2.0842,2.0827,2.1235,2.2127,2.2539,2.316,2.4032,2.4903,2.5336,2.5336,2.5336,2.5471,2.5698,2.5437,2.5364,2.5479,2.5394,2.5329,2.5262,2.5225,2.5191,2.5191,2.5137,2.5113,2.5082,2.4921,2.4847,2.4818,1.2965,1.331,1.3581,1.3648,1.4126,1.4299,1.3695,1.4227,1.4552,0.0,0.0,0.0,1.5003,1.5134,1.5297,1.5515,1.4292,1.3806,1.4514,1.325,1.2925,1.3903,1.3527,1.3668,1.4464,1.3994,1.3791,1.3938,1.4292,1.4129,1.3502,1.4553,1.4901,1.4644,1.446,1.4245,1.3873,1.2686,1.3237,1.4857,1.4405,1.48,1.5726,1.612,1.6246,1.6231,1.6419,1.6508,1.6528,1.6095,1.5829,1.557,1.5036,1.4027,1.2985,1.2698,1.3094,1.3494,1.2842,1.3392,1.3926,1.302,0.0,0.0,1.3077,1.3694,1.4276,0.0,1.4132,1.46,1.4981,1.4842,1.4982,1.5885,1.5785,1.551,1.5298,1.6038,1.6928,1.7805,1.8728,1.9633,2.0527,2.1025,2.1093,2.0547,2.0971,2.1177,2.1017,2.1026,2.1612,2.2843,2.3387,2.4068,2.4937,2.5451,2.5707,2.5707,2.5707,2.5705,2.5703,2.5701,2.5636,2.5532,2.5473,2.5395,2.5303,2.5261,2.5236,2.5191,2.5191,2.5191,2.518,2.5069,2.5032,2.5,0.0,1.3195,1.3459,1.3692,1.434,1.4746,1.4459,1.4715,1.4951,0.0,1.4973,1.5244,1.5742,1.665,1.6945,1.6363,1.5021,1.4603,1.5445,1.3679,1.3292,1.4808,1.43,1.439,1.5255,1.5086,1.4691,1.4108,1.4689,1.4263,1.2934,1.4247,1.4492,1.3835,1.3674,1.3945,1.4475,1.2864,1.2694,1.3583,1.4513,1.5303,1.597,1.6501,1.6659,1.658,1.6441,1.6878,1.7255,1.5744,1.5066,1.4893,1.5094,1.5182,1.4937,1.3574,1.4024,1.4749,1.3773,1.3567,1.3649,1.372,1.3665,0.0,1.4035,1.4492,1.4825,0.0,1.4763,1.4978,1.58,1.5311,1.5354,1.7034,1.6718,1.6061,1.5561,1.62,1.7073,1.7944,1.8795,1.9636,2.0515,2.0542,2.0508,2.0497,2.0492,2.0807,2.1522,2.1725,2.2547,2.4199,2.4355,2.482,2.5687,2.5707,2.5707,2.5707,2.5707,2.5707,2.5707,2.5701,2.5662,2.5615,2.5532,2.5427,2.5322,2.5313,2.5271,2.5191,2.5191,2.5191,2.5191,2.5191,2.5191,2.518,1.2258,1.2496,1.2948,1.37,1.4177,1.4598,1.5168,1.4954,1.4835,1.5277,1.6083,1.6525,1.644,1.6894,1.6945,1.6363,1.5547,1.5012,1.4876,1.3929,1.3424,1.3493,1.3704,1.4255,1.5138,1.4984,1.4864,1.4719,1.4323,1.3713,1.2918,1.3179,1.317,1.2877,1.2838,1.272,1.259,1.3017,1.3351,1.3616,1.4026,1.489,1.597,1.6501,1.6659,1.6633,1.6855,1.7158,1.7472,1.7837,1.7276,1.662,1.7672,1.6715,1.5409,1.6473,1.5539,1.432,1.5142,1.4932,1.4296,1.3578,1.4357,0.0,1.3891,1.4724,1.554,0.0,1.4756,1.4841,1.502,1.4916,1.4953,1.5426,1.5376,1.5744,1.7099,1.7509,1.797,1.8848,1.9156,1.9636,2.0515,2.0596,2.0565,2.0498,2.051,2.0575,2.0721,2.1414,2.2279,2.3329,2.4027,2.482,2.5687,2.5707,2.5707,2.5707,2.5707,2.5707,2.5707,2.5701,2.5693,2.5678,2.5552,2.5479,2.5453,2.533,2.5271,2.5191,2.5191,2.5191,2.5191,2.5191,2.5191,2.5191,1.1979,1.2186,1.2591,1.3385,1.4101,1.4713,1.5095,1.5361,1.5586,1.5636,1.6374,1.6757,1.6381,1.6819,1.6872,1.6363,1.5749,1.5462,1.558,1.4397,1.3907,1.4529,1.4068,1.4443,1.5816,1.5493,1.5247,1.515,1.4978,1.4221,1.2918,1.3167,1.331,1.3278,1.2629,1.2499,1.2743,1.2697,1.3198,1.4145,1.4561,1.5182,1.5854,1.6448,1.6607,1.656,1.667,1.6669,1.6846,1.8193,1.7887,0.0,1.8297,1.796,1.7236,0.0,1.6859,1.583,1.5913,1.5337,0.0,1.4541,0.0,0.0,0.0,1.5056,1.5281,1.4841,1.4785,1.4944,1.5413,1.5524,1.5725,1.6263,1.638,1.6901,1.8305,1.7786,1.7738,1.9033,1.9255,1.9636,2.0515,2.0561,2.0546,2.0503,2.0495,2.0691,2.1137,2.1979,2.2858,2.3712,2.4581,2.5254,2.5707,2.5707,2.5707,2.5707,2.5707,2.5707,2.5707,2.5698,2.5693,2.5707,2.5632,2.5556,2.5498,2.5425,2.533,2.525,2.5214,2.5191,2.5191,2.5191,2.5459,2.5746,1.1918,1.2016,1.2348,1.2983,1.3934,1.4637,1.4813,1.5518,1.5994,1.5898,1.6631,1.6957,1.6469,1.6992,1.7197,1.6749,1.6243,1.6175,1.662,1.5114,1.4655,1.566,1.4686,1.4837,1.6365,1.5895,1.5493,1.5255,1.5373,1.4535,1.2843,1.3279,1.3537,1.3561,1.2739,1.265,1.3077,1.2402,1.2971,1.4416,1.4949,1.5477,1.5947,1.6359,1.6528,1.6528,1.6537,1.6429,1.6543,1.8106,1.8136,1.7648,1.8526,1.8936,0.0,0.0,0.0,0.0,0.0,0.0,0.0,0.0,0.0,1.5319,0.0,0.0,0.0,1.5067,0.0,0.0,1.6069,0.0,0.0,1.7112,0.0,0.0,0.0,1.775,0.0,1.9261,1.9374,1.9698,2.074,2.0761,2.0798,2.0977,2.0823,2.1124,2.199,2.287,2.3667,2.4383,2.5254,2.5707,2.5707,2.5707,2.5707,2.5707,2.5707,2.5707,2.5707,2.5696,2.5693,2.569,2.5691,2.5643,2.554,2.551,2.5432,2.5303,2.525,2.5214,2.5191,2.5191,2.5612,2.6097,1.1918,1.1881,1.2113,1.3021,1.3302,1.376,1.4891,1.4651,1.4818,1.6068,1.7502,1.8163,1.7583,1.8258,1.8616,1.8212,1.7889,1.7548,1.7128,1.6437,1.5608,1.4718,1.5074,1.543,1.5702,1.5474,1.5144,1.4674,1.4066,1.3347,1.2554,1.2684,1.2522,1.2161,1.2989,1.2762,1.1866,1.2775,1.3326,1.3648,1.3842,1.5036,1.6653,1.6351,1.6394,1.6659,1.719,1.753,1.7866,0.0,1.8961,1.9288,0.0,1.9505,1.9175,1.9967,0.0,0.0,0.0,0.0,0.0,0.0,1.6484,0.0,0.0,0.0,1.6036,1.6036,0.0,0.0,0.0,0.0,0.0,1.5587,0.0,0.0,1.7912,1.7871,1.8428,2.0223,1.9775,1.9921,2.1501,2.1597,2.1877,2.2668,2.1998,2.1969,2.2901,2.3782,2.4307,2.4403,2.5254,2.5707,2.5707,2.5707,2.5707,2.5707,2.5707,2.5707,2.5707,2.5701,2.5698,2.5698,2.5701,2.5687,2.5664,2.5542,2.5467,2.539,2.5313,2.525,2.5191,2.5191,2.5268,2.544,1.1918,1.1881,1.2076,1.2666,1.3027,1.3498,1.4455,1.5082,1.5852,1.6859,1.7372,1.7564,1.7488,1.764,1.7753,1.7792,1.7802,1.7652,0.0,1.6604,1.5829,1.4956,1.4785,1.4844,1.5058,1.4811,1.4515,1.4239,1.3555,1.2978,1.2495,1.2287,1.2586,1.3298,1.3719,1.3975,1.4105,1.4094,1.4436,1.4875,1.4124,1.4857,1.6377,1.6153,1.634,1.6815,1.7585,1.7971,1.8246,0.0,1.9443,0.0,0.0,0.0,0.0,2.0326,0.0,0.0,0.0,0.0,0.0,0.0,0.0,0.0,1.5721,0.0,1.6265,0.0,0.0,0.0,0.0,0.0,0.0,0.0,1.5917,1.6617,0.0,0.0,1.7418,2.0205,0.0,0.0,2.092,2.1023,2.115,2.1527,2.1679,2.2154,2.3058,2.3929,2.4628,2.5149,2.5508,2.5707,2.5707,2.5707,2.5707,2.5707,2.5707,2.5707,2.5707,2.5701,2.5698,2.5698,2.5707,2.5704,2.5701,2.5648,2.5547,2.5506,2.5948,2.5736,2.5268,2.5726,2.6211,2.6632,1.2136,1.2019,1.1957,1.2267,1.259,1.3106,1.3951,1.5247,1.6415,1.7196,1.7288,1.7281,1.7397,1.7608,1.7892,1.8229,1.8426,1.8413,0.0,1.7152,1.6361,1.5998,1.5087,1.4816,1.535,1.4565,1.4116,1.4078,1.319,1.2713,1.2624,1.2351,1.2879,1.412,1.4274,1.479,1.5525,1.5069,1.5242,1.5736,1.4683,1.5075,1.6314,1.6224,1.6394,1.6825,1.7798,1.8183,1.8329,1.9222,1.9688,0.0,2.0137,2.0347,2.0482,0.0,0.0,0.0,1.9622,0.0,0.0,0.0,0.0,0.0,0.0,0.0,0.0,0.0,0.0,0.0,0.0,0.0,1.7497,1.5832,0.0,1.6879,1.6918,1.6198,0.0,0.0,0.0,0.0,0.0,2.0841,2.0937,2.1181,2.1558,2.2266,2.34,2.4057,2.479,2.5679,2.5705,2.5707,2.5707,2.5707,2.5707,2.5707,2.5707,2.5707,2.5707,2.5703,2.5701,2.5701,2.5696,2.5693,2.5693,2.569,2.5621,2.5613,2.6669,2.6466,2.5688,2.6484,2.7014,2.7319,1.2781,1.2295,1.1819,1.1904,1.1878,1.2295,1.3606,1.4638,1.562,1.6675,1.7607,1.8055,1.7733,1.9126,2.0204,2.0469,0.0,2.064,2.067,0.0,1.7558,1.7975,1.6368,1.595,1.7011,1.5034,1.4087,1.4296,1.2836,1.2412,1.297,1.2955,1.3208,1.3657,1.4367,1.4707,1.476,1.5124,1.5345,1.5388,1.5224,1.586,1.6849,0.0,1.6581,1.6581,1.7851,0.0,0.0,1.9206,1.9688,0.0,0.0,0.0,0.0,0.0,0.0,0.0,0.0,0.0,0.0,1.9085,0.0,0.0,0.0,0.0,1.8773,0.0,0.0,0.0,0.0,1.8803,1.8335,1.6723,1.7194,0.0,0.0,1.7073,1.7252,1.9118,2.0741,0.0,0.0,2.1694,2.2046,0.0,2.2209,2.2479,2.4257,2.4372,2.4793,2.5679,2.5705,2.5707,2.5707,2.5707,2.5707,2.5707,2.5707,2.5707,2.5707,2.5707,2.5707,2.5707,2.5701,2.5698,2.5698,2.5693,2.5621,2.5676,2.7381,2.7427,2.6631,2.7388,2.7147,2.667,1.3248,1.2571,1.1994,1.2347,1.2207,1.2438,1.3778,1.465,1.5761,0.0,1.8324,0.0,0.0,1.9871,2.0268,0.0,0.0,1.9934,2.0049,1.8917,0.0,1.7985,1.7375,1.6849,1.6519,1.5829,1.5109,1.4366,1.3705,1.3465,1.3702,1.35,1.3734,1.4362,1.5011,1.5801,1.6637,1.5987,1.6053,1.6542,1.6195,1.6381,1.6924,0.0,1.746,1.7597,1.8207,1.8518,0.0,1.9407,1.9874,2.0169,2.0237,2.0363,2.0488,2.0443,2.032,0.0,0.0,0.0,1.9601,1.9731,0.0,0.0,0.0,0.0,0.0,0.0,0.0,0.0,0.0,1.8885,1.8559,1.7465,1.7549,1.7555,0.0,1.7264,1.7691,1.8358,1.9452,2.0154,0.0,0.0,0.0,0.0,2.1291,0.0,2.3488,2.4082,2.479,2.5673,2.5698,2.5703,2.5707,2.5707,2.5707,2.5707,2.5707,2.5707,2.5707,2.5707,2.5707,2.5707,2.5705,2.5705,2.5744,2.6323,2.6523,2.6654,2.8262,2.8338,2.7614,2.8341,2.8413,2.8294,1.3735,1.2986,1.2366,1.2723,1.2544,1.2791,1.3935,1.494,1.6249,0.0,1.8942,0.0,2.0544,0.0,2.0603,0.0,2.0625,2.0194,1.9953,1.9251,0.0,1.8482,1.7954,1.7542,1.7255,1.6822,1.6076,1.504,1.4577,1.4354,1.4329,1.4087,1.4337,1.5002,1.5286,1.6307,1.7687,1.6448,1.6518,1.743,1.7316,1.7455,0.0,0.0,1.8351,1.813,0.0,1.8663,1.8853,1.9489,1.9895,2.0149,2.0262,2.038,2.0469,2.0438,2.0359,2.0353,2.0745,2.0281,0.0,2.0137,1.9586,0.0,1.8802,0.0,0.0,0.0,0.0,0.0,0.0,1.9764,1.9153,1.8692,1.8107,1.744,0.0,1.7361,1.8045,1.8428,1.9207,1.9722,1.9723,0.0,0.0,0.0,0.0,0.0,0.0,2.3639,2.4483,2.5651,2.5698,2.5703,2.5707,2.5707,2.5707,2.5707,2.5707,2.5707,2.5707,2.5707,2.5707,2.5707,2.5707,2.5707,2.5746,2.6305,2.6727,2.7124,2.8372,2.8702,2.8548,2.9248,2.9468,2.9486,1.4141,1.3499,1.2942,1.2904,1.2892,1.3159,0.0,0.0,1.6973,0.0,1.9412,2.0158,2.0686,2.1046,2.1229,2.1131,2.1415,2.1254,2.0429,1.9617,0.0,0.0,1.8288,1.8041,1.9058,1.793,1.6959,1.624,1.5442,1.4985,1.4878,1.473,1.4989,1.5507,1.5225,1.6167,1.7829,1.6539,1.6737,1.7923,1.8422,1.885,1.9207,1.9605,1.9078,1.8208,1.8635,1.8698,1.8663,1.9434,1.9752,1.9888,2.0203,2.0347,2.0408,2.0474,2.0445,2.0584,2.1403,2.1486,2.1139,2.0374,0.0,0.0,0.0,0.0,2.1444,0.0,0.0,0.0,0.0,0.0,2.0126,2.0287,1.8876,1.7536,1.6829,1.7435,1.8319,1.9255,2.0024,2.0472,2.0373,1.9692,0.0,0.0,0.0,2.0383,2.2955,2.3098,2.3905,2.5632,2.5701,2.5707,2.5707,2.5707,2.5707,2.5707,2.5707,2.5707,2.5707,2.5707,2.5707,2.5707,2.5707,2.5707,2.5707,2.574,2.6281,2.7147,2.7882,2.8643,2.9418,2.9985,3.0194,3.0204,1.4238,1.3857,1.3369,1.3229,1.2952,1.3224,0.0,0.0,0.0,0.0,1.9718,2.0565,2.1373,2.117,2.1173,2.1672,2.0671,0.0,0.0,0.0,0.0,2.0348,1.914,1.8592,1.8887,1.7879,1.7225,1.6932,1.5972,1.5667,1.5984,1.5738,1.5717,1.5854,1.5507,1.6367,1.8035,1.6825,1.6914,1.7956,1.8629,1.8834,1.8757,0.0,1.8908,1.8835,1.8753,1.8928,1.9221,1.9574,1.9882,2.0123,2.0263,2.0344,2.0408,2.0484,2.0448,2.0454,2.0739,2.0656,2.0606,2.1026,2.0861,2.077,0.0,0.0,0.0,0.0,0.0,0.0,0.0,0.0,0.0,2.0392,1.9453,1.8746,1.8558,1.8726,0.0,2.0081,2.0367,2.0013,1.8763,1.9566,1.9732,0.0,0.0,0.0,2.2987,0.0,2.3893,2.5632,2.5693,2.5698,2.5707,2.5707,2.5707,2.5707,2.5707,2.5707,2.5707,2.5707,2.5707,2.5707,2.5707,2.5707,2.5746,2.6401,2.7176,2.8031,2.8773,2.9497,3.0111,3.0177,3.0194,3.0204,1.4528,1.4378,1.4161,1.4173,1.4482,0.0,1.5195,1.6076,0.0,1.8598,1.9737,0.0,2.1138,2.1028,2.0962,2.1043,2.025,0.0,1.9949,0.0,0.0,1.9508,1.9085,1.8749,1.8586,1.8554,0.0,1.7146,1.6803,1.6515,1.6219,1.6039,1.5983,1.5983,1.5667,1.6353,1.7731,1.7076,1.738,1.8315,1.8543,1.8637,0.0,1.8809,1.8904,1.8909,1.8763,1.896,1.9341,1.9619,1.985,2.0093,2.0243,2.0332,2.0377,2.0463,2.0477,2.0454,2.0488,2.0365,2.0357,2.0846,2.0619,2.0565,2.1759,2.1983,2.2176,0.0,0.0,0.0,0.0,0.0,0.0,1.9922,1.9408,1.9163,1.9191,0.0,0.0,0.0,2.0837,2.0399,1.8698,1.9374,1.9372,0.0,0.0,0.0,0.0,0.0,2.3725,2.5083,2.5495,2.5696,2.5707,2.5705,2.5705,2.5707,2.5707,2.5707,2.5707,2.5707,2.5707,2.5707,2.5707,2.5707,2.5746,2.6234,2.7173,2.8401,2.9531,3.0144,3.0386,3.0273,3.0234,3.0204,1.4811,1.4937,1.5097,1.5325,1.6563,0.0,0.0,1.6767,0.0,1.861,0.0,2.0399,2.0501,2.0567,2.0433,1.9927,0.0,1.939,1.8231,1.8569,1.8618,1.8179,1.8567,1.8679,1.8383,1.9295,1.8922,0.0,1.756,1.7152,1.6024,1.5998,1.5998,1.6024,1.5839,1.6407,1.742,1.7477,1.81,1.8946,1.8448,1.8434,1.8708,1.8903,1.8861,1.8715,1.8715,1.8963,1.932,1.9606,1.9797,1.9973,2.0208,2.0305,2.0321,2.046,2.0506,2.049,2.0491,2.0399,2.0314,2.0302,2.0262,2.0427,2.1149,2.1407,2.1981,2.3666,2.3448,2.3465,0.0,0.0,0.0,1.9617,1.9509,0.0,0.0,0.0,0.0,0.0,0.0,0.0,1.9526,0.0,0.0,0.0,0.0,0.0,0.0,0.0,2.3542,2.4537,2.5317,2.5754,2.5861,2.5761,2.5761,2.5861,2.5746,2.5707,2.5707,2.5707,2.5707,2.5707,2.5707,2.5707,2.5707,2.5697,2.6735,2.8454,3.0072,3.06,3.0432,3.0348,3.0292,3.0199,1.4915,1.5441,1.5834,1.5645,1.6924,1.7912,1.7721,1.8672,1.9535,1.9851,2.0029,2.0028,1.9949,1.9572,1.9284,1.9171,1.8512,0.0,0.0,0.0,0.0,1.9044,1.8464,1.8369,1.8779,1.86,1.8234,0.0,1.7161,1.6697,1.6246,1.6289,1.6262,1.6166,1.6191,1.7096,1.8607,1.8593,0.0,1.9929,1.8884,1.851,1.8584,1.8302,1.845,1.8789,1.8789,1.9143,1.9619,1.9688,1.9855,2.0088,2.0257,2.0289,2.0331,2.0467,2.0495,2.0497,2.049,2.0476,2.0443,2.0334,2.0371,2.0611,2.1177,2.1978,2.2879,2.3809,2.4491,2.4834,2.4577,0.0,0.0,0.0,0.0,0.0,0.0,0.0,0.0,0.0,0.0,2.1396,0.0,0.0,0.0,0.0,0.0,0.0,0.0,0.0,2.3827,0.0,2.5612,2.6044,0.0,0.0,2.6054,2.6752,2.6037,2.5707,2.5707,2.5707,2.5707,2.5707,2.5707,2.5707,2.5707,2.5709,2.6733,2.8476,3.0133,3.0697,3.0559,3.0491,3.0386,3.0266,1.7025,0.0,0.0,0.0,0.0,0.0,0.0,2.0395,0.0,1.956,1.956,1.9547,1.9232,1.9359,1.9359,1.923,1.8805,1.866,1.8865,1.7893,1.7761,1.885,1.8099,1.7921,1.8458,1.853,1.8303,1.7782,0.0,1.7015,1.6644,1.6404,1.6289,1.6277,1.6772,1.7688,1.8898,0.0,0.0,1.9815,1.8992,1.8449,1.8128,1.8233,1.8467,1.8807,1.8878,1.9206,1.9612,1.9676,1.9832,2.0022,2.0244,2.0307,2.032,2.0463,2.0503,2.0499,2.0503,2.0508,2.0483,2.0418,2.0448,2.0787,2.1883,2.2524,2.3245,2.4477,2.51,2.5159,2.4381,2.3626,0.0,0.0,0.0,0.0,0.0,0.0,2.3104,0.0,0.0,0.0,0.0,0.0,0.0,0.0,0.0,0.0,0.0,0.0,2.3698,0.0,0.0,0.0,2.6327,0.0,2.5917,2.6327,2.59,2.5707,2.5707,2.5707,2.5707,2.5707,2.5707,2.5693,2.5777,2.6677,2.7811,2.9101,3.0327,3.0749,3.065,3.063,3.0772,3.1013,0.0,1.851,0.0,0.0,2.0183,0.0,2.1219,2.1637,2.1197,1.9517,1.9371,1.9283,1.897,1.9345,1.9573,1.9377,1.9236,1.9028,1.8719,1.819,1.8111,1.8741,1.8187,1.8058,1.8512,1.9018,1.8846,0.0,0.0,0.0,1.703,1.6627,1.6533,1.6698,1.7373,0.0,0.0,0.0,1.946,1.9841,1.9244,1.8603,1.8059,1.8489,1.8706,1.8807,1.893,1.9191,1.9513,1.9663,1.9786,1.9943,2.0225,2.0297,2.0332,2.0479,2.0507,2.0497,2.0497,2.0503,2.0502,2.0493,2.0507,2.0822,2.2075,2.2648,2.3243,2.435,2.49,2.498,2.4348,2.3903,0.0,0.0,0.0,0.0,0.0,0.0,0.0,0.0,0.0,0.0,2.2204,0.0,0.0,0.0,0.0,0.0,2.1049,0.0,0.0,0.0,0.0,2.5598,2.5964,0.0,2.5781,2.5978,2.5785,2.5707,2.5707,2.5707,2.5709,2.5711,2.5904,2.6087,2.6387,2.8125,2.9141,2.9726,3.0898,3.1203,3.102,3.1195,3.1565,3.1969,0.0,0.0,0.0,0.0,0.0,0.0,2.1205,2.1736,2.1995,2.1343,2.0363,1.9723,1.9672,1.9296,1.912,1.9217,1.8748,1.8584,1.8779,1.8516,1.8708,1.9564,1.9617,1.974,1.9933,2.0321,1.9952,0.0,0.0,1.8214,0.0,1.7233,1.7515,1.7936,0.0,0.0,0.0,1.9849,2.0137,2.1148,2.0118,1.9461,1.9064,1.9132,1.8982,1.8807,1.8807,1.9111,1.9513,1.9663,1.9786,1.9943,2.0225,2.0297,2.0342,2.0523,2.0544,2.0507,2.0498,2.0497,2.0503,2.0502,2.0507,2.0512,2.0547,2.1809,2.2782,2.2107,2.3263,2.4385,2.4305,2.488,2.4871,0.0,0.0,0.0,0.0,0.0,2.5153,2.4374,0.0,0.0,2.2984,2.0954,0.0,0.0,2.114,0.0,0.0,0.0,0.0,2.5527,2.4899,2.5286,2.687,2.6082,2.6093,2.6869,2.6076,2.5707,2.5707,2.5707,2.5693,2.5738,2.6532,2.7338,2.8184,2.9941,3.0234,2.9844,3.2226,3.2676,3.2068,3.2783,3.3011,3.2963,0.0,0.0,0.0,0.0,0.0,0.0,0.0,2.1895,2.1619,2.1066,2.0602,2.0188,1.9836,1.9686,1.9661,1.9799,1.9707,1.969,1.9788,1.969,1.984,2.0464,2.018,2.0302,2.0921,2.046,2.0121,0.0,0.0,0.0,0.0,0.0,0.0,0.0,0.0,2.0135,2.1063,2.1099,2.1334,2.1611,2.1219,2.0796,2.0347,2.001,1.9791,1.965,1.9247,1.9271,1.9513,1.9663,1.9786,1.9943,2.0225,2.0297,2.0342,2.0538,2.0544,2.0508,2.0507,2.049,2.0497,2.0499,2.0491,2.0619,2.1044,2.1701,2.2255,2.2408,2.3021,2.3678,2.4208,2.4155,2.4166,0.0,0.0,0.0,0.0,0.0,0.0,2.5165,0.0,2.3878,2.3874,2.2004,0.0,0.0,0.0,0.0,0.0,0.0,0.0,2.4882,0.0,2.5506,2.6209,2.5868,2.5861,2.621,2.5861,2.5707,2.5707,2.5707,2.5989,2.6523,2.7401,2.8573,2.9961,3.1172,3.1758,3.1973,3.3008,3.3184,3.293,3.3236,3.3301,3.3225,2.2567,0.0,2.1743,0.0,2.238,2.1993,2.2801,2.2407,2.1776,2.1113,2.0957,2.0627,1.9874,1.9965,2.008,2.0182,2.0347,2.0511,2.0712,2.0646,2.0866,2.1482,2.1105,0.0,2.1858,2.1087,2.0803,2.103,2.0195,0.0,0.0,0.0,0.0,0.0,2.0933,2.1349,2.1685,2.2116,2.2289,2.2277,2.2242,2.1945,2.144,2.0785,2.0445,2.0208,1.9472,1.9361,1.9567,1.9676,1.9809,1.9992,2.0197,2.028,2.0337,2.0528,2.0558,2.0527,2.0508,2.05,2.0492,2.0503,2.0508,2.0643,2.1226,2.1736,2.2396,2.3523,2.3562,2.3659,2.4527,2.4169,2.4077,2.5057,0.0,0.0,0.0,2.544,0.0,2.5284,2.4522,2.4101,2.4343,2.2578,0.0,0.0,0.0,0.0,0.0,0.0,0.0,0.0,0.0,0.0,2.5703,2.57,2.5829,2.6078,2.6078,2.6216,2.6474,2.6724,2.7318,2.8203,2.9062,3.0273,3.1699,3.2578,3.3125,3.3457,3.3965,3.4004,3.3809,3.4062,3.3953,3.3673,2.2947,2.2896,2.3017,2.3497,2.3556,2.3543,2.3616,2.3437,2.2972,2.183,2.1579,2.1054,1.9924,2.0016,2.0182,2.0182,2.0182,2.0472,2.1131,2.1055,2.15,0.0,0.0,2.2659,2.2682,2.2652,2.2364,2.1807,0.0,0.0,2.1275,0.0,2.1521,2.2181,2.2192,2.2466,2.2977,2.2712,2.2917,2.3369,2.3091,2.2706,2.2203,2.1414,2.0746,2.0191,1.9322,1.9295,1.9701,1.9701,1.9885,2.0116,2.0169,2.025,2.0332,2.0449,2.0553,2.0578,2.0527,2.0505,2.0492,2.0506,2.0508,2.0507,2.0507,2.1794,2.3484,2.5213,2.4877,2.4547,2.5426,2.5582,2.529,2.4449,0.0,0.0,0.0,0.0,0.0,2.4515,2.3642,2.3439,2.4214,2.2006,0.0,0.0,0.0,0.0,0.0,0.0,0.0,2.5532,2.4764,0.0,2.5694,2.5702,2.6131,2.6978,2.6978,2.7432,2.8297,2.915,3.0033,3.0898,3.1777,3.2617,3.3437,3.4316,3.418,3.3574,3.5293,3.5449,3.4785,3.5644,3.5378,3.4579,2.3308,2.3027,2.2819,2.2865,2.2852,2.2738,2.2344,2.2192,2.197,2.1532,2.0896,2.0719,2.1414,2.0983,2.051,0.0,2.0871,2.1264,0.0,2.1813,2.2267,2.2558,2.3054,2.3288,2.3255,2.2906,2.2645,2.2486,0.0,0.0,0.0,2.3433,2.3688,2.4122,2.4104,2.3869,2.347,2.3443,2.3371,2.3323,2.3294,2.3396,2.3447,2.2081,2.1808,2.1935,2.0528,2.0233,2.0514,2.0514,2.0339,2.0098,2.0134,2.0215,2.0332,2.0449,2.0553,2.0594,2.0579,2.0527,2.0505,2.0492,2.0951,2.1364,2.1333,2.2182,2.3154,2.3717,2.36,2.3678,2.4547,2.4702,2.4818,2.5135,2.5426,0.0,0.0,0.0,2.4832,2.5176,2.3951,2.3649,2.504,2.3378,0.0,0.0,0.0,0.0,0.0,0.0,0.0,0.0,2.5593,0.0,2.6526,2.7107,2.7539,2.7812,2.7869,2.8024,2.83,2.8593,2.9199,3.0098,3.1562,3.2344,3.2734,3.4766,3.5078,3.4394,3.5547,3.582,3.5625,3.5898,3.5428,3.4578,2.3501,2.3183,2.3045,2.3045,2.3045,2.284,2.2265,2.2411,2.2304,2.1353,2.1199,2.1419,2.2035,2.1637,0.0,2.1062,2.1385,2.1616,2.1664,2.2296,2.274,2.2799,2.329,2.3566,2.3538,2.3193,0.0,2.3345,2.3584,2.4194,2.5159,2.5255,2.5371,2.5502,2.5577,2.5052,2.4156,2.4104,2.3925,2.3631,2.3566,2.3816,2.4061,2.274,2.2591,2.2901,2.1555,2.1254,2.1463,2.1463,2.1066,2.0595,2.0595,2.0462,2.0327,2.0405,2.0503,2.0593,2.0593,2.0798,2.0996,2.0993,2.1637,2.2356,2.262,2.3592,2.4374,2.4033,2.4247,2.4519,2.4746,2.478,2.498,2.5504,2.5595,2.5595,2.5595,0.0,2.4824,0.0,0.0,0.0,0.0,2.4096,2.3681,0.0,0.0,0.0,0.0,0.0,0.0,2.4713,2.6115,2.685,2.6865,2.8086,2.8846,2.9139,2.9569,2.9589,2.9297,2.9629,3.0059,3.0644,3.2051,3.2656,3.2773,3.4375,3.4902,3.4746,3.5293,3.5703,3.5957,3.5625,3.5175,3.4624,2.3564,2.3424,2.3458,0.0,2.3826,0.0,2.3145,2.3826,2.3646,2.144,2.2339,2.2918,2.2094,2.2159,2.2309,2.2559,0.0,0.0,0.0,2.2618,2.2889,2.3275,2.3422,2.3538,2.361,2.3581,2.3839,2.4426,2.5114,2.5779,2.6453,2.6572,2.6563,2.6406,2.6602,2.6056,2.5041,2.4843,2.4559,2.4243,2.4042,2.4067,2.4116,2.3382,2.3177,2.318,2.238,2.2253,2.25,2.25,2.2037,2.1483,2.1483,2.102,2.0471,2.0413,2.0499,2.0612,2.0671,2.1226,2.1816,2.1797,2.2506,2.3412,2.4286,2.574,2.6684,2.5931,2.6423,2.672,2.5834,2.5673,2.5679,2.5621,2.5609,2.5596,2.5596,0.0,2.5124,0.0,0.0,0.0,2.4282,2.4277,2.4295,0.0,0.0,0.0,0.0,0.0,2.4878,2.557,2.6493,2.6992,2.7065,2.8725,2.9954,3.0726,3.1656,3.168,3.0937,3.1738,3.2148,3.2246,3.3047,3.3398,3.3418,3.3535,3.4023,3.4707,3.4766,3.5293,3.5898,3.5098,3.482,3.4866,0.0,0.0,2.3205,2.3646,2.3376,2.328,2.3877,2.3737,2.3615,2.3902,2.3535,2.3482,2.4049,2.3126,2.2756,2.3517,2.2912,2.2463,2.2417,2.2859,2.3142,2.3171,2.3378,2.3509,2.3538,2.3824,2.4502,2.5594,2.5779,2.621,2.6923,2.6973,2.7109,2.7373,2.742,2.7073,2.6509,2.644,2.5799,2.4878,2.5415,2.5069,2.4171,2.3988,2.4008,2.4016,2.3198,2.312,2.3386,2.3386,2.2901,2.2314,2.2314,2.2301,2.2159,2.1481,2.0959,2.073,2.1349,2.1686,2.1869,2.1816,2.2912,2.4408,2.5868,2.654,2.6948,2.7399,2.7678,2.7549,2.6683,2.6528,2.6314,2.5699,2.5602,2.5577,2.5525,2.4943,2.4677,0.0,2.4605,2.4447,2.5056,2.512,2.5136,0.0,0.0,0.0,2.6184,2.6738,2.6845,2.6428,2.7918,2.9029,2.9694,3.0134,3.0482,3.0777,3.1071,3.1094,3.0918,3.1113,3.1562,3.2246,3.3047,3.3398,3.3496,3.4844,3.5117,3.4766,3.543,3.582,3.5976,3.5762,3.6113,3.6599,2.4902,2.4641,2.4576,2.4585,2.4267,2.4062,2.4326,2.4464,2.4436,2.4207,2.4305,2.4586,2.4927,2.4219,2.3897,2.4422,2.3378,2.2706,2.2706,2.3098,2.3275,2.329,2.3422,2.3596,2.3839,2.4036,2.4728,2.6013,2.6137,2.6504,2.7055,2.7023,2.7307,2.7829,2.7829,2.7665,2.7381,2.7381,2.6745,2.5761,2.622,2.5719,2.474,2.474,2.4672,2.447,2.4038,2.4101,2.4397,2.4397,2.3843,2.3193,2.3193,2.3035,2.2832,2.275,2.2275,2.1832,2.2281,2.2713,2.3132,2.3496,2.4547,2.5625,2.6126,2.7154,2.7898,2.7566,2.8129,2.8427,2.7554,2.707,2.6655,2.6216,2.5815,2.5536,2.5456,2.5054,2.4923,2.541,2.571,2.5914,2.5936,2.7025,2.7575,2.7217,2.7971,0.0,2.7931,2.8637,2.8541,2.7331,2.8568,2.9477,2.996,3.0815,3.1286,3.14,3.1464,3.1289,3.0898,3.0898,3.1387,3.2226,3.2656,3.3066,3.3476,3.4414,3.4766,3.4746,3.5215,3.5644,3.5957,3.5547,3.6211,3.7187,2.6007,2.6148,2.6175,2.5826,2.5563,2.5287,2.4829,2.5542,2.5514,2.4017,2.5066,2.5777,2.5377,2.5284,2.5209,2.5154,2.362,2.2807,2.3097,2.3275,2.3451,2.3581,2.3668,2.3909,2.4385,2.4313,2.4887,2.6085,2.6399,2.6708,2.7105,2.704,2.74,2.8093,2.8093,2.8052,2.797,2.797,2.7512,2.6796,2.6924,2.641,2.5605,2.5733,2.5468,2.5064,2.4933,2.5102,2.5363,2.5249,2.4713,2.4129,2.4255,2.3784,2.3366,2.4229,2.4011,2.3452,2.3325,2.384,2.4614,2.5488,2.6212,2.6563,2.5952,2.7464,2.865,2.7443,2.8361,2.9164,2.8412,2.7679,2.709,2.6839,2.6184,2.5666,2.5603,0.0,2.579,2.5793,2.7152,2.7759,2.6892,2.8801,2.9863,2.9255,2.9892,3.0027,2.9428,3.0104,2.9853,2.8415,2.9033,2.939,2.9409,3.1109,3.1953,3.1908,3.1952,3.1601,3.0898,3.1035,3.1562,3.2383,3.2519,3.3047,3.3789,3.3789,3.4238,3.4902,3.4902,3.5351,3.5937,3.5312,3.6113,3.7402,2.7328,2.6588,2.6004,2.6312,2.5837,2.5659,2.6477,2.6215,2.5986,2.6242,2.6457,2.6468,2.5937,2.5856,2.5692,2.5295,2.4417,2.362,2.3111,2.3523,2.3852,2.3994,2.4338,2.4608,2.4784,2.5121,2.5668,2.6503,2.6572,2.6908,2.7522,2.7491,2.784,2.8525,2.8525,2.8621,2.8815,2.8815,2.8356,2.7658,2.8356,2.775,2.6484,2.7163,2.7136,2.6641,2.5949,2.592,2.6097,2.544,2.5115,2.5126,2.586,2.5591,2.5174,2.6047,2.5777,2.506,2.4378,2.4297,2.4617,2.5485,2.5781,2.6028,2.6566,2.6958,2.755,2.8751,2.9177,2.9263,2.9135,2.9007,2.8446,2.7032,2.6684,2.6579,2.6508,0.0,2.7604,2.7594,2.8425,2.8666,2.7779,2.8068,2.8589,2.9245,2.9361,2.966,3.0279,3.0432,3.0374,3.0124,3.023,3.0335,3.0384,3.14,3.1612,3.1002,3.1014,3.0976,3.0918,3.166,3.2441,3.3242,3.3984,3.4805,3.5605,3.5605,3.5684,3.5801,3.5801,3.5879,3.6074,3.668,3.7539,3.8476,2.8398,2.7792,2.7166,2.6899,2.6472,2.6312,2.6832,2.6621,2.65,2.6779,2.6779,2.6715,2.6462,2.6484,2.6373,2.6039,2.5369,2.4806,2.4413,2.4091,2.4048,2.4451,2.4704,2.4926,2.5198,2.5647,2.6082,2.6469,2.664,2.6989,2.7487,2.7595,2.8,2.8601,2.8533,2.8676,2.8994,2.8994,2.8846,2.8627,2.9061,2.8589,2.7662,2.8035,2.7824,2.7203,2.6355,2.6534,2.7036,2.6239,2.6269,2.6721,2.7127,2.7016,2.6834,2.7276,2.656,2.5636,2.5759,2.5805,2.6013,2.6887,2.6716,2.6562,2.7407,2.7586,2.79,2.9099,2.969,2.9979,2.995,2.9554,2.8994,2.8277,2.7755,0.0,2.799,2.8028,2.8154,2.8589,2.9381,2.9564,2.8734,2.9902,3.0685,3.0637,3.1052,3.1264,3.1197,3.1207,3.0994,3.0579,3.055,3.0569,3.0588,3.1041,3.134,3.1506,3.1981,3.2461,3.2969,3.3359,3.4258,3.5508,3.543,3.6152,3.7402,3.7402,3.7402,3.7402,3.7402,3.7402,3.7441,3.7851,3.8555,3.9355,2.9235,2.8788,2.8225,2.7461,2.713,2.6937,2.6832,2.6832,2.6779,2.6779,2.6779,2.6774,2.6769,2.6858,2.6831,2.6617,2.6182,2.5832,2.5633,2.4905,2.4616,2.495,2.5114,2.5346,2.5684,2.6082,2.6382,2.6556,2.6825,2.7195,2.7636,2.78,2.8165,2.8694,2.8583,2.8755,2.9093,2.9067,2.9185,2.9397,2.9418,2.9157,2.8768,2.8751,2.8468,2.7965,2.7086,2.7332,2.7965,2.7157,2.7332,2.793,2.8153,2.8086,2.797,2.8251,2.731,2.637,2.7097,2.7302,2.7461,2.8139,2.7908,2.7656,2.8125,2.8369,2.8727,2.9478,2.9989,3.0393,3.0742,3.0095,2.9516,2.9574,0.0,2.8589,0.0,2.8994,2.882,2.9438,3.0269,3.0472,2.9661,3.1352,3.2232,3.1545,3.2125,3.2212,3.1536,3.1497,3.1226,3.0617,3.0598,3.0694,3.0907,3.1144,3.1747,3.2686,3.3567,3.4349,3.5019,3.5215,3.6035,3.7266,3.6816,3.7363,3.8594,3.8594,3.8594,3.8594,3.8594,3.8594,3.8613,3.8828,3.9336,3.9922,2.9588,2.9036,2.8262,2.7855,2.7625,2.7437,2.7055,2.6899,2.6779,2.6779,2.6779,2.6806,2.6692,2.6729,2.6697,2.6636,2.6645,2.6448,2.6066,2.6198,2.5997,2.5371,2.586,2.6132,2.6132,2.6469,2.6775,2.6973,2.7293,2.776,2.8317,2.8344,2.8569,2.897,2.8952,2.9119,2.9378,2.9233,2.9377,2.9661,2.9551,2.9551,2.9602,2.9532,2.9635,2.9688,2.8761,2.8632,2.879,2.7984,2.78,2.8056,2.8926,2.8647,2.8155,2.9033,2.8681,2.8035,2.8175,2.8203,2.8223,2.8281,2.8848,2.9219,2.8457,2.8867,2.9623,3.0419,2.9956,2.9877,3.1418,3.0984,3.0414,3.0414,0.0,0.0,3.0366,3.0462,3.0424,3.0492,3.1207,3.1352,3.0501,3.0637,3.0733,3.0606,3.0665,3.0656,3.0598,3.0598,3.0608,3.0598,3.0598,3.0984,3.1797,3.2618,3.3492,3.4431,3.5301,3.5786,3.5937,3.6738,3.7187,3.7344,3.8086,3.8476,3.8594,3.8594,3.8594,3.8594,3.8594,3.8594,3.8691,3.9512,3.9844,4.0019,3.0795,2.9627,2.8388,2.8333,2.7742,2.7233,2.6937,2.6832,2.6922,2.7188,2.724,2.719,2.7035,2.7006,2.7226,2.7723,2.7381,2.74,2.8086,2.7465,2.6714,2.593,2.6096,2.622,2.622,2.6538,2.6725,2.6791,2.7369,2.7771,2.811,2.837,2.8662,2.8881,2.9048,2.9166,2.9275,2.9355,2.9532,2.9748,2.9746,2.9896,3.0128,3.0075,3.0118,3.0132,2.9172,2.9283,2.974,2.894,2.907,2.9641,2.9989,2.9873,2.9709,3.0144,3.0072,2.9881,2.9915,2.9512,2.9238,2.9785,2.9746,2.9805,3.0547,3.0547,3.0739,3.1997,3.1975,3.1899,3.2491,3.2336,3.2115,3.2106,0.0,3.1971,3.2822,3.2038,3.1545,3.2086,3.1467,3.0858,3.0539,3.053,3.053,3.0509,3.0993,3.1312,3.1312,3.1303,3.1313,3.1332,3.1342,3.1768,3.2696,3.3616,3.4789,3.6211,3.6584,3.7348,3.8418,3.8203,3.8691,3.9707,3.9492,3.9707,4.0215,4.0215,4.0215,4.0215,4.0215,4.0215,4.0254,4.0586,4.0703,4.0742,3.1071,3.0058,2.894,2.8936,2.8516,2.7971,2.7458,2.7464,2.7685,2.8,2.8048,2.798,2.7762,2.779,2.7961,2.8452,2.8103,2.8122,2.8749,2.7824,2.6972,2.638,2.6345,2.6364,2.6521,2.6825,2.6971,2.7004,2.7582,2.7933,2.8055,2.844,2.8808,2.9174,2.9507,2.9832,3.0122,3.0018,3.0111,3.0307,3.006,3.03,3.0802,3.0714,3.074,3.0725,3.003,3.0037,3.0314,2.9762,3.0037,3.0656,3.0955,3.1072,3.1112,3.1204,3.1084,3.0906,3.0895,3.0469,3.0156,3.0742,3.0664,3.0664,3.1582,3.1543,3.1598,3.261,3.2807,3.2847,3.3051,3.31,3.3177,3.3439,3.3256,3.3402,3.4272,3.314,3.2327,3.2656,3.163,3.0914,3.0914,3.0914,3.1011,3.127,3.1862,3.2211,3.2211,3.2202,3.2212,3.2222,3.2464,3.3073,3.3972,3.4651,3.5714,3.7179,3.7538,3.8476,3.9883,3.9277,3.9805,4.1172,4.0566,4.0644,4.1191,4.1191,4.1191,4.1191,4.1191,4.1191,4.1191,4.1191,4.1191,4.1191,3.0101,3.0244,3.0084,2.971,2.9957,2.9848,2.8779,2.8993,2.9294,2.9294,2.9294,2.9215,2.9017,2.9034,2.8876,2.8543,2.8703,2.8457,2.7593,2.7131,2.6856,2.6725,2.664,2.6809,2.7198,2.7478,2.7659,2.7719,2.8042,2.8282,2.8424,2.8554,2.9123,3.0038,3.0424,3.1196,3.2147,3.1354,3.12,3.1435,3.0486,3.0762,3.1698,3.156,3.1583,3.1679,3.1541,3.1033,3.0398,3.0398,3.0507,3.0772,3.1719,3.2104,3.2202,3.2198,3.1583,3.0898,3.0898,3.0898,3.0898,3.0898,3.1543,3.1973,3.1113,3.1582,3.2165,3.2038,3.1961,3.216,3.2954,3.31,3.3371,3.4171,3.3633,3.3421,3.4292,3.3654,3.2792,3.1902,3.1806,3.1815,3.1802,3.1804,3.2132,3.2941,3.3079,3.3119,3.3119,3.3111,3.3102,3.3102,3.3944,3.4814,3.5684,3.5762,3.625,3.7122,3.8116,3.9043,3.9883,3.9883,4.0371,4.1191,4.1191,4.1191,4.1191,4.1191,4.1191,4.1191,4.1191,4.1191,4.1191,4.1191,4.1191,4.1191,3.2504,3.221,3.1906,3.2095,3.1289,3.0424,2.9924,2.9553,2.9444,2.9827,2.987,2.9796,2.9586,2.9559,2.9577,2.9702,2.9759,2.9785,2.9744,2.9025,2.849,2.8247,2.7991,2.7925,2.8056,2.8847,2.9299,2.9299,2.9668,2.9815,2.9873,3.0014,3.0369,3.0943,3.1265,3.174,3.226,3.2158,3.2181,3.2252,3.1958,3.2135,3.2532,3.2383,3.2081,3.1679,3.1541,3.141,3.1306,3.1306,3.181,3.2493,3.2861,3.2611,3.2207,3.219,3.1574,3.0898,3.0898,3.0898,3.0898,3.0898,3.1094,3.1387,3.1738,3.2012,3.2341,3.2803,3.2893,3.2929,3.3063,3.3102,3.3392,3.4223,3.4176,3.4311,3.5182,3.4533,3.3611,3.2759,3.2643,3.24,3.1788,3.2273,3.2728,3.2968,3.36,3.3939,3.3939,3.3991,3.3991,3.3931,3.4243,3.4814,3.5684,3.6372,3.7162,3.8007,3.7782,3.8144,3.8984,3.8984,3.9453,4.0312,4.0937,4.1191,4.1191,4.1191,4.1191,4.1191,4.1191,4.1191,4.1191,4.1191,4.1191,4.1191,3.3607,3.3375,3.3086,3.3376,3.2776,3.2083,3.1654,3.1374,3.1224,3.1223,3.1189,3.1059,3.0658,3.0708,3.0839,3.0969,3.0783,3.063,3.0557,3.0051,2.9659,2.9549,2.9628,2.9429,2.8802,2.9708,3.0234,3.0416,3.061,3.0754,3.0857,3.0993,3.136,3.1918,3.2303,3.2763,3.3242,3.3158,3.3124,3.3115,3.2756,3.2919,3.3397,3.3264,3.3001,3.2679,3.2579,3.2377,3.2172,3.2235,3.2916,3.3819,3.4283,3.3858,3.332,3.4004,3.3105,3.2031,3.2734,3.2676,3.248,3.2832,3.1894,3.1133,3.1992,3.1934,3.1989,3.3087,3.3301,3.3364,3.3576,3.3615,3.3789,3.4311,3.4098,3.4195,3.5065,3.4397,3.3757,3.3531,3.3222,3.296,3.2756,3.3191,3.3666,3.4036,3.4569,3.485,3.485,3.4881,3.4911,3.487,3.4881,3.5162,3.5684,3.6256,3.6823,3.7364,3.6942,3.7226,3.8086,3.8086,3.8555,3.9434,4.0312,4.0684,4.0703,4.1055,4.1191,4.1191,4.1191,4.1191,4.1191,4.1191,4.119,4.1207,3.3806,3.3972,3.4022,3.4022,3.4253,3.4261,3.3643,3.3853,3.3835,3.3093,3.2938,3.2645,3.1992,3.2161,3.2283,3.2249,3.1817,3.1239,3.0566,3.0503,3.0558,3.0618,3.1314,3.1046,2.9637,3.0273,3.0825,3.1193,3.1193,3.1336,3.1624,3.174,3.2218,3.2945,3.3398,3.3996,3.4696,3.4219,3.405,3.4009,3.3157,3.3432,3.4301,3.4159,3.4146,3.4199,3.4131,3.3646,3.3089,3.3373,3.4079,3.5005,3.5945,3.5586,3.5137,3.6816,3.5566,3.3984,3.5566,3.543,3.5019,3.5801,3.3652,3.1543,3.2266,3.1816,3.1656,3.3112,3.3405,3.3624,3.4369,3.4447,3.4427,3.4505,3.3789,3.3518,3.4389,3.3828,3.3566,3.4221,3.3738,3.3603,3.4248,3.4364,3.4762,3.5646,3.5762,3.582,3.58,3.5878,3.5897,3.58,3.58,3.5762,3.5704,3.5704,3.5727,3.5794,3.5947,3.6426,3.7187,3.7344,3.7812,3.8535,3.9492,3.9902,3.9961,4.084,4.1191,4.1191,4.1191,4.1191,4.1191,4.1191,4.1187,4.1189,3.5,3.5335,3.5745,3.5745,3.5351,3.4988,3.4833,3.4416,3.4024,3.3852,3.3283,3.2948,3.3052,3.2599,3.2403,3.2651,3.2624,3.2513,3.2353,3.1702,3.1364,3.1439,3.1555,3.1484,3.1207,3.1956,3.2504,3.2795,3.2795,3.2984,3.3283,3.3327,3.3573,3.3966,3.4136,3.4463,3.487,3.4902,3.4897,3.4842,3.4699,3.4849,3.5124,3.5047,3.4716,3.4275,3.4212,3.4129,3.4306,3.5797,3.6461,3.6803,3.7741,3.6973,3.5937,3.6992,3.6426,3.5527,3.5898,3.5859,3.5762,3.5957,3.5449,3.4766,3.4277,3.4004,3.3941,3.4194,3.4244,3.448,3.5278,3.4853,3.4621,3.5298,3.4679,3.4408,3.5298,3.5259,3.4919,3.4375,3.4792,3.4928,3.4361,3.4909,3.5415,3.5684,3.6281,3.6648,3.6651,3.729,3.7348,3.6651,3.6632,3.6342,3.5704,3.5704,3.5736,3.5805,3.6554,3.6699,3.6328,3.7695,3.8047,3.7676,3.9238,3.9902,3.9961,4.084,4.1191,4.1191,4.1191,4.1169,4.1119,4.1119,4.1121,4.1123,3.5801,3.6042,3.6301,3.6301,3.5973,3.5714,3.5714,3.5573,3.531,3.4944,3.4716,3.4339,3.3757,3.3484,3.3319,3.319,3.3147,3.3104,3.2993,3.2509,3.2246,3.2259,3.2246,3.2291,3.2469,3.2901,3.325,3.3522,3.3689,3.3884,3.4173,3.4173,3.4269,3.445,3.4542,3.4691,3.487,3.502,3.5092,3.5092,3.5145,3.5242,3.5398,3.532,3.5369,3.5495,3.5477,3.5591,3.5952,3.7351,3.7294,3.686,3.8179,3.7695,3.6875,3.8164,3.793,3.7422,3.8242,3.8184,3.7969,3.8379,3.8476,3.8027,3.6328,3.5597,3.5476,3.6216,3.5999,3.5948,3.6737,3.6187,3.5742,3.6207,3.5568,3.5298,3.6149,3.5936,3.582,3.6126,3.6234,3.6079,3.5589,3.5944,3.6052,3.5678,3.6431,3.6907,3.6899,3.7336,3.7367,3.6903,3.6903,3.6709,3.6284,3.6265,3.6334,3.6422,3.6504,3.6358,3.6035,3.6934,3.7344,3.7363,3.8691,3.9512,3.9961,4.084,4.1191,4.1191,4.1169,4.1121,4.1108,4.1108,4.1094,4.1099,3.6301,3.6385,3.6426,3.6409,3.6451,3.6492,3.6492,3.6781,3.6788,3.6154,3.6256,3.5933,3.4625,3.4695,3.4557,3.386,3.368,3.3533,3.3363,3.3208,3.3184,3.3341,3.3248,3.3283,3.349,3.3462,3.3606,3.3868,3.4099,3.434,3.4602,3.4602,3.4602,3.4602,3.4727,3.479,3.4792,3.5097,3.5248,3.5303,3.5491,3.5665,3.582,3.578,3.6286,3.7063,3.7121,3.7363,3.7771,3.8491,3.782,3.6914,3.8379,3.8223,3.7832,3.9434,3.9277,3.8945,4.0547,4.0449,4.0078,4.0801,4.1094,4.0625,3.8457,3.7131,3.6729,3.8124,3.7764,3.7467,3.8264,3.7831,3.7348,3.7348,3.6651,3.6361,3.7038,3.6555,3.6632,3.8025,3.7537,3.71,3.7083,3.6935,3.6556,3.5849,3.6575,3.7083,3.7095,3.7371,3.7472,3.7348,3.7348,3.727,3.7116,3.7116,3.7262,3.7528,3.6669,3.6231,3.623,3.6387,3.6836,3.7578,3.8437,3.9238,3.9961,4.0838,4.119,4.1171,4.1121,4.1091,4.1108,4.1108,4.1108,4.1108,3.636,3.6655,3.6974,3.6838,3.7132,3.7358,3.7358,3.7377,3.7396,3.729,3.6774,3.6414,3.6501,3.6249,3.5685,3.4728,3.4527,3.4407,3.4407,3.4114,3.4288,3.5098,3.4578,3.4292,3.4322,3.4173,3.408,3.4148,3.4173,3.434,3.4602,3.4602,3.4602,3.4583,3.4666,3.4708,3.4785,3.5723,3.6103,3.6122,3.6993,3.7417,3.7563,3.7613,3.7789,3.8032,3.8102,3.8698,3.9481,3.9653,3.9569,3.9414,3.9648,3.9121,3.8613,3.9609,3.9277,3.8828,3.9805,3.998,3.9922,4.0059,4.0644,4.1113,4.0742,3.9363,3.8194,3.838,3.8249,3.838,3.9185,3.9224,3.9146,3.9146,3.8411,3.7909,3.8005,3.7928,3.7947,3.8179,3.7977,3.7852,3.7849,3.7117,3.6618,3.6559,3.73,3.781,3.7939,3.9309,3.9799,3.9166,3.9146,3.8779,3.8025,3.8025,3.8473,3.9331,3.8454,3.7718,3.7148,3.7891,3.8301,3.8476,3.9355,3.9785,3.9961,4.0781,4.1105,4.1116,4.1103,4.1099,4.1108,4.1108,4.1108,4.1108,3.6678,3.7034,3.7283,3.7246,3.7395,3.7505,3.7505,3.7685,3.7844,3.7844,3.7727,3.7562,3.7283,3.6673,3.6109,3.5685,3.5483,3.5447,3.5585,3.541,3.5508,3.6083,3.5837,3.5735,3.5895,3.5733,3.5754,3.595,3.5408,3.545,3.5991,3.5991,3.5991,3.5991,3.6036,3.6058,3.6139,3.6647,3.686,3.6918,3.7433,3.7764,3.7909,3.7967,3.8411,3.905,3.9661,3.9868,3.993,4.0446,3.998,3.9258,3.9746,3.9648,3.9492,4.0371,4.0664,4.0801,4.1191,4.1641,4.1797,4.0859,4.125,4.1735,4.1259,4.012,3.9295,3.9766,3.9371,3.9088,3.9417,3.9507,3.9507,3.9507,3.9591,3.9637,3.9561,3.9528,3.9534,3.9494,3.9432,3.9215,3.8712,3.8297,3.7859,3.7394,3.8159,3.8635,3.8715,3.9485,3.9744,3.9359,3.9419,3.9258,3.8872,3.9276,3.9773,4.0361,3.9454,3.8928,3.875,3.8652,3.8867,3.9355,3.9723,4.0168,4.0596,4.0941,4.1096,4.1091,4.1094,4.1101,4.1101,4.1101,4.1104,4.1108]},{"header":{"parameterUnit":"m.s-1","parameterCategory":1,"la1":30.6,"la2":28.766,"lo1":-90.7593,"lo2":-88.6598,"dy":0.0162,"dx":0.0183,"nx":116,"ny":114,"refTime":"2024-03-24T12:00:00:Z","depth":0,"parameterNumber":3,"parameterNumberName":"V-component_of_WINDS"},"data":[0.0,0.0,0.0,0.0,0.0,0.0,0.0,0.0,0.0,0.0,0.0,0.0,0.0,0.0,0.0,0.0,0.0,0.0,0.0,0.0,0.0,0.0,0.0,0.0,0.0,0.0,0.0,0.0,0.0,0.0,0.0,0.0,0.0,0.0,0.0,0.0,0.0,0.0,0.0,0.0,0.0,0.0,0.0,0.0,0.0,0.0,0.0,0.0,0.0,0.0,0.0,0.0,0.0,0.0,0.0,0.0,0.0,0.0,0.0,0.0,0.0,0.0,0.0,0.0,0.0,0.0,0.0,0.0,0.0,0.0,0.0,0.0,0.0,0.0,0.0,0.0,0.0,0.0,0.0,0.0,0.0,0.0,0.0,0.0,0.0,0.0,0.0,0.0,0.0,0.0,0.0,0.0,0.0,0.0,0.0,0.0,0.0,0.0,0.0,0.0,0.0,0.0,0.0,0.0,0.0,0.0,0.0,0.0,0.0,0.0,0.0,0.0,0.0,0.0,0.0,0.0,0.0,0.0,0.0,0.0,0.0,0.0,0.0,0.0,0.0,0.0,0.0,0.0,0.0,0.0,0.0,0.0,0.0,0.0,0.0,0.0,0.0,0.0,0.0,0.0,0.0,0.0,0.0,0.0,0.0,0.0,0.0,0.0,0.0,0.0,0.0,0.0,0.0,0.0,0.0,0.0,0.0,0.0,0.0,0.0,0.0,0.0,0.0,0.0,0.0,0.0,0.0,0.0,0.0,0.0,0.0,0.0,0.0,0.0,0.0,0.0,0.0,0.0,0.0,0.0,0.0,0.0,0.0,0.0,0.0,0.0,0.0,0.0,0.0,0.0,0.0,0.0,0.0,0.0,0.0,0.0,0.0,0.0,0.0,0.0,0.0,0.0,0.0,0.0,0.0,0.0,0.0,0.0,0.0,0.0,0.0,0.0,0.0,0.0,0.0,0.0,0.0,0.0,0.0,0.0,0.0,0.0,0.0,0.0,0.0,0.0,0.0,0.0,0.0,0.0,0.0,0.0,0.0,0.0,0.0,0.0,0.0,0.0,0.0,0.0,0.0,0.0,0.0,0.0,0.0,0.0,0.0,0.0,0.0,0.0,0.0,0.0,0.0,0.0,0.0,0.0,0.0,0.0,0.0,0.0,0.0,0.0,0.0,0.0,0.0,0.0,0.0,0.0,0.0,0.0,0.0,0.0,0.0,0.0,0.0,0.0,0.0,0.0,0.0,0.0,0.0,0.0,0.0,0.0,0.0,0.0,0.0,0.0,0.0,0.0,0.0,0.0,0.0,0.0,0.0,0.0,0.0,0.0,0.0,0.0,0.0,0.0,0.0,0.0,0.0,0.0,0.0,0.0,0.0,0.0,0.0,0.0,0.0,0.0,0.0,0.0,0.0,0.0,0.0,0.0,0.0,0.0,0.0,0.0,0.0,0.0,0.0,0.0,0.0,0.0,0.0,0.0,0.0,0.0,0.0,0.0,0.0,0.0,0.0,0.0,0.0,0.0,0.0,0.0,0.0,0.0,0.0,0.0,0.0,0.0,0.0,0.0,0.0,0.0,0.0,0.0,0.0,0.0,0.0,0.0,0.0,0.0,0.0,0.0,0.0,0.0,0.0,0.0,0.0,0.0,0.0,0.0,0.0,0.0,0.0,0.0,0.0,0.0,0.0,0.0,0.0,0.0,0.0,0.0,0.0,0.0,0.0,0.0,0.0,0.0,0.0,0.0,0.0,0.0,0.0,0.0,0.0,0.0,0.0,0.0,0.0,0.0,0.0,0.0,0.0,0.0,0.0,0.0,0.0,0.0,0.0,0.0,0.0,0.0,0.0,0.0,0.0,0.0,0.0,0.0,0.0,0.0,0.0,0.0,0.0,0.0,0.0,0.0,0.0,0.0,0.0,0.0,0.0,0.0,0.0,0.0,0.0,0.0,0.0,0.0,0.0,0.0,0.0,0.0,0.0,0.0,0.0,0.0,0.0,0.0,0.0,0.0,0.0,0.0,0.0,0.0,0.0,0.0,0.0,0.0,0.0,0.0,0.0,0.0,0.0,0.0,0.0,0.0,0.0,0.0,0.0,0.0,0.0,0.0,0.0,0.0,0.0,0.0,0.0,0.0,0.0,0.0,0.0,0.0,0.0,0.0,0.0,0.0,0.0,0.0,0.0,0.0,0.0,0.0,0.0,0.0,0.0,0.0,0.0,0.0,0.0,0.0,0.0,0.0,0.0,0.0,0.0,0.0,0.0,0.0,0.0,0.0,0.0,0.0,0.0,0.0,0.0,0.0,0.0,0.0,0.0,0.0,0.0,0.0,0.0,0.0,0.0,0.0,0.0,0.0,0.0,0.0,0.0,0.0,0.0,0.0,0.0,0.0,0.0,0.0,0.0,0.0,0.0,0.0,0.0,0.0,0.0,0.0,0.0,0.0,0.0,0.0,0.0,0.0,0.0,0.0,0.0,0.0,0.0,0.0,0.0,0.0,0.0,0.0,0.0,0.0,0.0,0.0,0.0,0.0,0.0,0.0,0.0,0.0,0.0,0.0,0.0,0.0,0.0,0.0,0.0,0.0,0.0,0.0,0.0,0.0,0.0,0.0,0.0,0.0,0.0,0.0,0.0,0.0,0.0,0.0,0.0,0.0,0.0,0.0,0.0,0.0,0.0,0.0,0.0,0.0,0.0,0.0,0.0,0.0,0.0,0.0,0.0,0.0,0.0,0.0,0.0,0.0,0.0,0.0,0.0,0.0,0.0,0.0,0.0,0.0,0.0,0.0,0.0,0.0,0.0,0.0,0.0,0.0,0.0,0.0,0.0,0.0,0.0,0.0,0.0,0.0,0.0,0.0,0.0,0.0,0.0,0.0,0.0,0.0,0.0,0.0,0.0,0.0,0.0,0.0,0.0,0.0,0.0,0.0,0.0,0.0,0.0,0.0,0.0,0.0,0.0,0.0,0.0,0.0,0.0,0.0,0.0,0.0,0.0,0.0,0.0,0.0,0.0,0.0,0.0,0.0,0.0,0.0,0.0,0.0,0.0,0.0,0.0,0.0,0.0,0.0,0.0,0.0,0.0,0.0,0.0,0.0,0.0,0.0,0.0,0.0,0.0,0.0,0.0,0.0,0.0,0.0,0.0,0.0,0.0,0.0,0.0,0.0,0.0,0.0,0.0,0.0,0.0,0.0,0.0,0.0,0.0,0.0,0.0,0.0,0.0,0.0,0.0,0.0,0.0,0.0,0.0,0.0,0.0,0.0,0.0,0.0,0.0,0.0,0.0,0.0,0.0,0.0,0.0,0.0,0.0,0.0,0.0,0.0,0.0,0.0,0.0,0.0,0.0,0.0,0.0,0.0,0.0,0.0,0.0,0.0,0.0,0.0,0.0,0.0,0.0,0.0,0.0,0.0,0.0,0.0,0.0,0.0,0.0,0.0,0.0,0.0,0.0,0.0,0.0,0.0,0.0,0.0,0.0,0.0,0.0,0.0,0.0,0.0,0.0,0.0,0.0,0.0,0.0,0.0,0.0,0.0,0.0,0.0,0.0,0.0,0.0,0.0,0.0,0.0,0.0,0.0,0.0,0.0,0.0,0.0,0.0,0.0,0.0,0.0,0.0,0.0,0.0,0.0,0.0,0.0,0.0,0.0,0.0,0.0,0.0,0.0,0.0,0.0,0.0,0.0,0.0,0.0,0.0,0.0,0.0,0.0,0.0,0.0,0.0,0.0,0.0,0.0,0.0,0.0,0.0,0.0,0.0,0.0,0.0,0.0,0.0,0.0,0.0,0.0,0.0,0.0,0.0,0.0,0.0,0.0,0.0,0.0,0.0,0.0,0.0,0.0,0.0,0.0,0.0,0.0,0.0,0.0,0.0,0.0,0.0,0.0,0.0,0.0,0.0,0.0,0.0,0.0,0.0,0.0,0.0,0.0,0.0,0.0,0.0,0.0,0.0,0.0,0.0,0.0,0.0,0.0,0.0,0.0,0.0,0.0,0.0,0.0,0.0,0.0,0.0,0.0,0.0,0.0,0.0,0.0,0.0,0.0,0.0,0.0,0.0,0.0,0.0,0.0,0.0,0.0,0.0,0.0,0.0,0.0,0.0,0.0,0.0,0.0,0.0,0.0,0.0,0.0,0.0,0.0,0.0,0.0,0.0,0.0,0.0,0.0,0.0,0.0,0.0,0.0,0.0,0.0,0.0,0.0,0.0,0.0,0.0,0.0,0.0,0.0,0.0,0.0,0.0,0.0,0.0,0.0,0.0,0.0,0.0,0.0,0.0,0.0,0.0,0.0,0.0,0.0,0.0,0.0,0.0,0.0,0.0,0.0,0.0,0.0,0.0,0.0,0.0,0.0,0.0,0.0,0.0,0.0,0.0,0.0,0.0,0.0,0.0,0.0,0.0,0.0,0.0,0.0,0.0,0.0,0.0,0.0,0.0,0.0,0.0,0.0,0.0,0.0,0.0,0.0,0.0,0.0,0.0,0.0,0.0,0.0,0.0,0.0,0.0,0.0,0.0,0.0,0.0,0.0,0.0,0.0,0.0,0.0,0.0,0.0,0.0,0.0,0.0,0.0,0.0,0.0,0.0,0.0,0.0,0.0,0.0,0.0,0.0,0.0,0.0,0.0,0.0,0.0,0.0,0.0,0.0,0.0,0.0,0.0,0.0,0.0,0.0,0.0,0.0,0.0,0.0,0.0,0.0,0.0,0.0,0.0,0.0,0.0,0.0,0.0,0.0,0.0,0.0,0.0,0.0,0.0,0.0,0.0,0.0,0.0,0.0,0.0,0.0,0.0,0.0,0.0,0.0,0.0,0.0,0.0,0.0,0.0,0.0,0.0,0.0,0.0,0.0,0.0,0.0,0.0,0.0,0.0,0.0,0.0,0.0,0.0,0.0,0.0,0.0,0.0,0.0,0.0,0.0,0.0,0.0,0.0,0.0,0.0,0.0,0.0,0.0,0.0,0.0,0.0,0.0,0.0,0.0,0.0,0.0,0.0,0.0,0.0,0.0,0.0,0.0,0.0,0.0,0.0,0.0,0.0,0.0,0.0,0.0,0.0,0.0,0.0,0.0,0.0,0.0,0.0,0.0,0.0,0.0,0.0,0.0,0.0,0.0,0.0,0.0,0.0,0.0,0.0,0.0,0.0,0.0,0.0,0.0,0.0,0.0,0.0,0.0,0.0,0.0,0.0,0.0,0.0,0.0,0.0,0.0,0.0,0.0,0.0,0.0,0.0,0.0,0.0,0.0,0.0,0.0,0.0,0.0,0.0,0.0,0.0,0.0,0.0,0.0,0.0,0.0,0.0,0.0,0.0,0.0,0.0,0.0,0.0,0.0,0.0,0.0,0.0,0.0,0.0,0.0,0.0,0.0,0.0,0.0,0.0,0.0,0.0,0.0,0.0,0.0,0.0,0.0,0.0,0.0,0.0,0.0,0.0,0.0,0.0,0.0,0.0,0.0,0.0,0.0,0.0,0.0,0.0,0.0,0.0,0.0,0.0,0.0,0.0,0.0,0.0,0.0,0.0,0.0,0.0,0.0,0.0,0.0,0.0,0.0,0.0,0.0,0.0,0.0,0.0,0.0,0.0,0.0,0.0,0.0,0.0,0.0,0.0,0.0,0.0,0.0,0.0,0.0,0.0,0.0,0.0,0.0,0.0,0.0,0.0,0.0,0.0,0.0,0.0,0.0,0.0,0.0,0.0,0.0,0.0,0.0,0.0,0.0,0.0,0.0,0.0,0.0,0.0,0.0,0.0,0.0,0.0,0.0,0.0,0.0,0.0,0.0,0.0,0.0,0.0,0.0,0.0,0.0,0.0,0.0,0.0,0.0,0.0,0.0,0.0,0.0,0.0,0.0,0.0,0.0,0.0,0.0,0.0,0.0,0.0,0.0,0.0,0.0,0.0,0.0,0.0,0.0,0.0,0.0,0.0,0.0,0.0,0.0,0.0,0.0,0.0,0.0,0.0,0.0,0.0,0.0,0.0,0.0,0.0,0.0,0.0,0.0,0.0,0.0,0.0,0.0,0.0,0.0,0.0,0.0,0.0,0.0,0.0,0.0,0.0,0.0,0.0,0.0,0.0,0.0,0.0,0.0,0.0,-0.3063,0.0,0.0,0.0,0.0,0.0,0.0,0.0,0.0,0.0,0.0,0.0,0.0,0.0,0.0,0.0,0.0,0.0,0.0,0.0,0.0,0.0,0.0,0.0,0.0,-1.1615,-1.1844,-1.246,-1.2057,-1.2219,-1.333,-1.3637,-1.3597,-1.3231,-1.3626,-1.3497,-1.2732,-1.2659,-1.2815,-1.3151,-1.3436,-1.3769,-1.4065,-1.4172,-1.4099,-1.391,0.0,0.0,0.0,0.0,0.0,0.0,0.0,0.0,0.0,0.0,0.0,0.0,0.0,0.0,0.0,0.0,0.0,0.0,0.0,0.0,0.0,0.0,0.0,0.0,0.0,0.0,0.0,0.0,0.0,0.0,0.0,0.0,0.0,0.0,0.0,0.0,0.0,0.0,0.0,0.0,0.0,0.0,0.0,0.0,0.0,0.0,0.0,0.0,0.0,0.0,0.0,0.0,0.0,0.0,0.0,0.0,0.0,0.0,0.0,0.0,0.0,0.0,0.0,0.0,0.0,0.0,0.0,0.0,0.0,0.0,0.0,-0.3387,0.0,0.0,0.0,0.0,0.0,0.0,0.0,0.0,0.0,0.0,0.0,0.0,0.0,0.0,0.0,0.0,0.0,0.0,0.0,0.0,0.0,-1.185,-1.1954,-1.1903,-1.2291,-1.3357,-1.2485,-1.2583,-1.4284,-1.378,-1.3483,-1.3617,-1.3617,-1.3288,-1.262,-1.2724,-1.2993,-1.3418,-1.3978,-1.4754,-1.5821,-1.6583,-1.6755,-1.6332,-1.5769,0.0,0.0,0.0,0.0,0.0,0.0,0.0,0.0,0.0,0.0,0.0,0.0,0.0,0.0,0.0,0.0,0.0,0.0,0.0,0.0,0.0,0.0,0.0,0.0,0.0,0.0,0.0,0.0,0.0,0.0,0.0,0.0,0.0,0.0,0.0,0.0,0.0,0.0,0.0,0.0,0.0,0.0,0.0,0.0,0.0,0.0,0.0,0.0,0.0,0.0,0.0,0.0,0.0,0.0,0.0,0.0,0.0,0.0,0.0,0.0,0.0,0.0,0.0,-0.4105,-0.4072,-0.3833,-0.385,-0.4112,-0.4578,-0.4298,-0.4269,-0.4375,-0.3727,0.0,0.0,0.0,0.0,0.0,0.0,0.0,0.0,0.0,0.0,0.0,0.0,0.0,0.0,0.0,0.0,0.0,0.0,0.0,-1.2384,-1.3027,-1.2939,-1.3161,-1.4022,-1.342,-1.314,-1.354,-1.3039,-1.279,-1.2937,-1.2883,-1.2761,-1.2591,-1.3231,-1.3531,-1.3498,-1.5739,-1.7669,-1.9353,-1.9794,-2.01,-2.0102,-1.7,-1.5816,-1.6138,0.0,0.0,0.0,0.0,0.0,0.0,0.0,0.0,0.0,0.0,0.0,0.0,0.0,0.0,0.0,0.0,0.0,0.0,0.0,0.0,0.0,0.0,0.0,0.0,0.0,0.0,0.0,0.0,0.0,0.0,0.0,0.0,0.0,0.0,0.0,0.0,0.0,0.0,0.0,0.0,0.0,-1.2952,-1.1531,0.0,0.0,0.0,0.0,0.0,0.0,0.0,0.0,0.0,0.0,0.0,0.0,0.0,-0.4255,-0.5723,-0.5203,-0.5333,-0.6145,-0.5965,-0.5895,-0.5908,-0.5736,-0.5547,-0.5349,-0.5543,0.0,-0.4481,-0.4431,0.0,0.0,0.0,0.0,0.0,0.0,0.0,0.0,0.0,0.0,0.0,0.0,0.0,0.0,0.0,0.0,0.0,0.0,0.0,0.0,0.0,-1.4332,-1.5077,-1.5876,-1.6609,-1.6271,-1.4528,-1.4961,-1.4482,-1.2641,-1.2581,-1.2736,-1.3036,-1.3368,-1.4255,-1.5686,-1.8021,-1.9622,-2.0515,-2.1143,-2.1401,-2.1233,-1.8837,-1.7436,-1.68,-1.5703,0.0,0.0,0.0,0.0,0.0,0.0,0.0,0.0,0.0,0.0,0.0,0.0,0.0,0.0,0.0,0.0,0.0,0.0,0.0,0.0,0.0,0.0,0.0,0.0,0.0,0.0,0.0,0.0,0.0,0.0,0.0,0.0,0.0,0.0,0.0,0.0,0.0,0.0,0.0,-1.3133,-1.2752,-1.1037,-1.083,-1.016,0.0,0.0,0.0,0.0,0.0,0.0,0.0,0.0,0.0,-0.5925,-0.5378,-0.5552,-0.6624,-0.6178,-0.6065,-0.6306,-0.6395,-0.624,-0.5896,-0.5957,-0.589,-0.5693,-0.5798,-0.5603,-0.5205,-0.487,-0.4199,-0.3407,0.0,0.0,0.0,0.0,-0.2697,-0.257,0.0,0.0,0.0,0.0,0.0,0.0,0.0,0.0,0.0,0.0,0.0,0.0,-1.5021,-1.6379,-1.7652,-1.8795,-1.9651,-1.9111,-1.675,-1.6592,-1.5495,-1.2983,-1.2587,-1.2712,-1.3337,-1.3992,-1.5728,-1.8575,-2.0264,-2.1402,-2.2048,-2.2637,-2.2852,-2.2746,-2.1291,-1.9778,-1.8223,-1.6778,-1.55,-1.4474,0.0,0.0,0.0,0.0,0.0,0.0,0.0,0.0,0.0,0.0,0.0,0.0,0.0,0.0,0.0,0.0,0.0,0.0,0.0,0.0,0.0,0.0,0.0,0.0,0.0,0.0,0.0,0.0,0.0,0.0,0.0,0.0,0.0,0.0,0.0,0.0,0.0,-1.2798,-1.3061,-1.0977,-1.1536,-1.1059,0.0,0.0,0.0,0.0,0.0,0.0,-0.6553,-0.6376,-0.6405,-0.6729,-0.6627,-0.6684,-0.6905,-0.6709,-0.6518,-0.6341,-0.6599,-0.6438,-0.5902,-0.6145,-0.6094,-0.5905,-0.5905,-0.5905,-0.5835,-0.5302,-0.4649,-0.4002,-0.3783,-0.3225,-0.2589,-0.281,-0.2849,-0.2765,0.0,0.0,0.0,0.0,0.0,0.0,0.0,0.0,0.0,0.0,0.0,-1.5191,-1.7715,-1.9369,-2.105,-2.304,-2.1476,-2.0379,-2.0327,-1.6635,-1.4379,-1.421,-1.2945,-1.2515,-1.3195,-1.5633,-1.8517,-2.1786,-2.2186,-2.3335,-2.5078,-2.505,-2.5402,-2.6028,-2.4475,-2.2806,-2.0855,-1.7257,-1.6512,-1.7492,-1.4537,0.0,0.0,0.0,0.0,0.0,0.0,0.0,0.0,0.0,0.0,0.0,0.0,0.0,0.0,0.0,0.0,0.0,0.0,0.0,0.0,0.0,0.0,0.0,0.0,0.0,0.0,0.0,0.0,0.0,0.0,0.0,0.0,0.0,0.0,0.0,0.0,0.0,0.0,-1.1942,-1.2186,0.0,0.0,0.0,0.0,-0.8786,-0.8489,-0.8277,-0.8286,-0.8314,-0.7948,-0.7107,-0.7363,-0.7175,-0.6446,-0.6601,-0.679,-0.6941,-0.7086,-0.7027,-0.6731,-0.681,-0.6605,-0.6176,-0.6176,-0.6137,-0.6068,-0.5913,-0.5387,-0.4617,-0.415,-0.3805,-0.3505,-0.3262,-0.3345,-0.362,0.0,0.0,0.0,0.0,0.0,0.0,-1.149,-1.1725,-1.196,-1.2119,-1.4496,-1.7007,-1.9252,-2.2044,-2.4327,-2.5939,-2.5858,-2.4626,-2.1968,-1.9605,-1.7663,-1.6289,-1.447,-1.4214,-1.5798,-1.8175,-2.0153,-2.1592,-2.3072,-2.4333,-2.5305,-2.5751,-2.5887,-2.5744,-2.476,-2.3752,-2.2599,-2.002,-1.8142,-1.688,-1.6046,-1.496,0.0,0.0,0.0,0.0,0.0,0.0,0.0,0.0,0.0,0.0,0.0,0.0,0.0,0.0,0.0,0.0,0.0,0.0,0.0,0.0,0.0,0.0,0.0,0.0,0.0,0.0,0.0,0.0,0.0,0.0,0.0,0.0,0.0,0.0,0.0,0.0,0.0,-1.3976,-1.4709,0.0,-1.1298,-1.0818,-1.0456,-0.9909,-0.9517,-0.9291,-0.9253,-0.8992,-0.883,-0.8887,-0.92,-0.8986,-0.8195,-0.8362,-0.8025,-0.7257,-0.7356,-0.7201,-0.6811,-0.6949,-0.6825,-0.6474,-0.6604,-0.6543,-0.636,-0.626,-0.5937,-0.5455,-0.5199,-0.4656,-0.4037,-0.3952,-0.3635,-0.3265,0.0,0.0,0.0,0.0,0.0,-1.1534,-1.171,-1.205,-1.2455,-1.2894,-1.6047,-1.9115,-2.1393,-2.4755,-2.7303,-2.84,-2.8356,-2.6914,-2.3652,-2.114,-1.9029,-1.7299,-1.5999,-1.6557,-1.9171,-2.0595,-2.2039,-2.3418,-2.4321,-2.5161,-2.5922,-2.601,-2.607,-2.6053,-2.491,-2.4234,-2.3811,-2.2259,-2.0155,-1.7822,-1.7109,-1.6127,-1.4998,0.0,0.0,0.0,0.0,0.0,0.0,0.0,0.0,0.0,0.0,0.0,0.0,0.0,0.0,0.0,0.0,0.0,0.0,0.0,0.0,0.0,0.0,0.0,0.0,0.0,0.0,0.0,0.0,0.0,0.0,0.0,0.0,0.0,0.0,-1.6853,-1.7136,-1.571,-1.6695,-1.6227,-1.2897,-1.2643,-1.2211,-1.1119,-1.0783,-1.0509,-1.0289,-1.0193,-1.0186,-1.0211,-1.0529,-1.0237,-0.9333,-0.9358,-0.8799,-0.765,-0.7713,-0.7432,-0.6811,-0.692,-0.6791,-0.6513,-0.6604,-0.6643,-0.659,-0.6452,-0.6249,-0.595,-0.548,-0.4843,-0.4178,-0.3978,-0.3575,-0.3094,0.0,0.0,0.0,0.0,0.0,-1.1601,-1.2128,-1.2706,-1.3652,-1.5168,-1.8254,-2.142,-2.4234,-2.7504,-2.9709,-3.0397,-2.8647,-2.6856,-2.541,-2.0976,-1.8022,-1.715,-1.7477,-1.9358,-2.2961,-2.2834,-2.4263,-2.7332,-2.6002,-2.5981,-2.7163,-2.5891,-2.6041,-2.7134,-2.521,-2.4374,-2.4451,-2.3754,-2.244,-2.0634,-1.7788,-1.7144,-1.7615,0.0,0.0,0.0,0.0,0.0,0.0,0.0,0.0,0.0,0.0,0.0,0.0,0.0,0.0,0.0,0.0,0.0,0.0,0.0,0.0,0.0,0.0,0.0,0.0,0.0,0.0,0.0,0.0,0.0,0.0,0.0,0.0,0.0,-1.8118,-1.8761,-1.8708,-1.7114,-1.8019,-1.7645,-1.4735,-1.4498,-1.394,-1.252,-1.2339,-1.2087,-1.1518,-1.2176,-1.2016,-1.0918,-1.1256,-1.0851,-0.9646,-0.9531,-0.902,-0.813,-0.827,-0.7796,-0.6796,-0.6724,-0.6552,-0.6315,-0.6237,-0.6429,-0.6781,-0.6513,-0.6327,-0.6073,-0.4965,-0.431,-0.3923,-0.3348,-0.3163,-0.3225,0.0,0.0,0.0,0.0,0.0,-1.1976,-1.2185,-1.2706,-1.3436,-1.4402,-1.8253,-2.1942,-2.4748,-2.7595,-2.9807,-3.1028,-2.8494,-2.6463,-2.5524,-2.1101,-1.8345,-1.79,-2.0205,-2.2067,-2.3349,-2.4796,-2.5759,-2.6167,-2.6252,-2.6435,-2.6596,-2.6167,-2.601,-2.6106,-2.5346,-2.4821,-2.4482,-2.4281,-2.3623,-2.2518,-2.044,-1.906,-1.8167,0.0,0.0,0.0,0.0,0.0,0.0,0.0,0.0,0.0,0.0,0.0,0.0,0.0,0.0,0.0,0.0,0.0,0.0,0.0,0.0,0.0,0.0,0.0,0.0,0.0,0.0,0.0,0.0,0.0,0.0,0.0,-1.9649,-2.0337,-1.9238,-2.0278,-2.0819,-1.9954,-2.0281,-1.9866,-1.7957,-1.7392,-1.6601,-1.5223,-1.4932,-1.4526,-1.3843,-1.3443,-1.3103,-1.2836,-1.2499,-1.1818,-1.0763,-1.0834,-1.008,-0.8621,-0.8609,-0.8052,-0.7006,-0.6908,-0.6697,-0.6429,-0.6429,-0.656,-0.6781,-0.639,-0.6239,-0.6154,-0.564,-0.4787,-0.3861,-0.3822,-0.3663,-0.3361,0.0,0.0,0.0,0.0,0.0,-1.1906,-1.2159,-1.293,-1.3896,-1.5049,-1.9144,-2.2845,-2.5172,-2.7702,-2.9388,-2.9704,-2.752,-2.5486,-2.3869,-2.0655,-1.9227,-2.0126,-2.2186,-2.3934,-2.5144,-2.6029,-2.6652,-2.6983,-2.665,-2.6641,-2.6977,-2.6641,-2.6551,-2.6595,-2.5674,-2.5272,-2.5319,-2.4689,-2.4364,-2.4141,-2.2592,-2.1217,-2.0042,-1.8934,-1.8203,-1.7753,-1.7416,-1.7273,-1.7319,-1.7584,0.0,0.0,0.0,0.0,0.0,0.0,0.0,0.0,0.0,0.0,0.0,0.0,0.0,0.0,0.0,0.0,0.0,0.0,0.0,0.0,0.0,0.0,0.0,0.0,-2.1444,-2.2277,-2.169,-2.228,-2.274,-2.265,-2.2122,-2.1221,-1.9827,-1.916,-1.8015,-1.6048,-1.5751,-1.5176,-1.415,-1.373,-1.347,-1.3311,-1.2991,-1.2392,-1.1551,-1.1572,-1.084,-0.9344,-0.9264,-0.8568,-0.7312,-0.7081,-0.6787,-0.6452,-0.6399,-0.649,-0.6695,-0.6348,-0.618,0.0,0.0,0.0,0.0,0.0,-0.3857,-0.3428,0.0,0.0,0.0,-1.1285,-1.1399,-1.1601,-1.2091,-1.3199,-1.4587,-1.6239,-2.0261,-2.3569,-2.5201,-2.7489,-2.8504,-2.738,-2.596,-2.4024,-2.1368,-2.0089,-2.0518,-2.2834,-2.3701,-2.5237,-2.7503,-2.6846,-2.7205,-2.8748,-2.698,-2.6685,-2.772,-2.7055,-2.7104,-2.775,-2.6047,-2.5705,-2.6298,-2.5068,-2.4883,-2.5397,-2.4293,-2.3429,-2.2565,-2.0404,-2.0153,-2.078,-1.9607,-1.9181,-1.9176,-1.9085,0.0,0.0,0.0,0.0,0.0,0.0,0.0,0.0,0.0,0.0,0.0,0.0,0.0,0.0,0.0,0.0,0.0,0.0,0.0,0.0,0.0,0.0,0.0,0.0,-2.3323,-2.4517,-2.4768,-2.4541,-2.444,-2.4689,-2.335,-2.1942,-2.0799,-2.0132,-1.8702,-1.6123,-1.5716,-1.5019,-1.3625,0.0,0.0,0.0,0.0,-1.2673,-1.2062,-1.1879,-1.1267,-1.0128,-1.0035,-0.9121,-0.7578,-0.7261,-0.6842,-0.636,-0.6237,-0.636,-0.657,-0.6296,-0.6101,-0.5951,-0.5349,-0.4845,-0.4433,-0.4361,-0.3924,-0.3525,0.0,0.0,0.0,-1.1132,-1.1429,-1.1696,-1.1848,-1.3129,-1.4443,-1.5489,-1.9069,-2.2133,-2.3818,-2.5133,-2.6121,-2.6608,-2.441,-2.2276,-2.0601,-2.1239,-2.208,-2.3031,-2.5134,-2.6781,-2.7807,-2.7985,-2.8363,-2.9013,-2.7224,-2.6719,-2.7471,-2.658,-2.6382,-2.6779,-2.6244,-2.5889,-2.5694,-2.5797,-2.5762,-2.5644,-2.5268,-2.4756,-2.398,-2.2577,-2.1874,-2.1668,-2.1501,-2.1214,-2.1075,-2.2123,-2.1674,-2.0732,-2.1092,-1.9998,0.0,0.0,0.0,0.0,0.0,0.0,0.0,0.0,0.0,0.0,0.0,0.0,0.0,0.0,0.0,0.0,0.0,0.0,0.0,-2.3386,-2.5605,-2.7048,-2.6798,-2.6568,-2.5727,-2.3898,-2.2876,-2.2235,-2.1972,-2.0825,-1.97,-1.8732,-1.7537,-1.655,-1.5805,-1.5099,-1.4563,-1.4205,-1.3705,-1.3129,-1.2495,-1.214,-1.1446,-1.0421,0.0,0.0,-0.7496,-0.7218,-0.6785,-0.623,-0.6207,-0.6337,-0.657,-0.6133,-0.5796,-0.5479,-0.4812,-0.4378,-0.4134,-0.4359,-0.4273,-0.4065,0.0,0.0,0.0,0.0,-1.1384,-1.163,-1.1725,-1.2758,-1.3964,-1.5185,-1.7792,-2.0181,-2.1802,-2.2355,-2.2677,-2.2833,-2.1275,-2.0478,-2.0822,-2.1949,-2.3457,-2.5469,-2.6652,-2.7671,-2.8527,-2.832,-2.8365,-2.8763,-2.7504,-2.7349,-2.8201,-2.7593,-2.755,-2.7905,-2.7303,-2.7016,-2.695,-2.666,-2.6748,-2.7004,-2.6502,-2.6029,-2.545,-2.4051,-2.3217,-2.2859,-2.2885,-2.2549,-2.2192,-2.2803,-2.2552,-2.1996,-2.1919,-2.1259,-2.0168,0.0,0.0,0.0,0.0,0.0,0.0,0.0,0.0,0.0,0.0,0.0,0.0,0.0,0.0,-2.0062,-2.0948,0.0,-2.4271,-2.5882,-2.6791,-2.7345,-2.7471,-2.6525,-2.5459,-2.4514,-2.3484,-2.2797,-2.2617,-2.1498,-2.04,-1.9415,-1.8233,-1.7167,-1.6334,-1.573,-1.5125,-1.452,-1.419,-1.3512,-1.2449,-1.2143,-1.1548,-1.0576,-1.0099,-0.9152,-0.7879,-0.7627,-0.7089,-0.6353,-0.6238,-0.6315,-0.6532,-0.6147,-0.569,-0.517,-0.4867,-0.4548,-0.4259,-0.4434,-0.4427,-0.4341,0.0,0.0,0.0,0.0,0.0,-1.1489,-1.1571,-1.2358,-1.3396,-1.4607,-1.6434,-1.8097,-1.9362,-1.9523,-1.9351,-1.8883,-1.8623,-1.9348,-2.1461,-2.2699,-2.48,-2.7917,-2.8167,-2.8651,-2.95,-2.8748,-2.8498,-2.8894,-2.8119,-2.8266,-2.9291,-2.9027,-2.9095,-2.9416,-2.8544,-2.8196,-2.8192,-2.7406,-2.7529,-2.822,-2.7465,-2.7008,-2.6635,-2.5217,-2.4358,-2.3891,-2.365,-2.3169,-2.2673,-2.2745,-2.2693,-2.2522,-2.2191,-2.2119,-2.1818,-1.9956,-1.9228,0.0,0.0,0.0,0.0,0.0,0.0,0.0,0.0,-1.7996,-1.9259,-1.9503,-2.0823,-2.2197,-2.3095,-2.4722,-2.6379,-2.7702,-2.7535,-2.7226,-2.7223,-2.5812,-2.4775,-2.4801,-2.4042,-2.3302,-2.2792,-2.1885,-2.0789,-1.9617,-1.8434,-1.7422,-1.6675,-1.6169,-1.5591,-1.4886,-1.4588,-1.388,-1.2651,-1.22,-1.1616,-1.0809,-1.0365,-0.9571,-0.8519,-0.8122,-0.7482,-0.6686,-0.6407,-0.6397,-0.6593,-0.6251,-0.5746,-0.5173,-0.5174,-0.4978,-0.4679,-0.4552,-0.4454,-0.4387,0.0,0.0,0.0,0.0,0.0,-1.1285,-1.1178,-1.2106,-1.2814,-1.2809,-1.4791,-1.6256,-1.6306,-1.6985,-1.7486,-1.7573,-1.8687,-2.0162,-2.2068,-2.4035,-2.6043,-2.8094,-2.9741,-3.061,-3.0631,-3.0162,-3.0147,-3.0522,-2.9489,-2.9414,-3.0253,-3.0109,-2.9838,-2.9596,-2.9357,-2.8682,-2.7748,-2.7686,-2.7746,-2.7913,-2.7454,-2.7238,-2.7068,-2.6356,-2.5342,-2.4233,-2.3293,-2.2651,-2.2291,-2.3122,-2.2541,-2.1712,-2.3069,-2.2695,-2.1493,-2.0144,-1.9324,-1.8502,-1.6942,-1.6527,-1.6507,-1.642,-1.7337,-1.8499,0.0,-2.0304,-2.1113,-2.1771,-2.2312,-2.3009,-2.405,-2.5622,-2.6809,-2.6942,-2.815,-2.8272,-2.5906,-2.5428,-2.4667,-2.2935,-2.3377,-2.342,-2.2371,-2.1419,-2.0727,-2.0373,-1.8397,-1.7502,-1.8211,-1.6969,-1.6233,-1.6202,-1.5134,-1.4326,-1.3812,-1.2594,-1.1736,-1.124,-1.0561,-0.9957,-0.9341,-0.8408,-0.7781,-0.7356,-0.679,-0.6745,-0.7,-0.643,-0.6038,-0.5776,-0.5542,-0.5438,-0.5322,-0.473,-0.4285,-0.3973,0.0,0.0,0.0,0.0,0.0,-1.1353,-1.1192,-1.167,-1.2138,-1.2415,-1.326,-1.4012,-1.4424,-1.446,-1.4652,-1.5034,-1.7265,-1.9549,-2.1678,-2.4618,-2.7176,-2.9169,-3.0089,-3.0825,-3.1384,-3.0998,-3.0875,-3.1027,-3.0595,-3.0561,-3.0966,-3.0386,-3.0142,-3.027,-2.9559,-2.9046,-2.8724,-2.8588,-2.8649,-2.8844,-2.875,-2.8142,-2.7221,-2.6464,-2.4759,-2.2818,-2.3129,-2.2521,0.0,-2.2038,-2.147,-2.0756,-2.1668,-2.1212,-2.0291,-1.9847,-1.9283,-1.8681,-1.8156,-1.7925,-1.7857,-1.7892,-1.8964,-1.9992,-2.0028,-2.1246,-2.2454,-2.2754,-2.3586,-2.4567,-2.5557,-2.638,-2.7048,-2.748,-2.7372,-2.6813,-2.5596,-2.4602,-2.3481,-2.2039,-2.2707,-2.2938,-2.2152,-2.1662,-2.1352,-2.1276,-1.9679,-1.8903,-1.9297,-1.8053,-1.7004,-1.6249,-1.5799,-1.4981,-1.3663,-1.2704,-1.2025,-1.158,-1.0786,-1.0122,-0.9548,-0.9008,-0.8419,-0.7848,-0.7618,-0.7328,-0.6968,-0.6614,-0.6175,-0.5633,-0.5415,-0.5323,-0.5263,-0.4708,-0.4438,-0.4324,0.0,0.0,0.0,0.0,0.0,0.0,0.0,0.0,-1.1506,-1.1884,-1.198,-1.225,-1.2812,-1.2512,-1.2528,-1.3166,-1.5695,-1.8343,-2.1016,-2.4315,-2.7172,-2.9407,-3.0225,-3.0994,-3.1789,-3.1648,-3.1694,-3.1911,-3.1593,-3.1535,-3.1805,-3.0849,-3.0585,-3.0954,-2.9814,-2.9422,-2.9575,-2.9262,-2.9102,-2.9064,-2.9303,-2.8383,-2.6792,-2.5832,-2.367,-2.1284,-2.2024,-2.1266,-1.9949,-1.9983,-1.9651,-1.9297,-1.9734,-1.9468,-1.9018,-1.9171,-1.8792,-1.8341,-1.8503,-1.8646,-1.8806,-1.9001,-2.0328,-2.1409,-2.0713,-2.2025,-2.3412,-2.3468,-2.4346,-2.5292,-2.5865,-2.6265,-2.6598,-2.6978,-2.6264,-2.5466,-2.4888,-2.3775,-2.2554,-2.1339,-2.1972,-2.2345,-2.1931,-2.1718,-2.1584,-2.1507,-2.0386,-1.9795,-2.0029,-1.8903,-1.7821,-1.6859,-1.6623,-1.5687,-1.4016,-1.3191,-1.25,-1.1927,-1.1073,-1.0483,-1.0083,-0.9586,-0.8951,-0.8256,-0.8171,-0.7827,-0.7296,-0.6961,-0.639,-0.5732,-0.5509,-0.5392,-0.532,-0.4912,-0.4741,-0.4617,0.0,0.0,0.0,0.0,0.0,0.0,0.0,0.0,0.0,-1.078,-1.1104,-1.1336,-1.135,-1.1419,-1.1811,-1.2756,-1.4318,-1.673,-2.0119,-2.2871,-2.5523,-2.8125,-3.0408,-3.1653,-3.1774,-3.2306,-3.2917,-3.363,-3.2516,-3.2312,-3.2933,-3.1836,-3.1435,-3.1533,-3.0335,-2.9777,-2.9746,-2.9281,-2.8651,-2.8007,-2.8435,-2.7396,-2.5427,-2.4218,-2.2258,-2.0068,-1.9437,-1.8189,-1.6855,-1.6918,-1.6959,-1.7099,-1.7614,-1.7862,-1.7961,-1.8039,-1.758,-1.708,-1.7138,-1.7871,-1.8741,-1.9349,-2.1031,-2.2463,-2.2046,-2.2952,-2.3931,-2.4128,-2.4414,-2.4517,-2.4229,-2.4871,-2.5201,-2.4442,-2.5047,-2.5017,-2.3311,-2.3027,-2.2362,-2.0633,-2.1207,-2.1701,-2.1619,-2.1309,-2.101,-2.0759,-1.9804,-1.9567,-2.034,-1.9255,-1.8624,-1.8717,-1.759,-1.6505,-1.5541,-1.4347,-1.3259,-1.2277,-1.1541,-1.1239,-1.1293,-1.0058,-0.9204,-0.8646,-0.821,-0.8135,-0.8291,-0.7434,-0.6803,-0.6348,-0.6084,-0.5898,-0.5756,-0.5549,-0.5136,-0.4589,0.0,0.0,0.0,0.0,0.0,0.0,0.0,0.0,0.0,0.0,0.0,0.0,0.0,0.0,0.0,0.0,-1.4393,-1.6259,-1.8006,-2.1828,-2.4506,-2.5553,-2.7817,-2.9531,-3.0401,-3.0519,-3.0927,-3.1616,-3.1358,-3.1149,-3.1096,-3.0225,-2.9852,-2.9791,-2.8431,-2.8079,-2.8449,-2.7457,-2.7394,-2.791,-2.7206,-2.6462,-2.5521,-2.3869,-2.1404,-1.8659,0.0,-1.6455,-1.6094,-1.6033,-1.5993,-1.6024,-1.6342,-1.6064,-1.5688,-1.5767,-1.6319,-1.7027,-1.7768,-1.8467,-1.9352,-2.0793,-2.1476,-2.196,-2.2586,-2.3158,-2.3455,-2.3024,-2.3442,-2.3674,-2.301,-2.3353,-2.3663,-2.3445,-2.3661,-2.347,-2.2294,-2.2143,-2.1508,-1.9805,-2.0875,-2.1526,-2.0925,-2.1687,-2.2431,-2.2911,-2.136,-2.0776,-2.1676,-2.0119,-1.889,-1.8234,-1.7896,-1.7229,-1.6131,-1.5468,-1.4936,-1.4546,-1.291,-1.1655,-1.0774,-1.0122,-0.9647,-0.9289,-0.9277,-0.8949,-0.8424,-0.7956,-0.7361,-0.6703,-0.6299,-0.6049,-0.5959,-0.6153,-0.6047,-0.5683,0.0,0.0,0.0,0.0,0.0,0.0,0.0,0.0,0.0,0.0,0.0,0.0,0.0,0.0,0.0,0.0,0.0,-1.4983,-1.608,-1.9677,-2.2078,-2.2762,-2.4724,-2.626,-2.7274,-2.7007,-2.7348,-2.8416,-2.8404,-2.8463,-2.8517,-2.7926,-2.7704,-2.7788,-2.6425,-2.6197,-2.676,-2.5514,-2.5376,-2.5895,-2.4665,-2.3823,-2.3143,-2.116,-1.9012,0.0,-1.5068,-1.4519,-1.459,-1.4407,-1.4341,-1.4392,-1.4755,-1.4648,-1.4471,-1.4873,-1.5809,-1.7033,-1.8525,-1.9275,-1.9998,-2.1697,-2.1978,-2.1953,-2.2399,-2.2387,-2.2117,-2.15,-2.1588,-2.1689,-2.1387,-2.1597,-2.1944,-2.239,-2.2462,-2.2284,-2.1765,-2.1672,-2.1167,-1.9821,-2.1183,-2.201,-2.1444,-2.2562,-2.3448,-2.3683,-2.2111,-2.1396,-2.1986,-2.0753,-1.9587,-1.8568,-1.8656,-1.8172,-1.7059,-1.6683,-1.6238,-1.5639,-1.3916,-1.2493,-1.1343,-1.0811,-1.0333,-0.9893,-0.9903,-0.9471,-0.8783,-0.8678,-0.8247,-0.7637,-0.7521,-0.7227,-0.6936,-0.7533,-0.7479,-0.6937,0.0,0.0,0.0,0.0,0.0,0.0,0.0,0.0,0.0,0.0,0.0,0.0,0.0,0.0,0.0,0.0,0.0,0.0,-1.4355,-1.6578,-1.8444,-1.9794,-2.1201,-2.2176,-2.2675,-2.2063,-2.2554,-2.4285,-2.402,-2.4399,-2.531,-2.4998,-2.5045,-2.5455,-2.4286,-2.4158,-2.4635,-2.3448,-2.2686,-2.2174,-2.0936,-1.9846,-1.8728,-1.6534,-1.5443,-1.4842,-1.3127,-1.2471,-1.2412,-1.2206,-1.2238,-1.2486,-1.3158,-1.3835,-1.4529,-1.5372,-1.6185,-1.7278,-1.9404,-2.0196,-2.0746,-2.2055,-2.2453,-2.2304,-2.155,-2.0805,-2.0108,-1.9694,-1.9143,-1.8872,-1.9356,-1.968,-2.0194,-2.1243,-2.1534,-2.1652,-2.1798,-2.1778,-2.1462,-2.0764,-2.21,-2.3077,-2.3061,-2.3823,-2.3987,-2.3203,0.0,-2.1448,-2.1377,-2.1206,-2.0677,-1.9744,-1.9806,-1.9357,-1.8286,-1.8015,-1.7145,-1.5696,-1.466,-1.3726,-1.2873,-1.2048,-1.1193,-1.0341,-1.0034,-0.9679,-0.9296,-0.9526,-0.941,-0.9162,-0.9672,-0.9352,-0.8688,-0.9605,-0.9339,-0.8353,0.0,0.0,0.0,0.0,0.0,0.0,0.0,0.0,0.0,0.0,0.0,0.0,0.0,0.0,0.0,0.0,0.0,0.0,-1.2144,-1.4596,-1.6174,-1.6443,-1.7839,-1.9075,-2.0061,-1.9697,-2.0066,-2.1146,-2.1167,-2.1335,-2.162,-2.1197,-2.1136,-2.1333,-2.0206,-2.0229,-2.1016,-1.9667,-1.9648,-2.0414,-1.878,-1.8247,-1.8216,-1.6458,-1.528,-1.4415,-1.3014,-1.2042,-1.1577,-1.2407,-1.3569,-1.4773,-1.551,-1.6189,-1.6781,-1.7071,-1.8478,-2.0069,-2.0642,-2.1619,-2.2603,-2.3147,-2.2215,-2.1183,-2.124,-2.022,-1.9092,-1.8482,-1.8584,-1.8509,-1.7601,-1.9188,-2.0576,-2.0412,-2.1923,-2.3205,-2.3396,-2.3435,-2.3403,-2.3262,-2.3681,-2.3989,-2.4049,-2.4234,-2.4549,0.0,-2.3463,-2.252,-2.2557,-2.2387,-2.155,-1.9973,-2.0522,-2.0346,-1.9345,-1.9041,-1.824,-1.694,-1.6516,-1.5163,-1.3037,-1.2719,-1.1556,-0.9823,-1.0016,-0.97,-0.9051,-0.9598,-1.0128,-1.0594,-1.0989,-1.1126,-1.1141,-1.169,-1.1292,-1.0464,0.0,0.0,0.0,0.0,0.0,0.0,0.0,0.0,0.0,0.0,0.0,0.0,0.0,0.0,0.0,0.0,0.0,0.0,0.0,-1.2894,-1.394,-1.4006,-1.5064,-1.5876,-1.6403,-1.6502,-1.6608,-1.6744,-1.7547,-1.7758,-1.7488,-1.7937,-1.8135,-1.8121,-1.7495,-1.7539,-1.8013,-1.6667,-1.6592,0.0,0.0,-1.5485,-1.5706,-1.4609,-1.3834,-1.3308,-1.2588,-1.2447,-1.278,-1.4008,-1.4917,-1.5648,-1.6397,-1.7077,-1.7755,-1.8616,-1.9959,-2.133,-2.217,-2.2956,-2.3508,-2.346,-2.2353,-2.1078,-2.0314,-1.893,-1.7524,-1.6588,-1.6499,-1.6465,-1.6131,-1.7743,-1.9126,-1.9233,-2.105,-2.255,-2.2786,-2.3179,-2.3482,-2.3566,-2.3983,-2.4258,-2.4263,-2.4635,-2.5102,-2.5654,-2.4364,-2.3552,-2.3575,-2.345,-2.275,-2.1309,-2.1364,-2.0939,-1.9933,-1.965,-1.9178,-1.8518,-1.7947,-1.6633,-1.4703,-1.4195,-1.2985,-1.1307,0.0,-1.1114,-1.072,-1.1596,-1.2227,-1.2734,-1.3653,-1.3843,-1.37,-1.437,-1.4024,-1.3243,0.0,0.0,0.0,0.0,0.0,0.0,0.0,0.0,0.0,0.0,0.0,0.0,0.0,0.0,0.0,0.0,0.0,0.0,0.0,0.0,-1.2067,-1.2294,-1.2791,-1.3,-1.2901,-1.3265,-1.3183,-1.2574,-1.389,-1.4216,-1.3643,-1.5022,-1.5558,-1.5324,-1.5387,-1.5356,-1.5267,-1.4299,-1.3882,-1.3778,-1.2931,-1.2606,-1.2575,0.0,-1.2106,-1.2128,-1.2149,-1.312,-1.4585,-1.5884,-1.6182,-1.6123,-1.6908,-1.759,-1.8429,-2.0156,-2.1079,-2.1891,-2.3638,-2.4034,-2.3885,-2.341,-2.2482,-2.1176,-1.911,-1.7363,-1.5823,-1.4656,-1.4076,-1.4079,-1.5065,-1.6248,-1.7403,-1.8421,-1.9967,-2.1249,-2.1833,-2.239,-2.2861,-2.3218,-2.3887,-2.4292,-2.4266,-2.5007,-2.5512,-2.5637,-2.4952,-2.4472,-2.4303,-2.4417,-2.4042,-2.312,-2.2189,-2.1249,-2.0376,-2.0012,-1.9898,-1.9991,-1.905,-1.8012,-1.692,-1.6053,-1.4885,-1.3531,-1.3329,-1.3151,-1.3062,-1.4257,-1.484,-1.516,-1.6701,-1.6884,-1.6403,-1.7254,-1.7044,-1.6336,0.0,0.0,0.0,0.0,0.0,0.0,0.0,0.0,0.0,0.0,-1.274,-1.2191,0.0,0.0,0.0,0.0,0.0,0.0,0.0,0.0,0.0,-1.1268,-1.1256,-1.1591,-1.2322,-1.1942,-1.1951,-1.2415,-1.2217,-1.2117,-1.2071,-1.2196,-1.2298,-1.2408,-1.2265,-1.225,-1.2351,-1.2658,-1.2507,-1.2062,-1.2322,-1.2109,-1.1672,-1.2033,0.0,0.0,-1.2435,-1.3043,-1.3995,-1.547,-1.7108,-1.8627,-1.9418,-2.0159,-2.0919,-2.1794,-2.2622,-2.3405,-2.4029,-2.4288,-2.4229,-2.3416,-2.1682,-1.9773,-1.8246,-1.6344,-1.4722,-1.4056,-1.4124,-1.4417,-1.4895,-1.6915,-1.8866,-1.9879,-2.0979,-2.252,-2.4783,-2.413,-2.3973,-2.5444,-2.5217,-2.4986,-2.508,-2.523,-2.5348,-2.5374,-2.5331,-2.5001,-2.433,-2.4977,-2.4961,-2.4098,-2.2469,-2.1477,-2.1189,-2.0437,-2.0063,-2.0078,-1.9773,-1.8989,-1.7785,-1.7608,-1.6172,-1.3882,-1.4696,0.0,-1.3429,-1.4971,-1.6183,-1.7152,-1.7945,-1.8699,-1.937,-1.953,-1.9392,-1.9119,0.0,0.0,0.0,0.0,0.0,0.0,0.0,-1.4288,-1.4743,-1.557,-1.5286,-1.47,-1.3956,-1.3276,-1.2761,0.0,0.0,0.0,0.0,0.0,0.0,-1.133,-1.149,-1.1895,-1.2557,-1.2922,-1.2827,-1.2235,0.0,-1.1908,-1.1289,-1.1437,-1.1559,-1.1694,-1.1646,-1.1607,-1.166,-1.1957,-1.189,-1.1654,-1.234,-1.2411,-1.2184,-1.253,0.0,0.0,-1.2864,-1.3388,-1.4139,-1.4868,-1.6146,-1.7746,-1.961,-2.0731,-2.1577,-2.2396,-2.3407,-2.4356,-2.4714,-2.5083,-2.5034,-2.3684,-2.189,-2.0047,-1.8294,-1.6495,-1.5032,-1.4572,-1.4655,-1.4929,-1.5295,-1.6818,-1.82,-1.8752,-2.0079,-2.1688,-2.3475,-2.357,-2.3945,-2.5267,-2.5171,-2.5015,-2.5083,-2.5091,-2.5116,-2.5186,-2.5187,-2.507,-2.4782,-2.5239,-2.5104,-2.4212,-2.3359,-2.263,-2.2073,-2.1662,-2.1418,-2.1347,-2.1287,-2.0506,-1.9149,-1.9465,-1.8476,-1.6553,-1.7404,-1.7393,-1.6816,-1.8018,-1.8858,-1.9431,-2.0188,-2.0801,-2.1249,-2.0866,-2.0757,-2.0678,0.0,0.0,0.0,0.0,0.0,0.0,0.0,-1.5133,-1.588,-1.7031,-1.7293,-1.6957,-1.5879,-1.466,-1.3794,0.0,0.0,0.0,0.0,0.0,0.0,0.0,-1.1973,-1.2321,-1.287,0.0,0.0,-1.1997,-1.2399,0.0,0.0,0.0,0.0,0.0,-1.1547,-1.1479,-1.1333,-1.148,-1.1482,0.0,0.0,-1.2498,-1.2444,0.0,0.0,0.0,0.0,-1.3697,-1.4269,-1.4395,-1.5013,-1.6106,-1.8364,-1.9771,-2.0755,-2.1859,-2.3048,-2.4131,-2.4673,-2.5219,-2.5186,-2.3385,-2.1861,-2.0258,-1.819,-1.6554,-1.5343,-1.5004,-1.4978,-1.5238,-1.5821,-1.6536,-1.7211,-1.7673,-1.9109,-2.0463,-2.1388,-2.2441,-2.3386,-2.4169,-2.4504,-2.4689,-2.4719,-2.4728,-2.478,-2.4851,-2.4778,-2.4832,-2.5112,-2.5212,-2.4969,-2.43,-2.4082,-2.3617,-2.2852,-2.2697,-2.2502,-2.2245,-2.2312,-2.17,-2.0536,-2.0834,-2.0308,-1.9178,-1.9721,-1.9802,-1.9624,-2.0446,-2.0785,-2.0862,-2.1529,-2.1936,-2.2067,-2.1538,-2.155,-2.1662,0.0,0.0,0.0,0.0,0.0,0.0,0.0,-1.4862,-1.6189,-1.7653,-1.7372,-1.7149,-1.7451,-1.6402,-1.5031,0.0,0.0,0.0,0.0,0.0,0.0,0.0,0.0,0.0,0.0,0.0,0.0,-1.1755,-1.161,0.0,0.0,0.0,0.0,0.0,0.0,-1.0528,-1.011,-1.0725,0.0,0.0,0.0,0.0,0.0,0.0,0.0,0.0,0.0,-1.3712,-1.3855,-1.4395,-1.4797,-1.5155,-1.5684,-1.6728,-1.8049,-1.9404,-2.0589,-2.1659,-2.2586,-2.35,-2.3682,-2.1583,-2.0442,-1.9256,-1.7067,-1.555,-1.4581,-1.4419,-1.4483,-1.4943,-1.6127,-1.6466,-1.7097,-1.8675,-1.9346,-1.9985,-2.0847,-2.1837,-2.2558,-2.2768,-2.3484,-2.4022,-2.4082,-2.4137,-2.4137,-2.41,-2.41,-2.4342,-2.4911,-2.4884,-2.4853,-2.4834,-2.4068,-2.3517,-2.3246,-2.2634,-2.2028,-2.141,-2.1658,-2.1708,-2.1538,-2.0856,-2.0311,-1.9918,-2.0023,-1.9586,0.0,-1.9727,-2.0099,-2.0102,-2.0181,-2.0624,-2.1245,-2.1412,-2.1843,-2.2366,0.0,0.0,0.0,0.0,0.0,0.0,-1.4106,-1.4707,-1.5765,-1.7874,-1.7898,-1.7764,-1.7824,-1.6784,-1.5512,-1.4033,0.0,0.0,0.0,0.0,0.0,0.0,0.0,0.0,0.0,0.0,-1.2008,-1.1876,-1.1726,0.0,0.0,0.0,0.0,0.0,0.0,-1.0596,-1.046,-1.0758,0.0,0.0,0.0,0.0,0.0,0.0,0.0,0.0,0.0,0.0,-1.3202,-1.316,-1.3305,-1.3514,-1.3686,-1.4443,-1.5773,-1.8241,-1.9978,-2.1277,-2.2174,-2.3357,-2.3761,-2.1493,-2.0133,-1.8884,-1.7093,-1.5854,-1.502,-1.4974,-1.5292,-1.5753,-1.6351,-1.6709,-1.715,-1.7833,-1.8307,-1.8866,-1.9695,-2.0648,-2.1537,-2.2285,-2.3063,-2.3638,-2.3864,-2.3905,-2.3826,-2.3599,-2.3432,-2.3386,-2.3499,-2.4025,-2.4321,-2.4364,-2.383,-2.3418,-2.3179,-2.2661,-2.2319,-2.2071,-2.215,-2.196,-2.1568,-2.1678,-2.1078,-2.0012,-2.0406,-2.0329,0.0,-2.0532,-2.0835,-2.0943,-2.1284,-2.144,-2.145,-2.1231,-2.1395,-2.1673,0.0,0.0,0.0,0.0,0.0,-1.2666,-1.4058,-1.4461,-1.5294,-1.7405,-1.7619,-1.7604,-1.7689,-1.6363,-1.5195,-1.4536,-1.3591,0.0,0.0,0.0,0.0,0.0,0.0,0.0,0.0,0.0,-1.2001,-1.166,-1.1727,-1.1344,0.0,0.0,-1.1283,-1.0767,0.0,0.0,0.0,0.0,0.0,0.0,0.0,0.0,0.0,0.0,0.0,0.0,0.0,0.0,0.0,0.0,0.0,-1.2799,-1.2536,-1.2963,-1.407,-1.6778,-1.8673,-2.0085,-2.0968,-2.2076,-2.2511,-2.0512,-1.9269,-1.8127,-1.6607,-1.5608,-1.5059,-1.5182,-1.5521,-1.5894,-1.62,-1.6523,-1.6767,-1.6894,-1.746,-1.8061,-1.8622,-1.9781,-2.0876,-2.1633,-2.2463,-2.3082,-2.3305,-2.3323,-2.3253,-2.3021,-2.272,-2.2479,-2.2319,-2.29,-2.3336,-2.3539,-2.3249,-2.2964,-2.2709,-2.2314,-2.2099,-2.2082,-2.2004,-2.1772,-2.1455,-2.1671,-2.1094,-1.992,-2.0326,-2.0178,0.0,-2.04,-2.0623,-2.0571,-2.115,-2.1215,-2.0902,-2.0566,-2.057,-2.064,0.0,0.0,0.0,0.0,0.0,0.0,-1.3182,-1.3994,-1.4912,-1.5976,-1.61,-1.6404,-1.7147,-1.5113,-1.4038,-1.4853,-1.3509,0.0,0.0,0.0,0.0,0.0,0.0,0.0,0.0,0.0,-1.1232,-1.0919,-1.1376,-1.1364,-1.0919,-1.1387,-1.1286,-1.0688,0.0,0.0,0.0,0.0,0.0,0.0,0.0,0.0,-1.2519,0.0,0.0,0.0,0.0,0.0,0.0,0.0,0.0,0.0,0.0,-1.2372,-1.3045,-1.4663,-1.6025,-1.7284,-1.8355,-1.9114,-1.9252,-1.7975,-1.738,-1.6719,-1.5172,-1.4439,-1.4232,-1.4617,-1.4665,-1.485,-1.5564,-1.5651,-1.5767,-1.6231,-1.7155,-1.7775,-1.7729,-1.9498,-2.0755,-2.0626,-2.1569,-2.222,-2.222,-2.222,-2.2248,-2.233,-2.1943,0.0,-2.1694,-2.1529,-2.1761,-2.2479,-2.2251,-2.2017,-2.1826,-2.142,-2.107,-2.083,-2.0751,-2.0907,-2.1278,-2.0469,-1.9936,-1.9611,-1.9626,-1.8598,0.0,-1.865,-1.8831,-1.8201,-1.8796,-1.9114,-1.921,-1.9285,-1.93,-1.9374,0.0,0.0,0.0,0.0,0.0,0.0,0.0,-1.3281,-1.3732,-1.5051,-1.4817,-1.4888,-1.58,-1.4499,-1.3762,-1.4189,-1.304,0.0,0.0,0.0,0.0,0.0,0.0,0.0,0.0,-1.1868,-1.1684,-1.1861,-1.2083,-1.1963,-1.1453,-1.1895,-1.1791,-1.1277,-1.0731,-1.0498,0.0,0.0,0.0,0.0,0.0,-1.1936,-1.2602,0.0,0.0,0.0,0.0,0.0,0.0,0.0,0.0,0.0,0.0,0.0,0.0,-1.4044,-1.5042,-1.6035,-1.6236,-1.7068,-1.7514,-1.616,-1.5766,-1.5451,-1.4356,-1.398,-1.3795,-1.3762,-1.4044,-1.4319,-1.4337,-1.4774,-1.5168,-1.5256,-1.5979,-1.6653,-1.7043,-1.8113,-1.9055,-1.9515,-2.032,-2.083,-2.083,0.0,-2.0558,-2.0526,-2.0473,-2.0304,-1.9951,-2.0066,-2.044,-2.1064,-2.1207,-2.0942,-2.0211,-1.9974,-1.9712,-1.9439,-1.9148,-1.8907,-1.8753,-1.8413,-1.7814,-1.7055,-1.7076,-1.6713,-1.623,-1.6934,-1.7151,-1.7093,-1.7661,-1.8001,-1.8157,-1.8346,-1.868,-1.9038,0.0,0.0,0.0,0.0,0.0,0.0,0.0,-1.2937,-1.3203,-1.4083,-1.3838,-1.3956,-1.4952,-1.3888,-1.3356,-1.3978,-1.2927,0.0,0.0,0.0,0.0,0.0,0.0,0.0,-1.2257,-1.1902,-1.1917,-1.2401,-1.2461,-1.2413,-1.2307,-1.2566,-1.2295,-1.1623,-1.1228,-1.0982,0.0,0.0,0.0,0.0,-1.1176,-1.1721,-1.2211,0.0,0.0,0.0,0.0,0.0,0.0,0.0,0.0,0.0,0.0,0.0,0.0,0.0,-1.3639,-1.4417,-1.4576,-1.5034,-1.527,-1.4559,-1.434,-1.4124,-1.3536,-1.3331,-1.317,-1.2928,-1.3179,-1.3403,-1.3302,-1.3822,-1.4306,-1.4414,-1.497,-1.5609,-1.6203,-1.7026,-1.7914,-1.8974,-1.939,-1.9671,0.0,-1.9732,-1.9607,-1.9587,-1.9483,-1.9295,-1.8985,-1.9269,-1.9485,-1.9568,-2.0008,-1.9966,-1.9357,-1.8832,-1.8523,-1.8349,-1.7785,-1.7518,-1.7451,-1.7303,-1.6726,-1.5823,-1.6154,-1.587,0.0,-1.6105,-1.6337,-1.6245,-1.7068,-1.7458,-1.7581,-1.7917,-1.8261,-1.8609,0.0,0.0,0.0,0.0,0.0,0.0,0.0,-1.2887,-1.317,-1.3132,-1.312,-1.3497,-1.4422,-1.3235,-1.2876,-1.4084,0.0,0.0,0.0,0.0,0.0,0.0,0.0,0.0,-1.1952,-1.1816,-1.2034,-1.2627,-1.2627,-1.2862,-1.3371,-1.3324,-1.2756,-1.1729,-1.1694,-1.1333,-1.079,-1.0708,-1.0317,-0.9818,-1.0697,-1.1194,0.0,0.0,0.0,0.0,0.0,0.0,0.0,0.0,0.0,0.0,0.0,0.0,0.0,0.0,0.0,0.0,0.0,-1.3076,-1.273,-1.3137,-1.3004,-1.2765,-1.2707,-1.2555,0.0,-1.2174,-1.2174,-1.2246,-1.2532,-1.2883,-1.3285,-1.3682,-1.4118,-1.4675,-1.5283,-1.6165,-1.7228,-1.8664,-1.8584,-1.8584,-1.9031,-1.9075,-1.9067,-1.9141,-1.876,-1.8535,-1.8482,-1.8833,-1.8712,-1.8079,-1.8682,-1.9003,-1.9003,-1.8017,-1.7471,-1.745,-1.6634,-1.6451,-1.6915,-1.6818,-1.6291,0.0,-1.6348,-1.5784,-1.4374,-1.5894,-1.6107,-1.5551,-1.6741,-1.7243,-1.7301,-1.7762,-1.7918,-1.7975,0.0,0.0,0.0,0.0,0.0,0.0,0.0,0.0,0.0,0.0,-1.2505,-1.2599,-1.2957,-1.2541,-1.2459,0.0,0.0,0.0,0.0,0.0,0.0,0.0,0.0,0.0,-1.2365,-1.2447,-1.2878,-1.3706,-1.3706,-1.3795,-1.3899,-1.347,-1.28,-1.1916,-1.1505,-1.1006,-1.0448,-0.9786,-0.9809,-1.0307,-1.0344,-1.09,0.0,0.0,0.0,0.0,-1.185,-1.1955,0.0,0.0,0.0,0.0,0.0,0.0,0.0,0.0,-1.1966,-1.1572,-1.1731,0.0,-1.194,-1.1596,-1.156,-1.1606,0.0,-1.1672,-1.1689,-1.1531,-1.1763,-1.2059,-1.2457,-1.2551,-1.2734,-1.324,-1.3639,-1.3987,-1.4326,-1.5296,-1.597,-1.6026,-1.6392,-1.6481,-1.613,-1.6421,-1.6621,-1.6621,-1.6789,-1.676,-1.6489,-1.6816,-1.6966,-1.6883,-1.7053,-1.7492,-1.8239,-1.7097,-1.6405,-1.6139,-1.5005,-1.4309,-1.3993,-1.4376,-1.4104,-1.3332,-1.449,-1.4195,-1.3034,-1.4397,-1.4516,-1.4006,-1.481,-1.5393,-1.5855,-1.6003,-1.6321,-1.6765,0.0,0.0,0.0,0.0,0.0,0.0,0.0,0.0,0.0,0.0,0.0,-1.2282,-1.2461,-1.2389,0.0,0.0,0.0,0.0,0.0,0.0,0.0,0.0,-1.233,-1.2437,-1.2508,-1.2627,-1.3043,-1.3726,-1.3726,-1.3887,-1.4138,-1.3839,-1.3247,-1.2322,-1.1566,-1.0888,-1.0397,-1.0261,-1.0141,-1.0101,-1.0489,0.0,0.0,0.0,0.0,0.0,-1.1743,-1.1741,0.0,-1.1918,-1.1918,-1.1906,0.0,0.0,0.0,0.0,-1.1271,-1.0956,-1.049,-1.061,-1.0809,-1.0763,-1.072,-1.071,-1.0963,-1.0967,-1.0916,-1.0791,-1.0905,-1.113,-1.1326,-1.128,-1.1475,-1.2129,-1.2256,-1.2608,-1.3605,-1.4227,-1.4801,-1.527,-1.5469,-1.5528,0.0,-1.5632,-1.5788,-1.5788,-1.5996,-1.5983,-1.5832,-1.6195,-1.6327,-1.6162,-1.6068,-1.6503,-1.7412,-1.6478,-1.5951,-1.5858,-1.4682,-1.4084,-1.3957,-1.4029,-1.3683,-1.2992,-1.3962,-1.3672,-1.2621,-1.3889,-1.4008,-1.3522,-1.4499,-1.507,-1.5414,-1.5731,-1.5998,-1.6368,0.0,0.0,0.0,0.0,0.0,0.0,0.0,0.0,0.0,0.0,0.0,0.0,0.0,0.0,0.0,0.0,0.0,0.0,0.0,0.0,0.0,-1.2246,-1.233,-1.2472,-1.2591,-1.2627,-1.2883,-1.3376,-1.3305,-1.3509,-1.4032,-1.4097,-1.3568,-1.2573,-1.163,-1.092,-1.0437,-1.1045,-1.0695,-0.9859,-1.0776,0.0,0.0,0.0,0.0,0.0,0.0,0.0,0.0,-1.1571,-1.1571,-1.1485,-1.1029,0.0,0.0,0.0,0.0,0.0,-0.9603,-0.941,-0.9562,-1.0249,-1.0123,-0.9969,-1.0421,-1.0312,-1.004,-0.9873,-0.9873,-0.9932,-0.9967,-0.9939,-1.0202,-1.094,-1.0825,-1.1223,-1.2879,-1.3075,-1.3583,-1.4856,-1.4903,0.0,-1.5227,-1.533,-1.5377,-1.5478,-1.5377,-1.5377,-1.5478,-1.58,-1.5797,-1.5244,-1.5215,-1.5508,-1.6264,-1.5647,-1.5513,-1.5775,-1.4666,-1.438,-1.4704,-1.4457,-1.3885,-1.322,0.0,0.0,-1.243,-1.3719,-1.3988,-1.3624,-1.471,-1.5154,-1.5315,-1.5848,-1.6022,-1.6026,0.0,0.0,0.0,0.0,0.0,0.0,0.0,0.0,0.0,0.0,0.0,0.0,0.0,0.0,0.0,0.0,0.0,0.0,0.0,0.0,0.0,-1.2365,-1.2377,-1.2613,-1.3087,-1.2552,-1.271,-1.3622,-1.3316,-1.3141,-1.3198,-1.3528,-1.3032,-1.175,-1.1357,-1.0884,-1.0414,-1.0334,-1.0407,-1.0528,-1.0547,0.0,0.0,0.0,0.0,0.0,0.0,0.0,0.0,-1.1115,-1.1002,-1.0964,-1.0544,0.0,0.0,0.0,0.0,0.0,-0.9412,-0.8746,-0.8353,-0.9457,-0.946,-0.9182,-0.9275,-0.9253,-0.9102,-0.865,-0.8827,-0.9234,-0.9668,-0.998,-1.0326,-1.0829,-1.0848,-1.1001,-1.1604,0.0,-1.2178,-1.2283,0.0,-1.3303,-1.2879,-1.3071,-1.3437,-1.3884,-1.3532,-1.3474,-1.3931,-1.3877,-1.3691,-1.325,-1.3571,-1.374,-1.3851,-1.359,-1.3748,-1.4286,-1.3398,-1.2982,-1.3095,-1.3672,-1.3174,-1.1889,0.0,-1.3425,-1.1766,-1.3109,-1.3602,-1.3519,-1.3705,-1.4138,-1.4637,-1.4751,-1.4773,-1.4852,0.0,0.0,0.0,0.0,0.0,0.0,0.0,0.0,0.0,0.0,0.0,0.0,0.0,0.0,0.0,0.0,0.0,0.0,0.0,-1.1837,-1.175,-1.237,-1.2242,-1.2507,-1.3243,-1.2955,-1.314,-1.3899,-1.3496,-1.3355,-1.3531,-1.3443,-1.2806,-1.1737,-1.1582,-1.1154,-1.0677,-1.0671,-1.0787,-1.0954,0.0,0.0,0.0,0.0,0.0,0.0,0.0,0.0,0.0,0.0,-1.0802,-1.0572,-1.0147,0.0,0.0,0.0,0.0,0.0,-0.7936,-0.7538,-0.7305,-0.802,-0.8236,-0.8285,-0.8285,-0.8285,-0.8203,-0.7826,-0.8135,-0.8481,-0.8594,-0.8712,-0.8905,-0.9197,-0.9845,-1.0473,-1.0744,-1.108,-1.138,0.0,0.0,-1.2319,-1.2254,-1.2406,-1.2667,-1.3112,-1.3135,-1.3224,-1.3481,-1.342,-1.3186,-1.2723,-1.2704,-1.2645,-1.2535,-1.209,-1.256,-1.3872,-1.3103,-1.2692,-1.2712,-1.288,-1.2327,-1.135,0.0,-1.2353,-1.1115,-1.2397,-1.2728,-1.2454,-1.2804,-1.3346,-1.4028,-1.4396,-1.4526,-1.4565,0.0,0.0,0.0,0.0,0.0,0.0,0.0,0.0,0.0,0.0,0.0,0.0,0.0,0.0,0.0,0.0,0.0,0.0,0.0,-1.1733,-1.1575,-1.2289,-1.2173,-1.2456,-1.3286,-1.3244,-1.3466,-1.3937,-1.3597,-1.3611,-1.4014,-1.3454,-1.2778,-1.1997,-1.184,-1.1452,-1.0964,-1.1174,-1.126,-1.1298,0.0,0.0,0.0,0.0,0.0,0.0,0.0,0.0,0.0,0.0,0.0,0.0,0.0,0.0,0.0,-0.813,-0.7589,-0.7095,-0.6616,-0.6331,-0.622,-0.6416,-0.6943,-0.7362,-0.7461,-0.7391,-0.7231,-0.7003,-0.7251,-0.7442,-0.7235,-0.7281,-0.7463,-0.7688,-0.8812,-0.9678,-0.973,-1.0182,-1.0661,-1.109,-1.1182,-1.134,-1.1715,-1.1665,-1.19,-1.2556,-1.2767,-1.2955,-1.3221,-1.3162,-1.2917,-1.231,-1.2112,-1.1917,-1.1778,-1.1175,-1.1756,-1.3504,-1.2668,-1.2301,-1.2344,-1.1931,-1.1409,-1.0834,-1.1544,-1.1436,-1.0829,-1.1811,-1.2089,-1.1787,-1.2151,-1.2704,-1.3321,-1.3821,-1.407,-1.4079,0.0,0.0,0.0,0.0,0.0,0.0,0.0,0.0,0.0,0.0,0.0,-1.2484,0.0,0.0,0.0,0.0,0.0,0.0,0.0,-1.2031,-1.1861,-1.2123,-1.2152,-1.2544,-1.339,-1.3106,-1.3128,-1.3542,-1.3498,-1.3656,-1.4014,-1.3454,-1.2899,-1.2351,-1.2075,-1.1698,-1.1185,-1.1373,-1.1485,-1.1485,-1.1485,0.0,0.0,0.0,0.0,0.0,0.0,0.0,0.0,0.0,0.0,0.0,0.0,0.0,-0.7949,-0.7769,-0.7058,-0.6287,-0.6226,-0.5589,-0.4925,-0.4942,-0.5626,-0.6422,-0.6767,-0.6469,-0.6059,-0.5954,-0.5825,-0.5768,-0.5684,-0.6257,-0.6927,-0.7363,-0.8117,-0.8464,-0.8128,0.0,-0.9718,-0.9762,-0.9961,-1.0167,-1.032,-1.0115,-1.0558,-1.1939,-1.1631,-1.1754,-1.2593,-1.2528,-1.2137,-1.1429,-1.1679,-1.1688,-1.1326,-1.0922,-1.1352,-1.2565,-1.1608,-1.1218,-1.1313,-1.1042,-1.0523,-0.9969,-1.0894,-1.1175,-1.1076,-1.1421,-1.1903,-1.2389,-1.1787,-1.1965,-1.2573,-1.2634,-1.2757,-1.2895,0.0,0.0,0.0,0.0,0.0,0.0,0.0,0.0,0.0,0.0,0.0,-1.2508,-1.2674,-1.2627,-1.2473,0.0,0.0,0.0,-1.178,-1.1606,-1.1591,-1.1788,-1.1754,-1.2037,-1.2644,-1.3411,-1.4057,-1.4597,-1.4553,-1.4314,-1.4003,-1.3565,-1.3148,-1.2689,-1.2134,-1.1773,-1.156,-1.1608,-1.1608,-1.1575,-1.1002,-1.074,0.0,0.0,0.0,0.0,0.0,0.0,0.0,0.0,-0.8643,-0.8553,-0.7896,-0.7437,-0.6994,-0.6467,-0.5795,-0.5173,-0.5045,-0.456,-0.4118,-0.4309,-0.403,-0.3979,-0.5082,-0.5048,-0.4736,-0.4483,-0.4849,-0.5207,-0.5097,-0.5404,-0.5834,-0.6197,-0.6756,-0.7206,-0.731,-0.8032,-0.8508,-0.8402,-0.8823,-0.9249,-0.9562,-0.9413,-0.9665,-1.0561,-1.0615,-1.0893,-1.1587,-1.1569,-1.1535,-1.1479,-1.149,-1.1208,-1.0635,-1.0285,-1.0336,-1.0685,-1.0036,-0.9803,-0.9918,-0.9108,-0.8632,-0.8417,-0.8737,-0.9053,-0.9366,-0.989,-1.0315,-1.0704,-1.1279,-1.1663,-1.1911,-1.2328,-1.2573,-1.2573,0.0,0.0,0.0,0.0,0.0,0.0,0.0,0.0,-1.221,0.0,0.0,0.0,0.0,-1.2448,-1.233,0.0,0.0,0.0,-1.1836,-1.1699,-1.1675,-1.1752,-1.1754,-1.1867,-1.1995,-1.3461,-1.4435,-1.4789,-1.4834,-1.4553,-1.4065,-1.3699,-1.3316,-1.2982,-1.2374,-1.2054,-1.2043,-1.1786,-1.1693,-1.166,-1.0934,-1.0687,0.0,0.0,0.0,0.0,0.0,0.0,0.0,0.0,-0.7916,-0.7958,-0.728,-0.6726,-0.6225,-0.5624,-0.5092,-0.4571,-0.4085,-0.3672,-0.3373,-0.3406,-0.2716,-0.2283,-0.3152,-0.3481,-0.3614,-0.3576,-0.4034,-0.4382,-0.4314,-0.4432,-0.4597,0.0,-0.5309,-0.5858,-0.6401,-0.6965,-0.7379,-0.7664,-0.8043,-0.8421,-0.8896,-0.885,-0.9001,-0.9607,-0.9853,-1.0208,-1.0645,-1.0685,-1.0808,-1.0971,-1.0832,-1.0592,-1.0218,-0.9762,-0.9562,-0.9607,-0.8756,-0.8473,-0.8606,-0.7565,-0.7093,-0.7099,-0.7172,-0.7673,-0.8445,-0.9065,-0.9543,-0.9965,-1.0843,-1.124,-1.1303,-1.1725,-1.1903,-1.1965,0.0,0.0,0.0,0.0,0.0,0.0,-1.221,-1.2138,-1.2113,-1.221,-1.221,0.0,0.0,0.0,0.0,0.0,-1.2465,0.0,-1.2896,-1.2579,-1.2294,-1.2102,-1.2294,-1.2097,-1.1527,-1.3283,-1.4047,-1.3696,-1.4047,-1.4189,-1.4177,-1.3709,-1.3429,-1.3272,-1.2879,-1.2664,-1.2552,-1.1957,-1.1693,-1.1693,-1.156,-1.1474,-1.1328,0.0,0.0,0.0,0.0,0.0,0.0,0.0,-0.7024,-0.7207,-0.6737,-0.6208,-0.5743,-0.5454,-0.5127,-0.4638,-0.3488,-0.2993,-0.2639,-0.2023,-0.1778,-0.1534,-0.1096,-0.175,-0.268,-0.3433,-0.3314,-0.3133,-0.3275,-0.3218,-0.3263,-0.3447,-0.3907,-0.4446,-0.5285,-0.573,-0.6396,-0.7557,-0.7568,-0.7729,-0.8315,-0.8268,-0.8474,-0.9242,-0.9477,-0.9688,-0.9895,-1.0074,-0.9982,-0.9621,-0.9614,-0.9762,-1.0167,-0.9413,-0.9197,-0.9577,-0.7747,-0.7117,-0.7439,-0.6583,-0.6209,-0.6218,-0.6477,-0.7433,-0.8786,-0.912,-0.9773,-1.0555,-1.0618,-1.0618,-1.0618,-1.0618,-1.0681,-1.08,0.0,0.0,0.0,0.0,0.0,0.0,-1.221,-1.2138,-1.2113,-1.221,-1.221,0.0,0.0,0.0,0.0,0.0,0.0,-1.2353,-1.2149,-1.2387,-1.2307,-1.1779,-1.1763,-1.174,-1.1634,-1.262,-1.3485,-1.42,-1.3891,-1.3709,-1.3697,-1.3116,-1.285,-1.28,-1.2693,-1.2395,-1.2032,-1.1786,-1.1693,-1.166,-1.0923,-1.0614,-1.0473,0.0,0.0,0.0,0.0,0.0,0.0,0.0,0.0,0.0,-0.5738,-0.5827,-0.6023,-0.4218,-0.3559,-0.3137,-0.221,-0.1373,-0.075,-0.0767,-0.0196,0.0306,-0.0168,-0.0872,-0.1437,-0.1585,-0.1594,-0.1621,-0.1912,-0.2121,-0.2394,-0.28,-0.3085,-0.345,-0.3994,-0.4509,-0.5097,-0.5655,-0.6091,-0.6627,-0.7557,-0.7402,-0.7633,-0.8461,-0.8371,-0.8416,-0.8832,-0.9058,-0.919,-0.9192,-0.9446,-0.9458,-0.9086,-0.8935,-0.856,-0.7966,-0.7117,-0.6794,-0.6988,-0.5991,-0.5567,-0.5567,-0.5622,-0.623,-0.7194,-0.8348,-0.902,-0.9402,-1.0038,-1.0247,-1.0247,-1.0247,-1.0247,-1.0275,0.0,0.0,0.0,0.0,0.0,0.0,-1.221,-1.2174,-1.2138,-1.2174,-1.2174,-1.2176,0.0,0.0,0.0,-1.2335,-1.2589,-1.2659,-1.2535,-1.2584,-1.2424,-1.2091,-1.1759,-1.1733,-1.2046,-1.2058,-1.251,-1.3397,-1.3242,-1.3116,-1.3065,-1.2923,-1.2838,-1.2809,-1.3092,-1.2912,-1.2401,-1.2085,-1.1859,-1.166,-1.1024,-1.075,-1.0583,0.0,0.0,0.0,0.0,0.0,0.0,0.0,0.0,0.0,-0.5234,-0.5212,-0.5314,-0.3852,-0.2698,-0.1727,-0.0967,-0.0109,0.0489,0.0144,0.0639,0.1135,0.0792,0.0,-0.0574,-0.0507,-0.0559,-0.0748,-0.1151,-0.1457,-0.1776,-0.204,-0.226,-0.2598,-0.3056,-0.3325,-0.3767,-0.4422,-0.5008,-0.5671,-0.6453,-0.6701,-0.7007,-0.7475,-0.7484,-0.7591,-0.7804,-0.8132,-0.837,-0.8457,-0.8727,-0.8725,-0.8527,-0.8408,-0.7978,-0.723,-0.6804,-0.6475,-0.6195,-0.5563,-0.5297,-0.5301,-0.5643,-0.6063,-0.6633,-0.8096,-0.8755,-0.8851,-0.963,-0.9947,-0.9947,-0.9947,-1.002,-1.0074,0.0,0.0,-1.2873,-1.2709,0.0,-1.2437,-1.2246,-1.221,-1.2174,-1.2113,-1.2113,-1.2047,0.0,0.0,0.0,-1.2479,-1.3002,-1.3395,-1.3535,-1.2953,-1.2638,-1.2733,-1.2075,-1.1968,-1.2557,-1.1586,-1.1327,-1.1813,-1.2238,-1.2374,-1.2296,-1.2899,-1.3156,-1.3065,-1.3777,-1.3775,-1.3156,-1.2574,-1.208,-1.1645,-1.1522,-1.1485,-1.1339,-1.0032,0.0,0.0,0.0,0.0,0.0,0.0,0.0,0.0,-0.4998,-0.4412,-0.3985,-0.3836,-0.2233,-0.0342,0.0206,0.087,0.1319,0.0916,0.1003,0.1349,0.1877,0.0993,0.0101,0.0208,0.0051,-0.0199,-0.0671,-0.1016,-0.1231,-0.123,-0.1472,-0.183,-0.231,-0.2226,-0.2573,-0.3644,-0.4217,-0.4731,-0.5255,-0.6054,-0.6539,-0.6487,-0.684,-0.7007,-0.6799,-0.7206,-0.7482,-0.7508,-0.7576,-0.783,-0.8315,-0.7883,-0.7444,-0.7004,-0.6691,-0.6105,-0.5297,-0.5297,-0.5297,-0.536,-0.6187,-0.6544,-0.6677,-0.8086,-0.8649,-0.8707,-0.933,-0.9582,-0.9646,-0.9646,-0.9806,-0.9993,0.0,0.0,-1.2873,-1.2709,0.0,0.0,-1.2246,-1.221,-1.2174,-1.2113,-1.2222,-1.2318,-1.2318,-1.2239,0.0,-1.3141,-1.2986,-1.2973,-1.3272,-1.2849,-1.2532,-1.2354,-1.1991,-1.1901,-1.2201,-1.1547,-1.1148,-1.1109,-1.1277,-1.1322,-1.1311,-1.2201,-1.2534,-1.2425,-1.3054,-1.2957,-1.2312,-1.1844,-1.1556,-1.1469,-1.1421,-1.1346,-1.1153,-1.0306,-0.9698,0.0,0.0,0.0,0.0,0.0,0.0,0.0,-0.42,-0.3566,-0.2933,-0.1848,-0.0176,0.1272,0.1358,0.1878,0.2377,0.2261,0.2248,0.2479,0.3199,0.275,0.2085,0.1786,0.1288,0.0795,0.0479,-0.0236,-0.0754,-0.076,-0.1055,-0.1319,-0.1369,-0.1592,-0.1955,-0.2547,-0.3069,-0.3736,-0.4599,-0.511,-0.5601,-0.6169,-0.6196,-0.6119,-0.5978,-0.6318,-0.6537,-0.6646,-0.6905,-0.7289,-0.7681,-0.7408,-0.7025,-0.6539,-0.6273,-0.5837,-0.5297,-0.5297,-0.5297,-0.5356,-0.5986,-0.6004,-0.5686,-0.6934,-0.745,-0.7527,-0.8391,-0.8933,-0.9339,-0.9339,-0.9316,-0.9329,0.0,0.0,0.0,0.0,0.0,0.0,0.0,0.0,-1.2258,-1.2113,-1.2294,-1.2449,-1.2591,-1.2594,0.0,0.0,-1.3244,-1.309,-1.2938,-1.2908,-1.2673,-1.2174,-1.1788,-1.168,-1.1796,-1.1279,-1.0953,-1.0884,-1.0895,-1.093,-1.0965,-1.1952,-1.234,-1.2232,-1.2806,-1.2762,-1.2121,-1.1843,-1.1616,-1.1437,-1.1125,-1.0992,-1.0859,-0.9862,-0.9276,-0.8862,-0.7779,0.0,0.0,0.0,0.0,0.0,0.0,0.0,-0.2103,-0.0881,0.0511,0.1737,0.2183,0.2656,0.3094,0.3454,0.3448,0.3501,0.4096,0.3832,0.3403,0.3058,0.2177,0.1404,0.1211,0.0416,-0.0186,-0.0142,-0.0475,-0.0675,-0.0401,-0.0744,-0.103,-0.1078,-0.2102,-0.3075,-0.3852,-0.4538,-0.5041,-0.5434,-0.5565,-0.5574,-0.5534,-0.5714,-0.5838,-0.5913,-0.6042,-0.6322,-0.686,-0.6596,-0.6435,-0.6322,-0.6109,-0.5732,-0.5297,-0.5297,-0.5297,-0.5297,-0.5622,-0.5567,-0.5352,-0.6268,-0.6864,-0.7149,-0.7864,-0.8524,-0.9031,-0.9031,-0.9064,-0.9143,0.0,0.0,0.0,0.0,0.0,0.0,0.0,0.0,0.0,-1.2113,-1.233,-1.252,-1.2709,-1.2916,-1.3128,0.0,0.0,0.0,-1.2405,-1.2589,-1.2535,-1.2082,-1.1595,-1.1409,-1.1612,-1.1078,-1.0826,-1.0884,-1.0772,-1.0783,-1.0906,-1.1914,-1.23,-1.2221,-1.2718,-1.2633,-1.216,-1.2016,-1.1713,-1.1285,-1.0837,-1.0632,-1.048,-0.9361,-0.8911,-0.8705,-0.7592,-0.7077,-0.6751,-0.6014,0.0,0.0,0.0,0.0,-0.129,-0.0362,0.0762,0.1899,0.2737,0.3251,0.3737,0.4491,0.4545,0.4462,0.474,0.4512,0.4126,0.3943,0.2842,0.1876,0.1736,0.1018,0.0449,0.0515,0.0141,-0.0,0.039,0.0,-0.0186,0.0047,-0.1391,-0.265,-0.3193,-0.4122,-0.4721,-0.4721,-0.4928,-0.5091,-0.5091,-0.5147,-0.5181,-0.5274,-0.5176,-0.5424,-0.6058,-0.5849,-0.5827,-0.6046,-0.5946,-0.5677,-0.5297,-0.5297,-0.5297,-0.5297,-0.5297,-0.5297,-0.5352,-0.5832,-0.6505,-0.7193,-0.7628,-0.8234,-0.8878,-0.8824,-0.8958,-0.9077,0.0,0.0,0.0,0.0,0.0,0.0,0.0,0.0,0.0,0.0,-1.2473,-1.2768,-1.2768,-1.2806,-1.2865,-1.2897,-1.2314,-1.1787,-1.1412,0.0,0.0,-1.1895,-1.1376,-1.1386,-1.209,-1.1303,-1.0884,-1.0884,-1.0487,-1.0487,-1.0906,-1.1801,-1.221,-1.221,-1.2207,-1.2207,-1.207,-1.1488,-1.1015,-1.0641,-1.0756,-1.0575,-1.0222,-0.9761,-0.9537,-0.931,-0.8078,-0.7598,-0.7384,-0.6052,-0.5181,0.0,0.0,0.0,-0.0396,0.0158,0.1383,0.2557,0.2702,0.3643,0.4722,0.5293,0.526,0.5093,0.5274,0.4723,0.4139,0.393,0.3339,0.2676,0.2224,0.169,0.1246,0.1031,0.0677,0.0446,0.0649,0.0343,-0.0,-0.0384,-0.1401,-0.228,-0.2912,-0.3817,-0.4353,-0.4353,-0.4292,-0.4236,-0.4236,-0.4215,-0.4326,-0.471,-0.473,-0.4957,-0.5408,-0.5408,-0.5366,-0.5441,-0.5403,-0.5352,-0.5297,-0.5297,-0.5297,-0.5297,-0.5297,-0.5297,-0.5301,-0.5407,-0.6211,-0.7421,-0.7269,-0.8027,-0.9097,-0.8898,-0.8831,-0.8858,0.0,0.0,0.0,0.0,0.0,0.0,0.0,0.0,0.0,0.0,0.0,-1.2896,-1.2988,-1.2829,-1.2704,-1.2704,-1.2073,-1.1653,-1.1533,-1.0707,-1.0712,-1.1808,-1.1376,-1.1227,-1.1406,-1.1029,-1.0717,-1.0443,-1.0245,-1.0388,-1.0871,-1.1501,-1.1828,-1.1828,-1.179,-1.1752,-1.173,-1.1068,-1.082,-1.084,-1.0278,-1.0122,-1.0164,-0.9736,-0.9367,-0.898,-0.8416,-0.7878,-0.7246,-0.6175,-0.5262,-0.4375,-0.3425,0.0,0.0,0.0,0.1007,0.2276,0.2977,0.4119,0.5204,0.5524,0.5524,0.5576,0.5945,0.5293,0.4593,0.4515,0.3926,0.3231,0.2696,0.2058,0.1635,0.1668,0.136,0.1191,0.1463,0.0888,0.0612,0.1129,-0.0556,-0.2232,-0.3353,-0.3653,-0.384,-0.4064,-0.4016,-0.3969,-0.3967,-0.3873,-0.3837,-0.4012,-0.3939,-0.4056,-0.4521,-0.4206,-0.4299,-0.4706,-0.4805,-0.5018,-0.5297,-0.5297,-0.5297,-0.5297,-0.5297,-0.5297,-0.5297,-0.5297,-0.6055,-0.728,-0.7122,-0.7942,-0.915,-0.8918,-0.8911,-0.9025,0.0,0.0,0.0,0.0,0.0,0.0,0.0,0.0,0.0,0.0,0.0,-1.3012,-1.3173,0.0,0.0,0.0,-1.164,-1.1219,-1.1235,-1.0391,-1.0368,-1.1441,-1.1136,-1.0911,-1.0826,-1.0791,-1.055,-1.0102,-1.0102,-1.0354,-1.0802,-1.1162,-1.1402,-1.1496,-1.1616,-1.1594,-1.1463,-1.082,-1.0749,-1.0911,-1.0174,-1.0015,-1.0224,-1.004,-0.9701,-0.9272,-0.8934,-0.8301,-0.7495,-0.6382,-0.5349,-0.4306,-0.3249,-0.194,0.0,0.0,0.0,0.2107,0.3433,0.4547,0.537,0.5566,0.5675,0.5859,0.6293,0.558,0.489,0.501,0.4398,0.3655,0.3184,0.2542,0.2129,0.2163,0.1935,0.1826,0.2016,0.1323,0.1073,0.1851,-0.0043,-0.1947,-0.3318,-0.3455,-0.3556,-0.3851,-0.3836,-0.386,-0.3879,-0.3654,-0.3486,-0.3521,-0.3271,-0.3268,-0.3518,-0.3145,-0.3303,-0.3915,-0.4076,-0.4365,-0.4791,-0.4973,-0.5035,-0.5128,-0.5242,-0.5297,-0.5297,-0.5297,-0.5977,-0.7002,-0.7052,-0.7888,-0.8978,-0.8858,-0.8945,-0.9044,0.0,0.0,0.0,0.0,0.0,0.0,0.0,0.0,0.0,0.0,0.0,-1.3094,-1.3094,-1.2182,-1.1577,-1.1668,-1.0523,-0.977,-0.9717,-0.9479,-0.9723,-1.0614,-1.0406,0.0,-1.0873,-1.0826,-1.055,-1.0102,-1.0102,-1.0354,-1.0791,-1.0823,-1.1075,-1.1507,-1.1914,-1.1832,-1.1389,-1.0976,-1.0608,-1.0374,-1.0771,-1.0696,-1.0456,-1.108,-1.1325,-1.1173,-0.9848,-0.9172,-0.8613,-0.6715,-0.5373,-0.4338,-0.331,-0.1956,-0.0652,0.0,0.0,0.0,0.4113,0.4816,0.5207,0.5505,0.5744,0.5932,0.6088,0.5383,0.4805,0.5122,0.461,0.3988,0.3695,0.3409,0.3027,0.2402,0.227,0.2159,0.1874,0.1482,0.1057,0.0588,-0.0326,-0.1279,-0.2091,-0.3138,-0.3773,-0.3806,-0.3751,-0.3722,-0.3782,-0.3416,-0.3237,-0.3216,-0.3024,-0.2823,-0.2568,-0.26,-0.2801,-0.3171,-0.3179,-0.3238,-0.3395,-0.3984,-0.4378,-0.4574,-0.5077,-0.5297,-0.5297,-0.5297,-0.5836,-0.6766,-0.7007,-0.7663,-0.8466,-0.8691,-0.8818,-0.8831,0.0,0.0,0.0,0.0,0.0,0.0,0.0,0.0,0.0,0.0,0.0,0.0,0.0,-1.245,-1.1949,-1.1254,-1.0276,-0.9632,-0.942,-0.9464,-0.9625,-0.9875,-0.9927,-0.9918,-0.9862,-0.983,-0.9602,-0.9141,-0.9397,-0.9798,-1.0376,-1.0905,-1.1248,-1.1421,-1.127,-1.1454,-1.1766,-1.0454,-1.0523,-1.1487,-1.0852,-1.0925,-1.138,-1.1643,-1.1671,-1.1484,-1.0751,-0.9947,-0.9063,-0.7839,-0.6408,-0.4922,-0.4114,-0.2613,-0.09,0.0404,0.1738,0.2888,0.3415,0.4251,0.5024,0.5166,0.5385,0.5659,0.5904,0.5736,0.5538,0.5458,0.5178,0.4909,0.482,0.3981,0.3157,0.2692,0.2477,0.2234,0.1915,0.1412,0.0977,0.0625,-0.0215,-0.0771,-0.076,-0.1265,-0.2082,-0.3283,-0.353,-0.3509,-0.323,-0.323,-0.3144,-0.3021,-0.2926,-0.2622,-0.2067,-0.1882,-0.2018,-0.2387,-0.2497,-0.2813,-0.3287,-0.352,-0.3966,-0.4519,-0.4684,-0.4963,-0.5297,-0.5297,-0.5716,-0.6368,-0.651,-0.7054,-0.7846,-0.8141,-0.8369,-0.8555,0.0,0.0,0.0,-1.4407,0.0,-1.3926,-1.2904,-1.3082,-1.3188,-1.2807,0.0,0.0,0.0,0.0,-1.1964,-1.1069,-1.0426,-0.9888,-0.9533,-0.9556,-0.9516,-0.9447,-0.955,-0.952,-0.9299,-0.9288,-0.9079,-0.86,-0.9031,-0.942,-0.9809,-1.0718,-1.1136,-1.1125,-1.064,-1.0928,-1.1685,-1.0414,-1.0665,-1.1882,-1.1139,-1.1357,-1.218,-1.2209,-1.2167,-1.2003,-1.1414,-1.0532,-0.9478,-0.8432,-0.6967,-0.5408,-0.4532,-0.2872,-0.0868,0.0958,0.211,0.2892,0.3312,0.4012,0.4725,0.5231,0.5273,0.5312,0.5851,0.5802,0.5635,0.548,0.5331,0.5194,0.5137,0.4361,0.3573,0.315,0.2924,0.2615,0.2091,0.1507,0.1056,0.086,0.0131,-0.0232,-0.0,-0.0282,-0.1044,-0.2521,-0.2938,0.0,-0.2903,-0.2947,-0.2856,-0.262,-0.2492,-0.2142,-0.1616,-0.1361,-0.1384,-0.1649,-0.1743,-0.2047,-0.2567,-0.2756,-0.3309,-0.4125,-0.4294,-0.4739,-0.5297,-0.5297,-0.5513,-0.5941,-0.61,-0.6569,-0.7123,-0.7507,-0.7775,-0.8007,-1.5268,-1.5118,-1.4797,-1.4066,-1.3997,-1.3741,-1.2872,-1.3257,-1.3492,-1.3081,0.0,0.0,0.0,0.0,0.0,-1.1061,-1.0816,-1.0469,-0.991,-0.9627,-0.9431,-0.9275,-0.9267,-0.9278,-0.9288,-0.9278,-0.9079,-0.8611,-0.9061,-0.9247,-0.9217,-1.0143,-1.0594,-1.0664,-1.0088,-1.0288,-1.1069,-1.0854,-1.1032,-1.1449,-1.1618,-1.2099,-1.2737,-1.2871,-1.2978,-1.2963,-1.1825,-1.0873,-0.9889,-0.8371,-0.7,-0.5732,-0.4536,-0.2653,-0.0546,0.1202,0.1933,0.2511,0.0,0.0,0.0,0.5715,0.5382,0.4951,0.5841,0.5531,0.5057,0.517,0.5055,0.4852,0.4666,0.4581,0.4323,0.37,0.3602,0.3274,0.242,0.1801,0.1329,0.1134,0.068,0.0314,0.0045,-0.0269,-0.0807,-0.1614,-0.1925,-0.2325,-0.2848,-0.2708,-0.242,-0.2015,-0.1654,-0.141,-0.1212,-0.0996,-0.0907,-0.0907,-0.0907,-0.0978,-0.1121,-0.1732,-0.2435,-0.3287,-0.3898,-0.457,-0.5297,-0.5297,-0.5297,-0.5352,-0.5941,-0.6154,-0.6263,-0.6864,-0.7085,-0.7139,-1.5797,-1.5492,-1.5241,-1.5007,-1.4814,-1.4435,-1.3813,-1.403,-1.4039,0.0,0.0,0.0,-1.2761,-1.2008,-1.164,-1.1846,-1.1003,-1.0224,-0.9567,-0.9226,-0.8911,-0.8508,-0.8682,-0.8959,-0.9288,-0.8981,-0.8905,-0.9093,-0.9174,-0.9228,-0.9217,-0.9831,-1.0089,-1.0066,-1.0026,-1.0131,-1.0358,-0.9903,-1.081,-1.2456,-1.192,-1.2328,-1.3242,-1.302,-1.2978,-1.3012,-1.2177,-1.1326,-1.0368,-0.9326,-0.7982,-0.6306,-0.3789,-0.1959,-0.0415,0.128,0.205,0.2572,0.3655,0.0,0.0,0.0,0.0,0.0,0.5019,0.5318,0.562,0.5436,0.5378,0.5345,0.532,0.5074,0.464,0.3923,0.356,0.3101,0.2281,0.1997,0.1655,0.0973,0.0744,0.0652,0.0762,0.0554,-0.0093,0.0,-0.1612,-0.1998,-0.2375,-0.2327,-0.2185,-0.1887,-0.1626,-0.1417,-0.1207,-0.0978,-0.0885,-0.0885,-0.0885,-0.0945,-0.1122,-0.1277,-0.1829,-0.2734,-0.3287,-0.4012,-0.4739,-0.5132,-0.5297,-0.5297,-0.5458,-0.5567,-0.5618,-0.6213,-0.6426,-0.6534,-1.594,-1.5653,-1.5418,-1.5359,-1.5348,-1.5134,-1.4495,-1.4797,-1.4808,0.0,0.0,0.0,-1.2928,-1.2531,-1.2332,-1.2341,-1.1368,-1.0594,-1.0258,-0.9408,-0.8883,-0.8857,-0.8827,-0.9004,-0.9393,-0.9219,-0.9172,-0.9269,-0.937,-0.9263,-0.8937,-0.9542,-0.9723,-0.951,-0.9753,-0.9928,-1.008,-0.9647,-1.0624,-1.2467,-1.2033,-1.2474,-1.3254,-1.2708,-1.2579,-1.2567,-1.1658,-1.1082,-1.0479,-0.9153,-0.7508,-0.5705,-0.3714,-0.194,-0.0312,0.1195,0.2103,0.2837,0.3957,0.4416,0.4727,0.5261,0.0,0.0,0.5118,0.5257,0.5373,0.0,0.5144,0.517,0.5085,0.4822,0.4438,0.3777,0.3427,0.3015,0.2423,0.2361,0.2041,0.1284,0.09,0.0771,0.0896,0.0642,0.0092,-0.0897,-0.1374,-0.176,-0.2209,-0.2117,-0.1938,-0.1748,-0.1533,-0.1261,-0.1089,-0.0944,-0.0898,-0.0898,-0.0898,-0.0954,-0.101,-0.1066,-0.1568,-0.2402,-0.279,-0.3569,-0.4519,-0.4853,-0.5077,-0.5297,-0.5297,-0.5297,-0.5352,-0.5673,-0.5837,-0.5887,0.0,-1.5725,-1.5551,-1.5476,-1.5787,-1.5813,-1.517,-1.5574,-1.5618,0.0,-1.4523,-1.4153,-1.3386,-1.3423,-1.3239,-1.2556,-1.1736,-1.1256,-1.1273,-0.9848,-0.9178,-0.9616,-0.9286,-0.9256,-0.9532,-0.9797,-0.9724,-0.9294,-0.9585,-0.9307,-0.852,-0.9296,-0.9456,-0.907,-0.931,-0.9674,-1.0042,-0.996,-1.0699,-1.1912,-1.1964,-1.2448,-1.299,-1.221,-1.1993,-1.1936,-1.083,-1.0547,-1.0419,-0.8415,-0.6395,-0.466,-0.4115,-0.2405,-0.0359,0.1038,0.2096,0.3135,0.4508,0.4572,0.4633,0.6253,0.5695,0.0,0.5564,0.5239,0.4746,0.0,0.4619,0.4651,0.4345,0.421,0.3971,0.3466,0.325,0.3049,0.2744,0.2711,0.2437,0.1728,0.1108,0.0686,0.0716,0.0448,-0.0,-0.0671,-0.1208,-0.1729,-0.2262,-0.1996,-0.1775,-0.1692,-0.1383,-0.1084,-0.0897,-0.0898,-0.0898,-0.0898,-0.0898,-0.0898,-0.0898,-0.1066,-0.1457,-0.2128,-0.2402,-0.3178,-0.4294,-0.4463,-0.4798,-0.5297,-0.5297,-0.5297,-0.5297,-0.5297,-0.5297,-0.5352,-1.649,-1.6285,-1.6205,-1.6473,-1.6453,-1.65,-1.6698,-1.6391,-1.6261,-1.6599,-1.5874,-1.501,-1.4103,-1.368,-1.3239,-1.2556,-1.1983,-1.1364,-1.066,-0.9935,-0.9226,-0.8555,-0.8985,-0.9391,-0.9644,-0.9918,-1.0026,-0.9928,-0.9571,-0.9077,-0.851,-0.8682,-0.88,-0.885,-0.8906,-0.9242,-0.9836,-1.0922,-1.1554,-1.1784,-1.1511,-1.2058,-1.299,-1.221,-1.1993,-1.2029,-1.1476,-1.1089,-1.055,-0.8651,-0.698,-0.548,-0.4447,-0.2947,-0.1111,0.1008,0.1977,0.2686,0.4306,0.4601,0.4542,0.5009,0.5155,0.0,0.4648,0.4678,0.4751,0.0,0.4441,0.4361,0.4307,0.4312,0.4112,0.342,0.3374,0.3239,0.2785,0.2695,0.2366,0.1483,0.0962,0.0686,0.0716,0.0629,0.0224,-0.0626,-0.1524,-0.2117,-0.2224,-0.1968,-0.1704,-0.1529,-0.1312,-0.1084,-0.0897,-0.0898,-0.0898,-0.0898,-0.0898,-0.0898,-0.0898,-0.1066,-0.1234,-0.1514,-0.2179,-0.2734,-0.3125,-0.4125,-0.4798,-0.5297,-0.5297,-0.5297,-0.5297,-0.5297,-0.5297,-0.5297,-1.6717,-1.6543,-1.6557,-1.7055,-1.7105,-1.7151,-1.7441,-1.7286,-1.7084,-1.7064,-1.6302,-1.5422,-1.4556,-1.3926,-1.3301,-1.2556,-1.1976,-1.1546,-1.1319,-1.0222,-0.9558,-0.9435,-0.9355,-0.9424,-0.974,-1.0352,-1.0332,-0.9698,-0.9961,-0.9547,-0.851,-0.884,-0.8978,-0.8956,-0.9134,-0.9376,-0.9734,-1.0513,-1.1372,-1.2188,-1.2272,-1.2626,-1.3069,-1.2282,-1.2066,-1.2031,-1.1191,-1.0365,-0.9531,-0.8677,-0.7136,0.0,-0.4604,-0.2965,-0.1016,0.0,0.1958,0.3006,0.4227,0.4543,0.0,0.5042,0.0,0.0,0.0,0.4531,0.4526,0.4431,0.4415,0.4356,0.413,0.4015,0.3775,0.3235,0.3147,0.3018,0.2654,0.2263,0.1825,0.1373,0.0925,0.0686,0.0716,0.0449,-0.0224,-0.1344,-0.1928,-0.2129,-0.1989,-0.1778,-0.1548,-0.1346,-0.1181,-0.0992,-0.0898,-0.0898,-0.0898,-0.0898,-0.0898,-0.0898,-0.0898,-0.1122,-0.1234,-0.1347,-0.1905,-0.2348,-0.2736,-0.3347,-0.4125,-0.4908,-0.5187,-0.5297,-0.5297,-0.5297,-0.5353,-0.5414,-1.6785,-1.6691,-1.6763,-1.7387,-1.7517,-1.7599,-1.7732,-1.7773,-1.7531,-1.69,-1.6487,-1.5952,-1.5158,-1.4449,-1.3802,-1.3204,-1.252,-1.2189,-1.2411,-1.0931,-1.0262,-1.0662,-1.0046,-0.9821,-1.0077,-1.0873,-1.0698,-0.9532,-1.032,-0.999,-0.8622,-0.9127,-0.9304,-0.9233,-0.9512,-0.9663,-0.981,-1.0133,-1.1127,-1.2532,-1.3168,-1.3395,-1.3263,-1.2496,-1.2174,-1.2008,-1.0791,-0.9629,-0.8658,-0.8588,-0.7144,-0.5269,-0.449,-0.2788,0.0,0.0,0.0,0.0,0.0,0.0,0.0,0.0,0.0,0.4538,0.0,0.0,0.0,0.4285,0.0,0.0,0.3932,0.0,0.0,0.294,0.0,0.0,0.0,0.1709,0.0,0.1178,0.0888,0.0602,0.0317,-0.0181,-0.0954,-0.202,-0.2189,-0.2127,-0.1876,-0.1649,-0.1448,-0.1225,-0.0992,-0.0898,-0.0898,-0.0898,-0.0898,-0.0898,-0.0898,-0.0898,-0.0898,-0.1178,-0.1234,-0.129,-0.1628,-0.2018,-0.2516,-0.2625,-0.3292,-0.4405,-0.4908,-0.5187,-0.5297,-0.5297,-0.5386,-0.5547,-1.6785,-1.6811,-1.6982,-1.7358,-1.7415,-1.7455,-1.7513,-1.7154,-1.6749,-1.6494,-1.7049,-1.7236,-1.6541,-1.5732,-1.5277,-1.5486,-1.4747,-1.3958,-1.3322,-1.2556,-1.1708,-1.0644,-1.0952,-1.116,-1.1149,-1.1398,-1.1155,-1.0371,-1.008,-0.9608,-0.9038,-0.8923,-0.9181,-0.9717,-0.9699,-0.9837,-1.0135,-1.1204,-1.179,-1.2075,-1.3135,-1.3657,-1.3728,-1.289,-1.2354,-1.1993,-1.1004,-1.0223,-0.9499,0.0,-0.7231,-0.5851,0.0,-0.2525,-0.1299,0.0741,0.0,0.0,0.0,0.0,0.0,0.0,0.4727,0.0,0.0,0.0,0.4222,0.4222,0.0,0.0,0.0,0.0,0.0,0.2469,0.0,0.0,0.2637,0.1446,0.0603,0.0662,0.0647,0.0174,-0.0986,-0.1368,-0.1578,-0.1734,-0.2215,-0.2309,-0.2004,-0.1767,-0.154,-0.1226,-0.0992,-0.0898,-0.0898,-0.0898,-0.0898,-0.0898,-0.0898,-0.0898,-0.0898,-0.1066,-0.1122,-0.1122,-0.1459,-0.1684,-0.1738,-0.2291,-0.3014,-0.3738,-0.4349,-0.4908,-0.5297,-0.5297,-0.5313,-0.5349,-1.6785,-1.6811,-1.7008,-1.7595,-1.7525,-1.7511,-1.785,-1.7659,-1.7528,-1.7766,-1.7678,-1.7487,-1.7036,-1.6164,-1.5569,-1.5466,-1.5004,-1.4358,0.0,-1.2914,-1.2256,-1.1373,-1.1243,-1.1034,-1.0741,-1.1111,-1.079,-0.9695,-0.9985,-0.9779,-0.912,-0.9301,-0.9745,-1.0389,-1.0385,-1.0918,-1.1783,-1.2038,-1.2716,-1.3631,-1.3462,-1.3794,-1.4236,-1.3198,-1.2425,-1.1774,-1.0514,-0.9758,-0.9147,0.0,-0.6271,0.0,0.0,0.0,0.0,0.0488,0.0,0.0,0.0,0.0,0.0,0.0,0.0,0.0,0.3956,0.0,0.3867,0.0,0.0,0.0,0.0,0.0,0.0,0.0,0.2628,0.2706,0.0,0.0,0.1218,0.0617,0.0,0.0,-0.1784,-0.1148,-0.097,-0.1789,-0.1849,-0.1792,-0.1764,-0.1621,-0.1398,-0.1153,-0.1002,-0.0898,-0.0898,-0.0898,-0.0898,-0.0898,-0.0898,-0.0898,-0.0898,-0.1066,-0.1122,-0.1122,-0.1347,-0.1403,-0.1459,-0.1681,-0.2235,-0.3019,-0.3704,-0.4538,-0.5313,-0.541,-0.5571,-0.5661,-1.7014,-1.6929,-1.6997,-1.7519,-1.7409,-1.7392,-1.7777,-1.7852,-1.7993,-1.8441,-1.8059,-1.774,-1.7626,-1.6856,-1.6323,-1.627,-1.5807,-1.5246,0.0,-1.3827,-1.319,-1.2612,-1.2,-1.1523,-1.1204,-1.1176,-1.0638,-0.9585,-0.9985,-0.9932,-0.947,-0.9824,-1.0383,-1.1081,-1.1202,-1.1871,-1.2855,-1.27,-1.3367,-1.4483,-1.3752,-1.3875,-1.4307,-1.308,-1.2354,-1.1726,-1.007,-0.9315,-0.889,-0.7091,-0.5599,0.0,-0.3778,-0.2228,-0.0492,0.0,0.0,0.0,0.3328,0.0,0.0,0.0,0.0,0.0,0.0,0.0,0.0,0.0,0.0,0.0,0.0,0.0,0.3007,0.2543,0.0,0.2673,0.2415,0.2061,0.0,0.0,0.0,0.0,0.0,-0.0864,-0.0914,-0.1713,-0.1649,-0.1606,-0.1636,-0.1471,-0.1299,-0.1121,-0.0954,-0.0898,-0.0898,-0.0898,-0.0898,-0.0898,-0.0898,-0.0898,-0.0898,-0.101,-0.1066,-0.1066,-0.1178,-0.1234,-0.1234,-0.129,-0.1792,-0.2579,-0.3157,-0.4073,-0.511,-0.5509,-0.5742,-0.5807,-1.7511,-1.7236,-1.6879,-1.6843,-1.6885,-1.6923,-1.6953,-1.7215,-1.75,-1.7726,-1.7995,-1.8293,-1.8606,-1.815,-1.8192,-1.9088,0.0,-1.7242,-1.7115,0.0,-1.4929,-1.4362,-1.3735,-1.3443,-1.3471,-1.2066,-1.1155,-1.0822,-1.0029,-0.9873,-1.0363,-1.0444,-1.0937,-1.1767,-1.2109,-1.2341,-1.2551,-1.3205,-1.3517,-1.3674,-1.3828,-1.3848,-1.3705,0.0,-1.2102,-1.2102,-0.9895,0.0,0.0,-0.7133,-0.5739,0.0,0.0,0.0,0.0,0.0,0.0,0.0,0.0,0.0,0.0,0.467,0.0,0.0,0.0,0.0,0.3734,0.0,0.0,0.0,0.0,0.3783,0.3316,0.2537,0.2685,0.0,0.0,0.1606,0.0678,-0.0334,-0.0181,0.0,0.0,-0.1042,-0.2123,0.0,-0.1845,-0.2115,-0.1696,-0.1437,-0.1245,-0.1121,-0.0954,-0.0898,-0.0898,-0.0898,-0.0898,-0.0898,-0.0898,-0.0898,-0.0898,-0.0898,-0.0898,-0.0898,-0.1066,-0.1122,-0.1122,-0.1234,-0.1792,-0.2529,-0.2757,-0.355,-0.4636,-0.5572,-0.577,-0.5669,-1.8234,-1.7543,-1.6971,-1.739,-1.7035,-1.6964,-1.7714,-1.7614,-1.8131,0.0,-2.0085,0.0,0.0,-2.0939,-2.0446,0.0,0.0,-1.7791,-1.6823,-1.6014,0.0,-1.4629,-1.4387,-1.3889,-1.3023,-1.2479,-1.1751,-1.0826,-1.0756,-1.0807,-1.0948,-1.1228,-1.1678,-1.2266,-1.2708,-1.3317,-1.4022,-1.4206,-1.4454,-1.4699,-1.4265,-1.3991,-1.3705,0.0,-1.2283,-1.1982,-0.9732,-0.8537,0.0,-0.6446,-0.4817,-0.3375,-0.307,-0.1647,0.0045,0.0491,0.1912,0.0,0.0,0.0,0.4615,0.3925,0.0,0.0,0.0,0.0,0.0,0.0,0.0,0.0,0.0,0.3671,0.3398,0.2844,0.2937,0.2898,0.0,0.1662,0.0927,0.02,0.0212,0.0308,0.0,0.0,0.0,0.0,-0.1256,0.0,-0.1488,-0.1367,-0.1299,-0.1233,-0.1122,-0.101,-0.0898,-0.0898,-0.0898,-0.0898,-0.0898,-0.0898,-0.0898,-0.0898,-0.0898,-0.0898,-0.0954,-0.0954,-0.0955,-0.1149,-0.1448,-0.1864,-0.297,-0.3668,-0.4189,-0.5061,-0.5523,-0.5821,-1.8991,-1.8038,-1.7257,-1.7674,-1.7345,-1.7286,-1.816,-1.8286,-1.9025,0.0,-2.1316,0.0,-2.2817,0.0,-2.1806,0.0,-1.9917,-1.8667,-1.7653,-1.6735,0.0,-1.5439,-1.5065,-1.4461,-1.3603,-1.3143,-1.2448,-1.1488,-1.1543,-1.1572,-1.1603,-1.1926,-1.2354,-1.2869,-1.3288,-1.3928,-1.4776,-1.4745,-1.4872,-1.5019,-1.4274,-1.376,0.0,0.0,-1.2262,-1.1887,0.0,-0.8309,-0.7665,-0.6192,-0.473,-0.3372,-0.2758,-0.1425,0.0089,0.0669,0.1916,0.3087,0.2685,0.353,0.0,0.3778,0.3851,0.0,0.4341,0.0,0.0,0.0,0.0,0.0,0.0,0.3752,0.3723,0.3086,0.3152,0.2997,0.0,0.1672,0.1222,0.0603,0.0671,0.043,-0.0387,0.0,0.0,0.0,0.0,0.0,0.0,-0.1239,-0.1176,-0.1288,-0.1122,-0.101,-0.0898,-0.0898,-0.0898,-0.0898,-0.0898,-0.0898,-0.0898,-0.0898,-0.0898,-0.0898,-0.0898,-0.0898,-0.0899,-0.1091,-0.1284,-0.154,-0.2857,-0.3588,-0.4012,-0.5091,-0.5728,-0.6133,-1.9734,-1.8752,-1.7732,-1.776,-1.7745,-1.7864,0.0,0.0,-2.005,0.0,-2.1655,-2.2192,-2.2873,-2.2569,-2.237,-2.2463,-2.0953,-1.9907,-1.9642,-1.8054,0.0,0.0,-1.5758,-1.5205,-1.5228,-1.4009,-1.319,-1.2745,-1.2338,-1.2189,-1.2319,-1.2526,-1.2915,-1.348,-1.3769,-1.4178,-1.4697,-1.4761,-1.4743,-1.4644,-1.3882,-1.326,-1.2773,-1.2191,-1.2038,-1.1768,-0.9241,-0.8472,-0.8358,-0.6362,-0.5293,-0.45,-0.2615,-0.1334,-0.0312,0.076,0.1834,0.271,0.277,0.3547,0.4349,0.4191,0.0,0.0,0.0,0.0,0.412,0.0,0.0,0.0,0.0,0.0,0.4232,0.3258,0.3286,0.3013,0.188,0.1717,0.1482,0.0925,0.1181,0.0804,-0.0845,-0.0774,0.0,0.0,0.0,-0.1381,-0.1555,-0.1109,-0.0991,-0.1287,-0.1066,-0.0898,-0.0898,-0.0898,-0.0898,-0.0898,-0.0898,-0.0898,-0.0898,-0.0898,-0.0898,-0.0898,-0.0898,-0.0898,-0.0898,-0.1068,-0.1205,-0.1482,-0.2439,-0.3263,-0.4134,-0.5625,-0.628,-0.642,-1.9688,-1.9072,-1.8485,-1.8633,-1.8159,-1.8035,0.0,0.0,0.0,0.0,-2.2584,-2.3347,-2.4587,-2.4246,-2.3722,-2.324,-2.1499,0.0,0.0,0.0,0.0,-1.7226,-1.7008,-1.6449,-1.55,-1.5003,-1.4262,-1.3288,-1.305,-1.2744,-1.2376,-1.2687,-1.2898,-1.3069,-1.348,-1.3978,-1.4474,-1.4434,-1.451,-1.4541,-1.3535,-1.3249,-1.3256,0.0,-1.1193,-1.0656,-0.9045,-0.7792,-0.6807,-0.5984,-0.4865,-0.3639,-0.2893,-0.1646,-0.0312,0.0402,0.1564,0.2647,0.2409,0.3041,0.3819,0.3802,0.3725,0.3896,0.0,0.0,0.0,0.0,0.0,0.0,0.0,0.0,0.0,0.2957,0.2475,0.2136,0.1869,0.1762,0.0,0.1492,0.1603,0.1356,0.0491,-0.0384,-0.0732,0.0,0.0,0.0,-0.1356,0.0,-0.1252,-0.1287,-0.1234,-0.1122,-0.0898,-0.0898,-0.0898,-0.0898,-0.0898,-0.0898,-0.0898,-0.0898,-0.0898,-0.0898,-0.0898,-0.0898,-0.0899,-0.1153,-0.1305,-0.1408,-0.2075,-0.3361,-0.4904,-0.5866,-0.628,-0.642,-2.0273,-1.9972,-1.9671,-1.9687,-1.9752,0.0,-1.9803,-2.003,0.0,-2.2561,-2.3007,0.0,-2.4969,-2.4729,-2.422,-2.3577,-2.2002,0.0,-2.0212,0.0,0.0,-1.7797,-1.7565,-1.718,-1.6662,-1.5987,0.0,-1.4387,-1.4037,-1.3434,-1.2615,-1.2873,-1.2943,-1.2943,-1.3263,-1.3661,-1.3978,-1.389,-1.3949,-1.399,-1.2984,-1.2571,0.0,-1.1358,-1.0371,-0.9479,-0.8749,-0.766,-0.6518,-0.5905,-0.4995,-0.3906,-0.2755,-0.1779,-0.0756,0.0491,0.1432,0.215,0.2199,0.2726,0.3315,0.3348,0.3404,0.3719,0.4724,0.4974,0.4916,0.0,0.0,0.0,0.0,0.0,0.0,0.3066,0.2512,0.2099,0.2017,0.0,0.0,0.0,0.1594,0.1426,0.1103,0.0169,-0.0338,0.0,0.0,0.0,0.0,0.0,-0.1088,-0.1315,-0.128,-0.1178,-0.0898,-0.0954,-0.0954,-0.0898,-0.0898,-0.0898,-0.0898,-0.0898,-0.0898,-0.0898,-0.0898,-0.0898,-0.0899,-0.0916,-0.089,-0.0992,-0.1871,-0.3368,-0.5153,-0.5679,-0.6083,-0.642,-2.1054,-2.1037,-2.0971,-2.0805,-2.1683,0.0,0.0,-2.1078,0.0,-2.2879,0.0,-2.357,-2.4433,-2.4403,-2.403,-2.3435,0.0,-2.1068,-2.0248,-1.9482,-1.8863,-1.8418,-1.7774,-1.7571,-1.7908,-1.6773,-1.5948,0.0,-1.4866,-1.4013,-1.2861,-1.2955,-1.2955,-1.2861,-1.3057,-1.3227,-1.3488,-1.335,-1.3332,-1.3328,-1.2327,-1.1631,-1.1185,-1.0695,-0.9662,-0.848,-0.848,-0.7758,-0.67,-0.5947,-0.5351,-0.4565,-0.2571,-0.1866,-0.1421,0.058,0.1299,0.1523,0.1973,0.246,0.281,0.2898,0.3164,0.3602,0.4399,0.4501,0.4323,0.4013,0.424,0.4032,0.0,0.0,0.0,0.3239,0.2785,0.0,0.0,0.0,0.0,0.0,0.0,0.0,0.1323,0.0,0.0,0.0,0.0,0.0,0.0,0.0,-0.0771,-0.1286,-0.1327,-0.1181,-0.096,-0.1012,-0.1012,-0.096,-0.0899,-0.0898,-0.0898,-0.0898,-0.0898,-0.0898,-0.0898,-0.0898,-0.0898,-0.0561,-0.0408,-0.0435,-0.1642,-0.3149,-0.4752,-0.5147,-0.5683,-0.635,-2.0909,-2.1252,-2.1594,-2.1732,-2.2561,-2.3134,-2.2887,-2.2955,-2.3076,-2.3243,-2.3348,-2.3554,-2.3774,-2.3325,-2.2981,-2.2847,-2.1484,0.0,0.0,0.0,0.0,-1.8796,-1.8383,-1.7894,-1.7435,-1.6675,-1.585,0.0,-1.44,-1.3582,-1.2579,-1.2556,-1.2591,-1.2745,-1.265,-1.2883,-1.3333,-1.3385,0.0,-1.3379,-1.2088,-1.151,-1.1277,-1.0408,-0.935,-0.8316,-0.8316,-0.7301,-0.5905,-0.5739,-0.5135,-0.4224,-0.2937,-0.2222,-0.1555,-0.0268,0.0716,0.1433,0.1523,0.1927,0.242,0.2812,0.2682,0.2805,0.426,0.4024,0.3624,0.3984,0.3934,0.349,0.2529,0.0,0.0,0.0,0.0,0.0,0.0,0.0,0.0,0.0,0.0,0.1449,0.0,0.0,0.0,0.0,0.0,0.0,0.0,0.0,-0.0988,0.0,-0.1286,-0.1251,0.0,0.0,-0.1024,-0.1168,-0.0966,-0.0898,-0.0898,-0.0898,-0.0898,-0.0898,-0.0898,-0.0898,-0.0898,-0.0842,-0.0525,-0.0186,-0.1184,-0.2281,-0.3347,-0.4217,-0.5153,-0.602,-2.3433,0.0,0.0,0.0,0.0,0.0,0.0,-2.4522,0.0,-2.3208,-2.3003,-2.2988,-2.3227,-2.3173,-2.2969,-2.2515,-2.1824,-2.1278,-2.1044,-2.0314,-1.9725,-1.9265,-1.8824,-1.8316,-1.7747,-1.7129,-1.648,-1.5802,0.0,-1.4026,-1.318,-1.2758,-1.2556,-1.2603,-1.2696,-1.297,-1.3294,0.0,0.0,-1.2807,-1.1696,-1.1085,-1.0785,-0.9848,-0.9007,-0.8275,-0.8062,-0.7133,-0.5996,-0.5782,-0.5221,-0.4439,-0.3025,-0.2404,-0.1912,-0.0491,0.0447,0.1074,0.1344,0.1794,0.2243,0.2462,0.2375,0.2506,0.3662,0.3618,0.3422,0.3767,0.3695,0.3424,0.2886,0.2223,0.0,0.0,0.0,0.0,0.0,0.0,0.1666,0.0,0.0,0.0,0.0,0.0,0.0,0.0,0.0,0.0,0.0,0.0,-0.0776,0.0,0.0,0.0,-0.1034,0.0,-0.1018,-0.1034,-0.0961,-0.0898,-0.0898,-0.0898,-0.0898,-0.0898,-0.0898,-0.0729,-0.045,-0.0407,-0.0243,-0.0063,-0.0529,-0.141,-0.2614,-0.3422,-0.4462,-0.5538,0.0,-2.513,0.0,0.0,-2.5374,0.0,-2.5741,-2.5672,-2.5149,-2.3676,-2.2984,-2.2778,-2.3013,-2.326,-2.3121,-2.2389,-2.2226,-2.1889,-2.1252,-2.0833,-2.0381,-1.9749,-1.9333,-1.8782,-1.8112,-1.758,-1.7044,0.0,0.0,0.0,-1.3729,-1.3107,-1.2686,-1.2469,-1.2739,0.0,0.0,0.0,-1.2637,-1.2218,-1.1506,-1.0903,-1.0322,-0.9573,-0.8872,-0.8275,-0.7938,-0.7175,-0.6246,-0.5825,-0.5394,-0.4696,-0.3023,-0.2492,-0.2182,-0.0626,0.0179,0.0671,0.1119,0.1614,0.2064,0.2154,0.2201,0.2372,0.3053,0.3183,0.3163,0.3422,0.3444,0.3289,0.299,0.2407,0.0,0.0,0.0,0.0,0.0,0.0,0.0,0.0,0.0,0.0,0.165,0.0,0.0,0.0,0.0,0.0,-0.0505,0.0,0.0,0.0,0.0,-0.1174,-0.0793,0.0,-0.1013,-0.0964,-0.09,-0.0898,-0.0898,-0.0898,-0.0842,-0.0786,-0.0848,-0.0569,0.0,0.0,0.0,0.0,0.0,-0.0681,-0.1829,-0.2661,-0.3666,-0.4778,0.0,0.0,0.0,0.0,0.0,0.0,-2.5954,-2.6251,-2.6213,-2.5435,-2.4268,-2.3505,-2.3548,-2.3098,-2.2685,-2.25,-2.1951,-2.1473,-2.1225,-2.13,-2.1053,-2.0259,-1.9963,-1.923,-1.8026,-1.7587,-1.6816,0.0,0.0,-1.475,0.0,-1.3283,-1.2842,-1.2212,0.0,0.0,0.0,-1.2463,-1.222,-1.1843,-1.191,-1.1292,-1.0405,-1.028,-0.9464,-0.8275,-0.8275,-0.7384,-0.6246,-0.5825,-0.5394,-0.4696,-0.3023,-0.2492,-0.2273,-0.0986,-0.0314,0.0179,0.0626,0.1119,0.1614,0.2064,0.2201,0.2337,0.2842,0.2678,0.2596,0.296,0.2856,0.2671,0.2501,0.245,0.234,0.0,0.0,0.0,0.0,0.0,0.1759,0.1704,0.0,0.0,0.1406,0.1327,0.0,0.0,0.1154,0.0,0.0,0.0,0.0,0.0056,-0.038,-0.0607,-0.0528,-0.0797,-0.1025,-0.1173,-0.0968,-0.0898,-0.0898,-0.0898,-0.0729,-0.0449,-0.0753,-0.0537,0.0,0.0,0.0,0.0,0.0,-0.0071,-0.035,-0.179,-0.2743,-0.3465,0.0,0.0,0.0,0.0,0.0,0.0,0.0,-2.6093,-2.5764,-2.5106,-2.4552,-2.4059,-2.364,-2.3357,-2.3122,-2.2978,-2.2671,-2.2452,-2.2366,-2.1772,-2.1183,-2.0554,-2.0092,-1.935,-1.8267,-1.8022,-1.7491,0.0,0.0,0.0,0.0,0.0,0.0,0.0,0.0,-1.2521,-1.2345,-1.2553,-1.207,-1.119,-1.1223,-1.0596,-0.9651,-0.9172,-0.8657,-0.8139,-0.7679,-0.7014,-0.6246,-0.5825,-0.5394,-0.4696,-0.3023,-0.2492,-0.2273,-0.1076,-0.0359,0.0045,0.0224,0.085,0.1433,0.1658,0.1973,0.2258,0.2491,0.2425,0.2388,0.2603,0.2572,0.2489,0.2491,0.2432,0.2327,0.0,0.0,0.0,0.0,0.0,0.0,0.187,0.0,0.1513,0.1565,0.1442,0.0,0.0,0.0,0.0,0.0,0.0,0.0,0.0163,0.0,-0.0334,-0.0343,-0.0734,-0.096,-0.103,-0.096,-0.0898,-0.0898,-0.0898,-0.0624,-0.0174,-0.0299,-0.0249,0.0,0.0,0.0,0.0,0.0,0.0,-0.0072,-0.0653,-0.16,-0.2761,-2.8118,0.0,-2.6851,0.0,-2.6909,-2.6444,-2.6579,-2.6351,-2.5836,-2.4939,-2.4866,-2.4582,-2.3684,-2.348,-2.3407,-2.3319,-2.3201,-2.3082,-2.2902,-2.2141,-2.1419,-2.0745,-2.0292,0.0,-1.8586,-1.8493,-1.8164,-1.7568,-1.6647,0.0,0.0,0.0,0.0,0.0,-1.264,-1.2513,-1.2082,-1.2513,-1.1914,-1.0685,-1.0848,-1.0291,-0.9322,-0.8716,-0.8312,-0.8011,-0.7426,-0.6761,-0.6076,-0.5782,-0.5308,-0.457,-0.3199,-0.2625,-0.2317,-0.1256,-0.0583,-0.0179,-0.0045,0.0582,0.1208,0.1344,0.1794,0.2215,0.2278,0.2285,0.2354,0.2472,0.2476,0.2487,0.2632,0.2487,0.2424,0.2634,0.0,0.0,0.0,0.2338,0.0,0.2101,0.1822,0.1685,0.1862,0.1628,0.0,0.0,0.0,0.0,0.0,0.0,0.0,0.0,0.0,0.0,0.0056,-0.0393,-0.0733,-0.0911,-0.0911,-0.0858,-0.0751,-0.0875,-0.0596,0.0,0.0,0.0,0.0,0.0,0.0,0.0,0.0,0.0,0.0,0.0,-0.0889,-0.2281,-2.7961,-2.7775,-2.7675,-2.7269,-2.7218,-2.7203,-2.7167,-2.7321,-2.6896,-2.556,-2.5491,-2.5091,-2.3744,-2.3436,-2.3319,-2.3319,-2.3319,-2.3038,-2.2463,-2.248,-2.1974,0.0,0.0,-2.0224,-1.9032,-1.9007,-1.8682,-1.7977,0.0,0.0,-1.6548,0.0,-1.3909,-1.2871,-1.2812,-1.2325,-1.1519,-1.2076,-1.1551,-1.0466,-1.12,-1.083,-0.977,-0.9478,-0.886,-0.8055,-0.7807,-0.6833,-0.5696,-0.5696,-0.5096,-0.4184,-0.3602,-0.2981,-0.2361,-0.1789,-0.1167,-0.0584,-0.0134,0.0358,0.0805,0.1299,0.1794,0.2201,0.2201,0.2291,0.2468,0.265,0.267,0.2634,0.2672,0.2689,0.2658,0.2624,0.0,0.0,0.0,0.0,0.0,0.2361,0.1809,0.1639,0.2225,0.1684,0.0,0.0,0.0,0.0,0.0,0.0,0.0,0.2178,0.1732,0.0,0.0673,0.0224,-0.0285,-0.0883,-0.0883,-0.0718,-0.0432,-0.0763,-0.059,0.0,0.0,0.0,0.0,0.0,0.0,0.0,0.0,0.0,0.0,0.0,-0.0926,-0.2191,-2.7533,-2.708,-2.6718,-2.6653,-2.6639,-2.6505,-2.6046,-2.6098,-2.5723,-2.4552,-2.4251,-2.3939,-2.3267,-2.2999,-2.2979,0.0,-2.2678,-2.231,0.0,-2.1718,-2.1224,-2.0944,-2.0396,-1.9978,-1.9687,-1.9221,-1.8833,-1.8536,0.0,0.0,0.0,-1.443,-1.3814,-1.3165,-1.3156,-1.2893,-1.2479,-1.2531,-1.178,-1.0568,-1.0677,-1.0112,-0.9059,-0.8587,-0.8371,-0.8256,-0.7726,-0.6868,-0.5979,-0.5979,-0.5213,-0.4272,-0.4096,-0.3337,-0.2361,-0.1789,-0.1167,-0.0674,-0.0539,-0.0134,0.0358,0.0805,0.1373,0.1869,0.2195,0.2331,0.2434,0.2493,0.2481,0.2489,0.2634,0.2651,0.2663,0.2642,0.2672,0.0,0.0,0.0,0.2336,0.2424,0.2095,0.1965,0.2411,0.2148,0.0,0.0,0.0,0.0,0.0,0.0,0.0,0.0,0.1902,0.0,0.139,0.0355,-0.006,0.0061,-0.0365,-0.0428,-0.0123,-0.025,-0.0191,0.0,0.0,0.0,0.0,0.0,0.0,0.0,0.0,0.0,0.0,0.0,-0.0309,-0.0905,-2.7395,-2.7024,-2.6627,-2.6627,-2.6627,-2.6391,-2.5726,-2.5781,-2.5433,-2.4241,-2.3856,-2.358,-2.322,-2.2602,0.0,-2.3086,-2.2437,-2.1996,-2.1949,-2.1251,-2.0746,-2.0709,-2.0156,-1.9862,-1.9926,-1.9548,0.0,-1.8904,-1.7611,-1.6242,-1.482,-1.4655,-1.4136,-1.3275,-1.3173,-1.2696,-1.1912,-1.2018,-1.122,-0.9909,-1.0064,-0.9562,-0.8758,-0.8277,-0.8055,-0.7998,-0.7527,-0.6701,-0.5851,-0.5851,-0.5204,-0.4378,-0.4378,-0.3516,-0.2406,-0.2055,-0.1344,-0.0719,-0.0719,-0.0363,0.0092,0.0366,0.0992,0.171,0.2278,0.2376,0.2401,0.2473,0.2495,0.2523,0.2601,0.2659,0.2625,0.2681,0.2747,0.2747,0.2747,0.0,0.2609,0.0,0.0,0.0,0.0,0.2799,0.2646,0.0,0.0,0.0,0.0,0.0,0.0,0.2543,0.2457,0.2349,0.2173,0.1042,0.0252,-0.0254,-0.0258,-0.0194,0.0,0.0,0.0,0.0,0.0,0.0,0.0,0.0,0.0,0.0,0.0,0.0,0.0,0.0,-0.023,-0.0604,-2.7469,-2.7306,-2.7225,0.0,-2.693,0.0,-2.6046,-2.6116,-2.5805,-2.4555,-2.4167,-2.3836,-2.3487,-2.2256,-2.1827,-2.2657,0.0,0.0,0.0,-2.0908,-2.061,-2.0233,-2.0093,-1.9926,-1.9811,-1.9875,-1.9565,-1.8827,-1.7831,-1.6821,-1.5816,-1.5652,-1.4724,-1.331,-1.3046,-1.2012,-1.0436,-1.0802,-1.0172,-0.8944,-0.947,-0.9299,-0.8778,-0.851,-0.8037,-0.7476,-0.7218,-0.6433,-0.5506,-0.5506,-0.5088,-0.4517,-0.4517,-0.3612,-0.2514,-0.2506,-0.1658,-0.072,-0.0722,-0.0417,-0.0048,-0.0,0.0786,0.174,0.2499,0.2479,0.2452,0.2725,0.2719,0.2691,0.2715,0.2755,0.2699,0.2693,0.2805,0.2916,0.2916,0.0,0.3085,0.0,0.0,0.0,0.4118,0.352,0.3252,0.0,0.0,0.0,0.0,0.0,0.2834,0.314,0.3312,0.3254,0.2964,0.2198,0.0654,-0.1476,-0.0483,0.0,0.0,0.0,0.0,0.0,0.0,0.0,0.0,0.0,0.0,0.0,0.0,0.0,0.0,0.0,-0.0532,-0.1065,0.0,0.0,-2.6228,-2.5805,-2.6076,-2.6083,-2.5161,-2.5454,-2.5435,-2.4323,-2.4054,-2.3585,-2.2722,-2.2528,-2.2264,-2.1834,-2.1366,-2.1131,-2.118,-2.0673,-2.0385,-2.041,-2.0144,-1.999,-1.9926,-1.9552,-1.8632,-1.7101,-1.6821,-1.614,-1.5001,-1.4951,-1.4414,-1.3425,-1.3374,-1.2696,-1.1526,-1.1634,-1.0951,-0.98,-1.014,-0.9686,-0.8798,-0.8731,-0.8325,-0.7745,-0.7482,-0.6739,-0.5831,-0.5831,-0.534,-0.4743,-0.4743,-0.3882,-0.2868,-0.278,-0.1788,-0.0724,-0.0885,-0.0757,-0.0525,-0.0095,0.09,0.2028,0.2947,0.3083,0.313,0.3304,0.3276,0.32,0.304,0.3022,0.2998,0.2871,0.286,0.2914,0.3021,0.3118,0.3194,0.0,0.3294,0.3436,0.3857,0.3698,0.3589,0.0,0.0,0.0,0.3564,0.3698,0.3773,0.3655,0.3861,0.3951,0.3843,0.2902,0.1264,-0.1209,-0.0407,0.0,0.0,0.0,0.0,0.0,0.0,0.0,0.0,0.0,0.0,0.0,0.0,0.0,0.0,0.0,-0.0158,-0.0399,-2.6127,-2.6079,-2.5898,-2.5348,-2.5572,-2.5578,-2.4755,-2.5003,-2.4975,-2.4102,-2.3781,-2.3433,-2.3042,-2.2684,-2.2285,-2.1797,-2.1235,-2.0898,-2.0898,-2.0435,-2.0233,-2.0246,-2.0093,-1.9888,-1.9565,-1.9291,-1.8298,-1.6492,-1.6332,-1.5768,-1.4843,-1.4902,-1.4291,-1.3199,-1.3199,-1.239,-1.1063,-1.1063,-1.0602,-0.9953,-1.0065,-0.968,-0.9005,-0.9005,-0.8375,-0.754,-0.7349,-0.6571,-0.5633,-0.5633,-0.534,-0.493,-0.493,-0.4217,-0.3412,-0.3299,-0.2194,-0.1001,-0.1022,-0.0992,-0.0757,-0.0051,0.1072,0.2242,0.3092,0.3214,0.324,0.3385,0.3454,0.3427,0.3322,0.3264,0.3273,0.3161,0.3227,0.3249,0.3408,0.3465,0.3558,0.3741,0.3842,0.3931,0.405,0.416,0.4183,0.4068,0.418,0.0,0.405,0.4344,0.4329,0.3963,0.4142,0.4274,0.4344,0.3852,0.2256,-0.0617,-0.0206,0.0,0.0,0.0,0.0,0.0,0.0,0.0,0.0,0.0,0.0,0.0,0.0,0.0,0.0,0.0,0.0,-0.0081,-2.5225,-2.5584,-2.5835,-2.5159,-2.5231,-2.5177,-2.4613,-2.4666,-2.4639,-2.4017,-2.358,-2.3415,-2.3561,-2.2766,-2.2205,-2.206,-2.1549,-2.099,-2.0524,-2.0233,-2.0029,-1.9875,-1.9772,-1.9448,-1.8881,-1.891,-1.8081,-1.6379,-1.6019,-1.5498,-1.4793,-1.4911,-1.4112,-1.2581,-1.2581,-1.1691,-1.018,-1.018,-1.0013,-0.9753,-0.98,-0.9613,-0.9256,-0.9303,-0.846,-0.7187,-0.7149,-0.6375,-0.5333,-0.5309,-0.5197,-0.5129,-0.51,-0.4569,-0.391,-0.3838,-0.2683,-0.1434,-0.1273,-0.1145,-0.086,-0.0,0.0973,0.2032,0.3072,0.3251,0.3201,0.343,0.3482,0.3516,0.3551,0.3583,0.3567,0.3533,0.3564,0.3607,0.3769,0.0,0.3969,0.4201,0.4361,0.4397,0.438,0.4562,0.4596,0.4568,0.4668,0.4689,0.4595,0.4701,0.4662,0.4247,0.4339,0.4458,0.4592,0.4719,0.3358,0.0627,0.0209,0.0,0.0,0.0,0.0,0.0,0.0,0.0,0.0,0.0,0.0,0.0,0.0,0.0,0.0,0.0,0.0,0.0,-2.4932,-2.5012,-2.5003,-2.4536,-2.4951,-2.5106,-2.4155,-2.4553,-2.4768,-2.4152,-2.4032,-2.3728,-2.315,-2.2976,-2.2631,-2.1988,-2.1508,-2.1082,-2.0537,-1.9914,-1.9488,-1.9344,-1.8845,-1.8459,-1.8255,-1.7754,-1.6989,-1.5846,-1.573,-1.5069,-1.3872,-1.3932,-1.313,-1.167,-1.167,-1.1274,-1.0488,-1.0488,-1.0321,-1.0067,-1.0321,-1.01,-0.9639,-0.9886,-0.9014,-0.7639,-0.7502,-0.6643,-0.5547,-0.5349,-0.5281,-0.5226,-0.5144,-0.457,-0.3987,-0.3835,-0.3051,-0.2193,-0.1919,-0.138,-0.0752,-0.0389,-0.0169,0.0625,0.3027,0.3669,0.3811,0.4105,0.4165,0.4113,0.39,0.3819,0.3745,0.3559,0.3513,0.3558,0.3785,0.0,0.4125,0.4186,0.4439,0.454,0.44,0.4446,0.44,0.4371,0.4519,0.4631,0.4593,0.4752,0.4743,0.4569,0.4653,0.4737,0.4677,0.4623,0.4232,0.3601,0.1151,0.0,0.0,0.0,0.0,0.0,0.0,0.0,0.0,0.0,0.0,0.0,0.0,0.0,0.0,0.0,0.0,0.0,-2.404,-2.4266,-2.4354,-2.4008,-2.4363,-2.4536,-2.4054,-2.4287,-2.439,-2.4112,-2.4112,-2.3949,-2.3618,-2.3534,-2.3129,-2.2141,-2.1572,-2.0907,-2.0035,-1.9596,-1.9214,-1.8762,-1.8363,-1.8027,-1.7644,-1.7056,-1.6457,-1.5826,-1.5536,-1.4883,-1.3855,-1.3683,-1.2834,-1.1483,-1.16,-1.1296,-1.0624,-1.0624,-1.0286,-0.9787,-0.9724,-0.922,-0.8523,-0.8638,-0.7978,-0.6909,-0.6755,-0.6187,-0.5439,-0.5041,-0.4987,-0.5013,-0.4967,-0.4703,-0.437,-0.4198,-0.2909,-0.1568,-0.1463,-0.0901,-0.0397,-0.0645,-0.0408,0.0116,0.1376,0.2232,0.3055,0.4154,0.4437,0.448,0.4276,0.4285,0.4204,0.3974,0.3901,0.0,0.4183,0.4189,0.4271,0.44,0.4522,0.4484,0.4358,0.4469,0.4517,0.4442,0.4572,0.4603,0.4523,0.4594,0.4563,0.4434,0.4498,0.45,0.4503,0.3605,0.3571,0.4288,0.1396,0.0,0.0,0.0,0.0,0.0,0.0,0.0,0.0,0.0,0.0,0.0,0.0,0.0,0.0,0.0,0.0,0.0,-2.3047,-2.3416,-2.3578,-2.3454,-2.3688,-2.3936,-2.4054,-2.4054,-2.4112,-2.4112,-2.4112,-2.4002,-2.3683,-2.3554,-2.3018,-2.1844,-2.1297,-2.0548,-1.9403,-1.9197,-1.8804,-1.8127,-1.7831,-1.7501,-1.7,-1.6457,-1.6009,-1.5642,-1.5177,-1.446,-1.3554,-1.326,-1.2466,-1.1303,-1.1476,-1.1038,-1.0231,-1.0364,-0.9907,-0.9128,-0.8994,-0.843,-0.7641,-0.7704,-0.7164,-0.6328,-0.6316,-0.5934,-0.5373,-0.4911,-0.4819,-0.4799,-0.4774,-0.47,-0.4681,-0.4411,-0.3051,-0.1382,-0.0828,-0.0357,-0.012,-0.0553,-0.0365,0.0,0.0,0.0743,0.1883,0.3685,0.4415,0.4746,0.4663,0.4632,0.4543,0.442,0.0,0.4273,0.0,0.4333,0.4307,0.4531,0.4524,0.4486,0.4367,0.4546,0.4602,0.4574,0.4658,0.4599,0.4502,0.4497,0.4458,0.4303,0.43,0.4314,0.4344,0.3205,0.2847,0.3291,0.1759,0.0675,0.0,0.0,0.0,0.0,0.0,0.0,0.0,0.0,0.0,0.0,0.0,0.0,0.0,0.0,0.0,0.0,-2.2398,-2.2381,-2.2481,-2.286,-2.3078,-2.333,-2.3832,-2.4008,-2.4112,-2.4112,-2.4112,-2.3612,-2.2397,-2.223,-2.1716,-2.0439,-2.017,-1.9749,-1.8851,-1.843,-1.8035,-1.7601,-1.6874,-1.6488,-1.6488,-1.5826,-1.5303,-1.4951,-1.4359,-1.339,-1.2166,-1.2104,-1.1615,-1.0688,-1.0681,-1.0098,-0.9122,-0.964,-0.9192,-0.8156,-0.8544,-0.8404,-0.8001,-0.8329,-0.7802,-0.6854,-0.7038,-0.6479,-0.5531,-0.5376,-0.509,-0.4758,-0.4646,-0.4537,-0.4396,-0.4339,-0.3903,-0.2885,-0.0676,-0.0062,-0.0,-0.0062,-0.0063,0.0,0.0,0.0063,0.0582,0.2327,0.3944,0.5,0.4766,0.4631,0.4613,0.4613,0.0,0.0,0.4268,0.4281,0.4276,0.4353,0.4455,0.4546,0.4558,0.4442,0.4456,0.4779,0.4651,0.4582,0.4573,0.4573,0.4506,0.43,0.43,0.4355,0.4469,0.4222,0.2857,0.0376,0.2778,0.2581,0.0,0.0,0.0,0.0,0.0,0.0,0.0,0.0,0.0,0.0,0.0,0.0,0.0,0.0,0.0,0.0,-2.31,-2.2733,-2.248,-2.3356,-2.3485,-2.3569,-2.3936,-2.4054,-2.3923,-2.3531,-2.3471,-2.3018,-2.1795,-2.1675,-2.1176,-1.9958,-1.9531,-1.9097,-1.8502,-1.7666,-1.7101,-1.6839,-1.6545,-1.6384,-1.6384,-1.571,-1.5352,-1.5235,-1.4172,-1.3321,-1.2589,-1.2042,-1.1435,-1.087,-1.0358,-0.9901,-0.9512,-0.9326,-0.8748,-0.7832,-0.7762,-0.7246,-0.6404,-0.6736,-0.6539,-0.5994,-0.6201,-0.5958,-0.5445,-0.5038,-0.4734,-0.4496,-0.4415,-0.4398,-0.4308,-0.4303,-0.3959,-0.3075,-0.0653,0.0,0.0,0.0,0.0,0.0,0.0,0.0,0.0469,0.2167,0.3855,0.4981,0.4856,0.4833,0.4728,0.4655,0.0,0.4493,0.4613,0.4574,0.4574,0.4652,0.4703,0.4681,0.47,0.4631,0.4631,0.4764,0.4701,0.468,0.468,0.4608,0.454,0.4543,0.4475,0.4535,0.4668,0.4575,0.3044,0.0,0.1118,0.106,0.0,0.0,0.0,0.0,0.0,0.0,0.0,0.0,0.0,0.0,0.0,0.0,0.0,0.0,0.0,0.0,-2.2991,-2.265,-2.2408,-2.3327,-2.3195,-2.3058,-2.3245,-2.3148,-2.2822,-2.2372,-2.2311,-2.1861,-2.0731,-2.0563,-2.0129,-1.9011,-1.8513,-1.8089,-1.7791,-1.6719,-1.6127,-1.6087,-1.6144,-1.6077,-1.5778,-1.5177,-1.4874,-1.4815,-1.3752,-1.3025,-1.2712,-1.1926,-1.1493,-1.1199,-1.0232,-0.9693,-0.9425,-0.8963,-0.8139,-0.7206,-0.7148,-0.644,-0.55,-0.597,-0.5836,-0.5487,-0.5905,-0.5771,-0.5345,-0.498,-0.4623,-0.4308,-0.4282,-0.3678,-0.3133,-0.4039,-0.3404,-0.2093,-0.0472,0.0,0.0,0.0,0.0,0.0,0.0,0.0,0.0483,0.2066,0.381,0.4982,0.4939,0.4873,0.4884,0.4848,0.4748,0.4694,0.4817,0.4731,0.4759,0.4808,0.4798,0.4827,0.4827,0.4827,0.4842,0.4953,0.4833,0.4742,0.4742,0.4669,0.4599,0.4672,0.4635,0.4648,0.485,0.4793,0.3439,0.0811,0.0246,0.0,0.0,0.0,0.0,0.0,0.0,0.0,0.0,0.0,0.0,0.0,0.0,0.0,0.0,0.0,0.0,0.0,-2.177,-2.1873,-2.2059,-2.2592,-2.2066,-2.1587,-2.1588,-2.0968,-2.0512,-2.0512,-2.0512,-2.0079,-1.8934,-1.8765,-1.8396,-1.7491,-1.7076,-1.6763,-1.6497,-1.5507,-1.504,-1.5352,-1.5614,-1.5323,-1.4538,-1.4001,-1.364,-1.3519,-1.2928,-1.2444,-1.2065,-1.1755,-1.1545,-1.1455,-1.0327,-0.9389,-0.8689,-0.8328,-0.7419,-0.6253,-0.6689,-0.6329,-0.5589,-0.6421,-0.6211,-0.5586,-0.6417,-0.6173,-0.5428,-0.5428,-0.49,-0.4325,-0.4317,-0.2315,-0.0562,-0.3455,-0.2208,0.0,0.0,0.0,0.0,0.0,0.0,0.0,0.0,0.0,0.0421,0.1819,0.3642,0.495,0.4925,0.4873,0.4913,0.5107,0.4876,0.4697,0.4819,0.473,0.4682,0.4697,0.4682,0.4755,0.4966,0.4824,0.4874,0.5144,0.5017,0.4876,0.4876,0.4801,0.4726,0.4726,0.477,0.4893,0.5015,0.5026,0.413,0.2514,0.0832,0.0,0.0,0.0,0.0,0.0,0.0,0.0,0.0,0.0,0.0,0.0,0.0,0.0,0.0,0.0,0.0,0.0,-2.1311,-2.1118,-2.1118,-2.1853,-2.1404,-2.1008,-2.1246,-2.0789,-2.0331,-1.9836,-1.9771,-1.935,-1.8219,-1.8114,-1.7859,-1.7148,-1.7009,-1.6766,-1.6318,-1.5841,-1.5228,-1.4471,-1.4961,-1.5083,-1.4839,-1.454,-1.429,-1.429,-1.3599,-1.3275,-1.3144,-1.2818,-1.227,-1.1492,-1.0461,-0.9477,-0.8569,-0.7944,-0.743,-0.6929,-0.7085,-0.6538,-0.581,-0.6588,-0.6309,-0.5586,-0.6417,-0.6177,-0.545,-0.545,-0.5038,-0.4422,-0.4326,-0.2352,-0.0141,-0.1054,-0.0689,0.0,0.0,0.0,0.0,0.0,0.0,0.0,0.0,0.0,0.0423,0.1791,0.3385,0.4555,0.472,0.4726,0.4767,0.4886,0.4803,0.4822,0.4944,0.493,0.5023,0.5042,0.5024,0.5059,0.5177,0.5112,0.511,0.5222,0.5097,0.5072,0.5072,0.4853,0.4853,0.4995,0.4889,0.4893,0.5015,0.5031,0.4234,0.2741,0.0907,0.0,0.0,0.0,0.0,0.0,0.0,0.0,0.0,0.0,0.0,0.0,0.0,0.0,0.0,0.0,0.0,0.0,-2.1,-2.0855,-2.0876,-2.1365,-2.078,-2.0341,-2.036,-1.9891,-1.9322,-1.8761,-1.8741,-1.8387,-1.7523,-1.7197,-1.6919,-1.664,-1.6282,-1.586,-1.5402,-1.5147,-1.4707,-1.3857,-1.4371,-1.4513,-1.4282,-1.425,-1.4098,-1.3701,-1.331,-1.2975,-1.2624,-1.2287,-1.1881,-1.1381,-1.0108,-0.9317,-0.8829,-0.7884,-0.7419,-0.719,-0.7187,-0.6698,-0.5964,-0.6768,-0.6489,-0.5762,-0.6407,-0.622,-0.5601,-0.5467,-0.4919,-0.4227,-0.2999,-0.1404,0.0,0.0,0.0,0.0,0.0,0.0,0.0,0.0,0.0,0.0,0.0,0.0,0.0419,0.1951,0.3427,0.4541,0.4719,0.4724,0.4749,0.4822,0.4792,0.4806,0.4928,0.4911,0.497,0.5161,0.5113,0.5147,0.5188,0.5183,0.5182,0.5087,0.5089,0.5053,0.5053,0.498,0.4906,0.5056,0.498,0.4942,0.5015,0.5015,0.4277,0.2695,0.0887,0.0,0.0,0.0,0.0,0.0,0.0,0.0,0.0,0.0,0.0,0.0,0.0,0.0,0.0,0.0,0.027,0.0539,-2.0716,-2.0818,-2.0849,-2.0849,-2.0277,-1.9681,-1.9228,-1.8573,-1.799,-1.7596,-1.7513,-1.7358,-1.6921,-1.6211,-1.5833,-1.5903,-1.5091,-1.4484,-1.4172,-1.3981,-1.3765,-1.3632,-1.3942,-1.3823,-1.3195,-1.3637,-1.3403,-1.2524,-1.2524,-1.2107,-1.1276,-1.1006,-1.0936,-1.1103,-0.9656,-0.9109,-0.9135,-0.7979,-0.7393,-0.7306,-0.7275,-0.6726,-0.6125,-0.6872,-0.6637,-0.603,-0.6403,-0.6236,-0.5686,-0.5286,-0.479,-0.3834,-0.0941,0.0,0.0,0.0,0.0,0.0,0.0,0.0,0.0,0.0,0.0,0.0,0.0,0.0,0.0483,0.217,0.3732,0.48,0.483,0.4841,0.4838,0.4849,0.4749,0.4711,0.4833,0.4754,0.4792,0.5038,0.4967,0.4947,0.5118,0.5136,0.5118,0.501,0.5026,0.5034,0.5031,0.5042,0.5045,0.5031,0.5031,0.5026,0.5018,0.5018,0.4229,0.2738,0.0863,0.0,0.0,0.0,0.0,0.0,0.0,0.0,0.0,0.0,0.0,0.0,0.0,0.009,0.009,0.009,0.0629,0.1348,-1.9202,-1.9486,-1.9712,-1.9712,-1.9294,-1.8898,-1.8815,-1.8395,-1.8091,-1.7999,-1.7697,-1.7243,-1.6569,-1.6076,-1.5542,-1.4966,-1.4696,-1.4561,-1.4489,-1.4364,-1.4211,-1.3997,-1.4215,-1.4183,-1.3894,-1.4228,-1.4049,-1.325,-1.325,-1.2827,-1.2032,-1.1966,-1.156,-1.0873,-1.0193,-0.9476,-0.8775,-0.8058,-0.7816,-0.7884,-0.7534,-0.7011,-0.651,-0.6812,-0.6356,-0.5582,-0.5956,-0.5864,-0.551,-0.519,-0.4962,-0.4275,-0.0988,0.0,0.0,0.0,0.0,0.0,0.0,0.0,0.0,0.0,0.0,0.0,0.0,0.0,0.0518,0.2391,0.4129,0.5153,0.4958,0.4898,0.4866,0.4961,0.4874,0.4836,0.4961,0.4955,0.4985,0.5061,0.5045,0.5064,0.5289,0.5451,0.5372,0.5015,0.526,0.5314,0.5151,0.5241,0.5249,0.5151,0.5148,0.5108,0.5018,0.5018,0.4784,0.4396,0.1436,0.0,0.0,0.0,0.0,0.0,0.0,0.0,0.0,0.0,0.0,0.0,0.0,0.0449,0.1077,0.1077,0.0987,0.0897,-1.9036,-1.9164,-1.9301,-1.9301,-1.9127,-1.899,-1.899,-1.8419,-1.7991,-1.7805,-1.7214,-1.6563,-1.5831,-1.5259,-1.4574,-1.3833,-1.3985,-1.4137,-1.4346,-1.4474,-1.4441,-1.4363,-1.4441,-1.4292,-1.3782,-1.3966,-1.3688,-1.2952,-1.2512,-1.1916,-1.1186,-1.1186,-1.0887,-1.0368,-0.9986,-0.9458,-0.8775,-0.8327,-0.8102,-0.8102,-0.7872,-0.733,-0.6641,-0.6945,-0.6475,-0.5622,-0.5857,-0.5637,-0.5213,-0.5083,-0.392,-0.2335,-0.0583,0.0,0.0,0.0,0.0,0.0,0.0,0.0,0.0,0.0,0.0,0.0,0.0,0.1399,0.2792,0.285,0.4261,0.5373,0.5245,0.5086,0.5023,0.5089,0.4999,0.4961,0.508,0.505,0.5034,0.5238,0.5173,0.5151,0.5398,0.5532,0.5469,0.5332,0.5445,0.5433,0.535,0.533,0.5252,0.5186,0.5186,0.5159,0.5099,0.5097,0.5026,0.4957,0.2393,0.0793,0.0,0.0,0.0,0.0,0.0,0.0,0.0,0.0,0.0,0.0,0.0449,0.0987,0.1436,0.1436,0.1256,0.1076,-1.9301,-1.9143,-1.9063,-1.9054,-1.8975,-1.8895,-1.8895,-1.8238,-1.7645,-1.7341,-1.6618,-1.5811,-1.5145,-1.4282,-1.3525,-1.2998,-1.3352,-1.3719,-1.4076,-1.4439,-1.4688,-1.467,-1.4543,-1.4214,-1.3616,-1.3266,-1.2732,-1.2077,-1.1409,-1.0663,-0.9922,-0.9922,-0.9922,-0.9922,-0.9549,-0.9241,-0.9079,-0.8669,-0.8381,-0.8231,-0.8112,-0.75,-0.672,-0.7036,-0.6562,-0.5705,-0.5714,-0.5417,-0.4889,-0.43,-0.2313,0.0,0.0,0.0,0.0,0.0,0.0,0.0,0.0,0.0,0.0,0.0,0.0,0.0,0.0,0.2922,0.5162,0.3671,0.447,0.5516,0.5463,0.5317,0.5249,0.5249,0.5151,0.511,0.5205,0.5137,0.5148,0.5344,0.5443,0.5462,0.5708,0.5767,0.579,0.5758,0.5793,0.5708,0.5627,0.5502,0.535,0.5249,0.5249,0.5238,0.5216,0.5216,0.5154,0.4941,0.3289,0.1661,0.0,0.0,0.0,0.0,0.0,0.0,0.0,0.0356,0.0359,0.0269,0.0987,0.1345,0.1436,0.1436,0.1436,0.1436,-1.9231,-1.8576,-1.7934,-1.8167,-1.7513,-1.7025,-1.7025,-1.6935,-1.6846,-1.6798,-1.6373,-1.5833,-1.5026,-1.3915,-1.3253,-1.3244,-1.3601,-1.3901,-1.3901,-1.4656,-1.5087,-1.4988,-1.4411,-1.4029,-1.3954,-1.2269,-1.1403,-1.126,-1.1186,-1.0663,-0.9922,-0.9922,-0.9922,-0.9916,-0.9695,-0.9544,-0.9483,-0.8907,-0.8751,-0.8839,-0.8286,-0.7613,-0.6962,-0.6801,-0.6239,-0.543,-0.5355,-0.5181,-0.4586,-0.1645,-0.0345,0.0,0.0,0.0,0.0,0.0,0.0,0.0,0.0,0.0,0.0,0.0,0.0,0.0,0.0,0.2666,0.5113,0.5053,0.529,0.5479,0.5507,0.5513,0.5502,0.5502,0.5398,0.5328,0.5341,0.533,0.5333,0.5366,0.593,0.6334,0.6589,0.6796,0.6704,0.6364,0.6661,0.6582,0.5924,0.6138,0.6037,0.5504,0.5502,0.545,0.5344,0.5344,0.5236,0.5004,0.328,0.1647,0.0,0.0,0.0,0.0,0.0,0.0,0.0087,0.1781,0.1974,0.1166,0.0897,0.1076,0.1436,0.1436,0.1436,0.1436,-1.8487,-1.7764,-1.7188,-1.7269,-1.6944,-1.6698,-1.6698,-1.6288,-1.5966,-1.5966,-1.5434,-1.4796,-1.4218,-1.362,-1.3232,-1.3253,-1.3621,-1.3607,-1.3128,-1.3593,-1.3719,-1.3133,-1.2778,-1.2479,-1.201,-1.1438,-1.0846,-1.0393,-1.0573,-1.0501,-1.032,-1.032,-1.032,-1.032,-1.0163,-1.0084,-0.9937,-0.9392,-0.919,-0.9119,-0.8556,-0.7769,-0.7026,-0.7037,-0.6428,-0.5488,-0.5486,-0.4102,-0.2005,-0.0529,0.0,0.0,0.0,0.0,0.0,0.0,0.0,0.0,0.0,0.0,0.0,0.0,0.0,0.0546,0.2704,0.351,0.413,0.5147,0.5446,0.5494,0.554,0.5464,0.5464,0.5464,0.5564,0.5659,0.5912,0.5996,0.6085,0.6344,0.6599,0.6826,0.7088,0.7184,0.7188,0.7015,0.7072,0.7073,0.6739,0.6519,0.6384,0.6322,0.6067,0.5955,0.5896,0.6221,0.5944,0.4956,0.3278,0.17,0.0,0.0,0.0,0.0,0.052,0.0789,0.0886,0.1698,0.2154,0.2243,0.1794,0.1615,0.1615,0.1615,0.1525,0.1436]}]]